<?xml version="1.0" encoding="UTF-8" standalone="no" ?>
<gpx xmlns="http://www.topografix.com/GPX/1/1" creator="BaseCamp 3.1.3" version="1.1" xmlns:xsi="http://www.w3.org/2001/XMLSchema-instance" xsi:schemaLocation="http://www.topografix.com/GPX/1/1 http://www.topografix.com/GPX/1/1/gpx.xsd">

  <metadata>
    <link href="http://www.garmin.com">
      <text>Garmin International</text>
    </link>
    <time>2011-03-03T22:29:16Z</time>
    <bounds maxlat="47.45902500115335" maxlon="10.638201031833887" minlat="47.433438990265131" minlon="10.5221479665488"/>
  </metadata>

  <trk>
    <name>Bike&amp;HikeÜberschreitungLeilachspitze,Krottenköpfe on GPSies.com</name>
    <link href="http://www.gpsies.com/map.do?fileId=zgfomrhdexkptdvz"/>
    <trkseg>
      <trkpt lat="47.447312967851758" lon="10.637966003268957">
        <ele>904</ele>
        <time>2011-03-03T23:26:59Z</time>
      </trkpt>
      <trkpt lat="47.447325037792325" lon="10.637955022975802">
        <ele>904</ele>
        <time>2011-03-03T23:27:00Z</time>
      </trkpt>
      <trkpt lat="47.447329983115196" lon="10.637953011319041">
        <ele>904</ele>
        <time>2011-03-03T23:27:00Z</time>
      </trkpt>
      <trkpt lat="47.447334006428719" lon="10.63795099966228">
        <ele>904</ele>
        <time>2011-03-03T23:27:00Z</time>
      </trkpt>
      <trkpt lat="47.447353033348918" lon="10.637960974127054">
        <ele>904</ele>
        <time>2011-03-03T23:27:01Z</time>
      </trkpt>
      <trkpt lat="47.447362001985312" lon="10.637969020754099">
        <ele>904</ele>
        <time>2011-03-03T23:27:01Z</time>
      </trkpt>
      <trkpt lat="47.447354039177299" lon="10.637981006875634">
        <ele>904</ele>
        <time>2011-03-03T23:27:02Z</time>
      </trkpt>
      <trkpt lat="47.447366025298834" lon="10.638007996603847">
        <ele>904</ele>
        <time>2011-03-03T23:27:02Z</time>
      </trkpt>
      <trkpt lat="47.447726028040051" lon="10.637903977185488">
        <ele>900</ele>
        <time>2011-03-03T23:27:17Z</time>
      </trkpt>
      <trkpt lat="47.448125006631017" lon="10.637194029986858">
        <ele>911</ele>
        <time>2011-03-03T23:27:42Z</time>
      </trkpt>
      <trkpt lat="47.448618030175567" lon="10.636387020349503">
        <ele>905</ele>
        <time>2011-03-03T23:28:12Z</time>
      </trkpt>
      <trkpt lat="47.448740992695093" lon="10.635400973260403">
        <ele>905</ele>
        <time>2011-03-03T23:28:39Z</time>
      </trkpt>
      <trkpt lat="47.448973003774881" lon="10.634501008316875">
        <ele>916</ele>
        <time>2011-03-03T23:29:05Z</time>
      </trkpt>
      <trkpt lat="47.449283972382545" lon="10.633260989561677">
        <ele>914</ele>
        <time>2011-03-03T23:29:41Z</time>
      </trkpt>
      <trkpt lat="47.449405007064342" lon="10.632005967199802">
        <ele>916</ele>
        <time>2011-03-03T23:30:15Z</time>
      </trkpt>
      <trkpt lat="47.449588989838958" lon="10.631156964227557">
        <ele>925</ele>
        <time>2011-03-03T23:30:39Z</time>
      </trkpt>
      <trkpt lat="47.449965002015233" lon="10.630234032869339">
        <ele>920</ele>
        <time>2011-03-03T23:31:08Z</time>
      </trkpt>
      <trkpt lat="47.45017496868968" lon="10.629419982433319">
        <ele>919</ele>
        <time>2011-03-03T23:31:32Z</time>
      </trkpt>
      <trkpt lat="47.450428018346429" lon="10.628310972824693">
        <ele>954</ele>
        <time>2011-03-03T23:32:03Z</time>
      </trkpt>
      <trkpt lat="47.450672015547752" lon="10.627242028713226">
        <ele>951</ele>
        <time>2011-03-03T23:32:34Z</time>
      </trkpt>
      <trkpt lat="47.45079698972404" lon="10.626471983268857">
        <ele>946</ele>
        <time>2011-03-03T23:32:55Z</time>
      </trkpt>
      <trkpt lat="47.450747033581138" lon="10.625578975304961">
        <ele>951</ele>
        <time>2011-03-03T23:33:20Z</time>
      </trkpt>
      <trkpt lat="47.45068802498281" lon="10.624778000637889">
        <ele>950</ele>
        <time>2011-03-03T23:33:42Z</time>
      </trkpt>
      <trkpt lat="47.450699005275965" lon="10.623731017112732">
        <ele>940</ele>
        <time>2011-03-03T23:34:10Z</time>
      </trkpt>
      <trkpt lat="47.450707973912358" lon="10.623495988547802">
        <ele>940</ele>
        <time>2011-03-03T23:34:16Z</time>
      </trkpt>
      <trkpt lat="47.450832026079297" lon="10.623150989413261">
        <ele>940</ele>
        <time>2011-03-03T23:34:27Z</time>
      </trkpt>
      <trkpt lat="47.450937973335385" lon="10.622982010245323">
        <ele>940</ele>
        <time>2011-03-03T23:34:33Z</time>
      </trkpt>
      <trkpt lat="47.450953982770443" lon="10.622977986931801">
        <ele>940</ele>
        <time>2011-03-03T23:34:34Z</time>
      </trkpt>
      <trkpt lat="47.451185993850231" lon="10.622903974726796">
        <ele>954</ele>
        <time>2011-03-03T23:34:43Z</time>
      </trkpt>
      <trkpt lat="47.451254976913333" lon="10.622680010274053">
        <ele>964</ele>
        <time>2011-03-03T23:34:50Z</time>
      </trkpt>
      <trkpt lat="47.451017014682293" lon="10.622646985575557">
        <ele>954</ele>
        <time>2011-03-03T23:34:59Z</time>
      </trkpt>
      <trkpt lat="47.450776034966111" lon="10.622356971725821">
        <ele>954</ele>
        <time>2011-03-03T23:35:12Z</time>
      </trkpt>
      <trkpt lat="47.450643014162779" lon="10.622150022536516">
        <ele>954</ele>
        <time>2011-03-03T23:35:20Z</time>
      </trkpt>
      <trkpt lat="47.450540000572801" lon="10.621977020055056">
        <ele>978</ele>
        <time>2011-03-03T23:35:26Z</time>
      </trkpt>
      <trkpt lat="47.450594985857606" lon="10.621803011745214">
        <ele>978</ele>
        <time>2011-03-03T23:35:31Z</time>
      </trkpt>
      <trkpt lat="47.450590962544084" lon="10.621818015351892">
        <ele>978</ele>
        <time>2011-03-03T23:35:31Z</time>
      </trkpt>
      <trkpt lat="47.450588028877974" lon="10.621822038665414">
        <ele>978</ele>
        <time>2011-03-03T23:35:32Z</time>
      </trkpt>
      <trkpt lat="47.450587023049593" lon="10.621822960674763">
        <ele>978</ele>
        <time>2011-03-03T23:35:32Z</time>
      </trkpt>
      <trkpt lat="47.450617030262947" lon="10.621888004243374">
        <ele>978</ele>
        <time>2011-03-03T23:35:34Z</time>
      </trkpt>
      <trkpt lat="47.450832026079297" lon="10.622229985892773">
        <ele>954</ele>
        <time>2011-03-03T23:35:46Z</time>
      </trkpt>
      <trkpt lat="47.451119022443891" lon="10.622254963964224">
        <ele>954</ele>
        <time>2011-03-03T23:35:58Z</time>
      </trkpt>
      <trkpt lat="47.451424961909652" lon="10.622251024469733">
        <ele>964</ele>
        <time>2011-03-03T23:36:10Z</time>
      </trkpt>
      <trkpt lat="47.451483970507979" lon="10.622243983671069">
        <ele>964</ele>
        <time>2011-03-03T23:36:13Z</time>
      </trkpt>
      <trkpt lat="47.451363019645214" lon="10.622041979804635">
        <ele>995</ele>
        <time>2011-03-03T23:36:20Z</time>
      </trkpt>
      <trkpt lat="47.451212983578444" lon="10.62203099951148">
        <ele>978</ele>
        <time>2011-03-03T23:36:26Z</time>
      </trkpt>
      <trkpt lat="47.450892040506005" lon="10.621848022565246">
        <ele>978</ele>
        <time>2011-03-03T23:36:40Z</time>
      </trkpt>
      <trkpt lat="47.450955994427204" lon="10.62177199870348">
        <ele>978</ele>
        <time>2011-03-03T23:36:43Z</time>
      </trkpt>
      <trkpt lat="47.451288001611829" lon="10.621853973716497">
        <ele>995</ele>
        <time>2011-03-03T23:36:56Z</time>
      </trkpt>
      <trkpt lat="47.451487993821502" lon="10.621833018958569">
        <ele>995</ele>
        <time>2011-03-03T23:37:04Z</time>
      </trkpt>
      <trkpt lat="47.451542979106307" lon="10.621801000088453">
        <ele>995</ele>
        <time>2011-03-03T23:37:07Z</time>
      </trkpt>
      <trkpt lat="47.451566029340029" lon="10.621673008427024">
        <ele>995</ele>
        <time>2011-03-03T23:37:10Z</time>
      </trkpt>
      <trkpt lat="47.451495034620166" lon="10.62162397429347">
        <ele>995</ele>
        <time>2011-03-03T23:37:14Z</time>
      </trkpt>
      <trkpt lat="47.451151041314006" lon="10.621567983180285">
        <ele>978</ele>
        <time>2011-03-03T23:37:27Z</time>
      </trkpt>
      <trkpt lat="47.451119022443891" lon="10.621261959895492">
        <ele>978</ele>
        <time>2011-03-03T23:37:36Z</time>
      </trkpt>
      <trkpt lat="47.451120028272271" lon="10.621145032346249">
        <ele>997</ele>
        <time>2011-03-03T23:37:39Z</time>
      </trkpt>
      <trkpt lat="47.451088009402156" lon="10.620834985747933">
        <ele>997</ele>
        <time>2011-03-03T23:37:47Z</time>
      </trkpt>
      <trkpt lat="47.450996981933713" lon="10.620374986901879">
        <ele>1007</ele>
        <time>2011-03-03T23:38:00Z</time>
      </trkpt>
      <trkpt lat="47.450935961678624" lon="10.620008027181029">
        <ele>1007</ele>
        <time>2011-03-03T23:38:11Z</time>
      </trkpt>
      <trkpt lat="47.450940990820527" lon="10.619978019967675">
        <ele>1007</ele>
        <time>2011-03-03T23:38:11Z</time>
      </trkpt>
      <trkpt lat="47.450949037447572" lon="10.620002998039126">
        <ele>1007</ele>
        <time>2011-03-03T23:38:12Z</time>
      </trkpt>
      <trkpt lat="47.450763965025544" lon="10.619722036644816">
        <ele>1007</ele>
        <time>2011-03-03T23:38:23Z</time>
      </trkpt>
      <trkpt lat="47.450599009171128" lon="10.619519026950002">
        <ele>1028</ele>
        <time>2011-03-03T23:38:31Z</time>
      </trkpt>
      <trkpt lat="47.450487026944757" lon="10.619302019476891">
        <ele>1028</ele>
        <time>2011-03-03T23:38:39Z</time>
      </trkpt>
      <trkpt lat="47.450412008911371" lon="10.619031032547355">
        <ele>1018</ele>
        <time>2011-03-03T23:38:47Z</time>
      </trkpt>
      <trkpt lat="47.450379990041256" lon="10.618816036731005">
        <ele>1018</ele>
        <time>2011-03-03T23:38:53Z</time>
      </trkpt>
      <trkpt lat="47.450273036956787" lon="10.618473971262574">
        <ele>1026</ele>
        <time>2011-03-03T23:39:03Z</time>
      </trkpt>
      <trkpt lat="47.450058963149786" lon="10.618281019851565">
        <ele>1026</ele>
        <time>2011-03-03T23:39:13Z</time>
      </trkpt>
      <trkpt lat="47.449874980375171" lon="10.61792797408998">
        <ele>1026</ele>
        <time>2011-03-03T23:39:25Z</time>
      </trkpt>
      <trkpt lat="47.44970097206533" lon="10.617506029084325">
        <ele>1057</ele>
        <time>2011-03-03T23:39:38Z</time>
      </trkpt>
      <trkpt lat="47.44982703588903" lon="10.617463029921055">
        <ele>1057</ele>
        <time>2011-03-03T23:39:44Z</time>
      </trkpt>
      <trkpt lat="47.449841033667326" lon="10.617479961365461">
        <ele>1057</ele>
        <time>2011-03-03T23:39:44Z</time>
      </trkpt>
      <trkpt lat="47.449844973161817" lon="10.61747501604259">
        <ele>1057</ele>
        <time>2011-03-03T23:39:44Z</time>
      </trkpt>
      <trkpt lat="47.449847990646958" lon="10.617473004385829">
        <ele>1057</ele>
        <time>2011-03-03T23:39:45Z</time>
      </trkpt>
      <trkpt lat="47.449853019788861" lon="10.617473004385829">
        <ele>1057</ele>
        <time>2011-03-03T23:39:45Z</time>
      </trkpt>
      <trkpt lat="47.449853019788861" lon="10.61747401021421">
        <ele>1057</ele>
        <time>2011-03-03T23:39:45Z</time>
      </trkpt>
      <trkpt lat="47.449842039495707" lon="10.617502005770802">
        <ele>1057</ele>
        <time>2011-03-03T23:39:46Z</time>
      </trkpt>
      <trkpt lat="47.449940023943782" lon="10.617627985775471">
        <ele>1057</ele>
        <time>2011-03-03T23:39:51Z</time>
      </trkpt>
      <trkpt lat="47.450178992003202" lon="10.617909030988812">
        <ele>1057</ele>
        <time>2011-03-03T23:40:03Z</time>
      </trkpt>
      <trkpt lat="47.450283011421561" lon="10.617993017658591">
        <ele>1026</ele>
        <time>2011-03-03T23:40:08Z</time>
      </trkpt>
      <trkpt lat="47.450485015287995" lon="10.618135007098317">
        <ele>1070</ele>
        <time>2011-03-03T23:40:17Z</time>
      </trkpt>
      <trkpt lat="47.450668998062611" lon="10.618270039558411">
        <ele>1070</ele>
        <time>2011-03-03T23:40:25Z</time>
      </trkpt>
      <trkpt lat="47.450704034417868" lon="10.618285965174437">
        <ele>1070</ele>
        <time>2011-03-03T23:40:27Z</time>
      </trkpt>
      <trkpt lat="47.450981978327036" lon="10.618524011224508">
        <ele>1070</ele>
        <time>2011-03-03T23:40:39Z</time>
      </trkpt>
      <trkpt lat="47.451103013008833" lon="10.618606992065907">
        <ele>1070</ele>
        <time>2011-03-03T23:40:45Z</time>
      </trkpt>
      <trkpt lat="47.451270986348391" lon="10.618874961510301">
        <ele>1080</ele>
        <time>2011-03-03T23:40:55Z</time>
      </trkpt>
      <trkpt lat="47.451454969123006" lon="10.619182996451855">
        <ele>1080</ele>
        <time>2011-03-03T23:41:06Z</time>
      </trkpt>
      <trkpt lat="47.45161104016006" lon="10.619340995326638">
        <ele>1080</ele>
        <time>2011-03-03T23:41:13Z</time>
      </trkpt>
      <trkpt lat="47.4518490023911" lon="10.619609970599413">
        <ele>1049</ele>
        <time>2011-03-03T23:41:25Z</time>
      </trkpt>
      <trkpt lat="47.451870962977409" lon="10.619634026661515">
        <ele>1049</ele>
        <time>2011-03-03T23:41:26Z</time>
      </trkpt>
      <trkpt lat="47.452109009027481" lon="10.619638971984386">
        <ele>1040</ele>
        <time>2011-03-03T23:41:36Z</time>
      </trkpt>
      <trkpt lat="47.452270025387406" lon="10.619507040828466">
        <ele>1075</ele>
        <time>2011-03-03T23:41:43Z</time>
      </trkpt>
      <trkpt lat="47.452417965978384" lon="10.619248040020466">
        <ele>1075</ele>
        <time>2011-03-03T23:41:52Z</time>
      </trkpt>
      <trkpt lat="47.45242903009057" lon="10.619235970079899">
        <ele>1075</ele>
        <time>2011-03-03T23:41:53Z</time>
      </trkpt>
      <trkpt lat="47.452723989263177" lon="10.619005970656872">
        <ele>1075</ele>
        <time>2011-03-03T23:42:06Z</time>
      </trkpt>
      <trkpt lat="47.452738992869854" lon="10.61900001950562">
        <ele>1075</ele>
        <time>2011-03-03T23:42:07Z</time>
      </trkpt>
      <trkpt lat="47.452965974807739" lon="10.618740012869239">
        <ele>1090</ele>
        <time>2011-03-03T23:42:18Z</time>
      </trkpt>
      <trkpt lat="47.453180970624089" lon="10.618729032576084">
        <ele>1090</ele>
        <time>2011-03-03T23:42:27Z</time>
      </trkpt>
      <trkpt lat="47.453207038342953" lon="10.618482017889619">
        <ele>1090</ele>
        <time>2011-03-03T23:42:34Z</time>
      </trkpt>
      <trkpt lat="47.453317008912563" lon="10.618189992383122">
        <ele>1090</ele>
        <time>2011-03-03T23:42:43Z</time>
      </trkpt>
      <trkpt lat="47.453466961160302" lon="10.618168031796813">
        <ele>1090</ele>
        <time>2011-03-03T23:42:49Z</time>
      </trkpt>
      <trkpt lat="47.453662008047104" lon="10.617999974638224">
        <ele>1090</ele>
        <time>2011-03-03T23:42:58Z</time>
      </trkpt>
      <trkpt lat="47.453767033293843" lon="10.617715995758772">
        <ele>1103</ele>
        <time>2011-03-03T23:43:07Z</time>
      </trkpt>
      <trkpt lat="47.453839033842087" lon="10.617445008829236">
        <ele>1103</ele>
        <time>2011-03-03T23:43:15Z</time>
      </trkpt>
      <trkpt lat="47.454113038256764" lon="10.617397986352444">
        <ele>1103</ele>
        <time>2011-03-03T23:43:26Z</time>
      </trkpt>
      <trkpt lat="47.454130975529552" lon="10.617393041029572">
        <ele>1103</ele>
        <time>2011-03-03T23:43:26Z</time>
      </trkpt>
      <trkpt lat="47.454378996044397" lon="10.617395974695683">
        <ele>1103</ele>
        <time>2011-03-03T23:43:36Z</time>
      </trkpt>
      <trkpt lat="47.45449198409915" lon="10.617425981909037">
        <ele>1103</ele>
        <time>2011-03-03T23:43:41Z</time>
      </trkpt>
      <trkpt lat="47.454777974635363" lon="10.617307964712381">
        <ele>1097</ele>
        <time>2011-03-03T23:43:53Z</time>
      </trkpt>
      <trkpt lat="47.454975033178926" lon="10.617116019129753">
        <ele>1097</ele>
        <time>2011-03-03T23:44:02Z</time>
      </trkpt>
      <trkpt lat="47.455255994573236" lon="10.617147032171488">
        <ele>1097</ele>
        <time>2011-03-03T23:44:14Z</time>
      </trkpt>
      <trkpt lat="47.455536033958197" lon="10.61706799082458">
        <ele>1115</ele>
        <time>2011-03-03T23:44:25Z</time>
      </trkpt>
      <trkpt lat="47.455598982051015" lon="10.616955002769828">
        <ele>1115</ele>
        <time>2011-03-03T23:44:29Z</time>
      </trkpt>
      <trkpt lat="47.455742983147502" lon="10.616755010560155">
        <ele>1115</ele>
        <time>2011-03-03T23:44:37Z</time>
      </trkpt>
      <trkpt lat="47.45584599673748" lon="10.616600029170513">
        <ele>1115</ele>
        <time>2011-03-03T23:44:43Z</time>
      </trkpt>
      <trkpt lat="47.456064010038972" lon="10.616387967020273">
        <ele>1115</ele>
        <time>2011-03-03T23:44:53Z</time>
      </trkpt>
      <trkpt lat="47.456152020022273" lon="10.616353014484048">
        <ele>1115</ele>
        <time>2011-03-03T23:44:57Z</time>
      </trkpt>
      <trkpt lat="47.456255033612251" lon="10.616220999509096">
        <ele>1124</ele>
        <time>2011-03-03T23:45:02Z</time>
      </trkpt>
      <trkpt lat="47.456527026370168" lon="10.61601203866303">
        <ele>1124</ele>
        <time>2011-03-03T23:45:14Z</time>
      </trkpt>
      <trkpt lat="47.456965986639261" lon="10.615854039788246">
        <ele>1124</ele>
        <time>2011-03-03T23:45:33Z</time>
      </trkpt>
      <trkpt lat="47.457322971895337" lon="10.614862041547894">
        <ele>1112</ele>
        <time>2011-03-03T23:46:03Z</time>
      </trkpt>
      <trkpt lat="47.45737100020051" lon="10.61470303684473">
        <ele>1112</ele>
        <time>2011-03-03T23:46:08Z</time>
      </trkpt>
      <trkpt lat="47.45747996494174" lon="10.614600023254752">
        <ele>1112</ele>
        <time>2011-03-03T23:46:13Z</time>
      </trkpt>
      <trkpt lat="47.457556994631886" lon="10.614651991054416">
        <ele>1112</ele>
        <time>2011-03-03T23:46:16Z</time>
      </trkpt>
      <trkpt lat="47.458105003461242" lon="10.614299029111862">
        <ele>1116</ele>
        <time>2011-03-03T23:46:40Z</time>
      </trkpt>
      <trkpt lat="47.458330979570746" lon="10.6137790158391">
        <ele>1116</ele>
        <time>2011-03-03T23:46:57Z</time>
      </trkpt>
      <trkpt lat="47.458495013415813" lon="10.613213991746306">
        <ele>1136</ele>
        <time>2011-03-03T23:47:14Z</time>
      </trkpt>
      <trkpt lat="47.45861797593534" lon="10.612615020945668">
        <ele>1158</ele>
        <time>2011-03-03T23:47:31Z</time>
      </trkpt>
      <trkpt lat="47.458900026977062" lon="10.611679013818502">
        <ele>1115</ele>
        <time>2011-03-03T23:47:58Z</time>
      </trkpt>
      <trkpt lat="47.459022989496589" lon="10.611077025532722">
        <ele>1128</ele>
        <time>2011-03-03T23:48:15Z</time>
      </trkpt>
      <trkpt lat="47.458944031968713" lon="10.61023497954011">
        <ele>1128</ele>
        <time>2011-03-03T23:48:38Z</time>
      </trkpt>
      <trkpt lat="47.458810005337" lon="10.609616981819272">
        <ele>1128</ele>
        <time>2011-03-03T23:48:56Z</time>
      </trkpt>
      <trkpt lat="47.458732975646853" lon="10.60926896519959">
        <ele>1182</ele>
        <time>2011-03-03T23:49:06Z</time>
      </trkpt>
      <trkpt lat="47.458587968721986" lon="10.608618026599288">
        <ele>1169</ele>
        <time>2011-03-03T23:49:24Z</time>
      </trkpt>
      <trkpt lat="47.458612024784088" lon="10.608063982799649">
        <ele>1169</ele>
        <time>2011-03-03T23:49:39Z</time>
      </trkpt>
      <trkpt lat="47.458440028131008" lon="10.607706997543573">
        <ele>1155</ele>
        <time>2011-03-03T23:49:51Z</time>
      </trkpt>
      <trkpt lat="47.458534995093942" lon="10.607186984270811">
        <ele>1155</ele>
        <time>2011-03-03T23:50:06Z</time>
      </trkpt>
      <trkpt lat="47.458408009260893" lon="10.606808960437775">
        <ele>1141</ele>
        <time>2011-03-03T23:50:17Z</time>
      </trkpt>
      <trkpt lat="47.458112966269255" lon="10.606495980173349">
        <ele>1141</ele>
        <time>2011-03-03T23:50:32Z</time>
      </trkpt>
      <trkpt lat="47.457909034565091" lon="10.606113011017442">
        <ele>1187</ele>
        <time>2011-03-03T23:50:45Z</time>
      </trkpt>
      <trkpt lat="47.457853965461254" lon="10.606056014075875">
        <ele>1187</ele>
        <time>2011-03-03T23:50:48Z</time>
      </trkpt>
      <trkpt lat="47.457785988226533" lon="10.60596096329391">
        <ele>1187</ele>
        <time>2011-03-03T23:50:51Z</time>
      </trkpt>
      <trkpt lat="47.45775799266994" lon="10.605758037418127">
        <ele>1187</ele>
        <time>2011-03-03T23:50:57Z</time>
      </trkpt>
      <trkpt lat="47.457749024033546" lon="10.605476992204785">
        <ele>1187</ele>
        <time>2011-03-03T23:51:05Z</time>
      </trkpt>
      <trkpt lat="47.457880033180118" lon="10.605009030550718">
        <ele>1182</ele>
        <time>2011-03-03T23:51:18Z</time>
      </trkpt>
      <trkpt lat="47.457836028188467" lon="10.60436898842454">
        <ele>1179</ele>
        <time>2011-03-03T23:51:36Z</time>
      </trkpt>
      <trkpt lat="47.457718010991812" lon="10.603741016238928">
        <ele>1176</ele>
        <time>2011-03-03T23:51:53Z</time>
      </trkpt>
      <trkpt lat="47.457627989351749" lon="10.6029739882797">
        <ele>1176</ele>
        <time>2011-03-03T23:52:14Z</time>
      </trkpt>
      <trkpt lat="47.45764902792871" lon="10.602358002215624">
        <ele>1180</ele>
        <time>2011-03-03T23:52:31Z</time>
      </trkpt>
      <trkpt lat="47.457723962143064" lon="10.601859027519822">
        <ele>1183</ele>
        <time>2011-03-03T23:52:45Z</time>
      </trkpt>
      <trkpt lat="47.457553977146745" lon="10.601266007870436">
        <ele>1183</ele>
        <time>2011-03-03T23:53:02Z</time>
      </trkpt>
      <trkpt lat="47.457492034882307" lon="10.600826041772962">
        <ele>1175</ele>
        <time>2011-03-03T23:53:15Z</time>
      </trkpt>
      <trkpt lat="47.457203026860952" lon="10.600207038223743">
        <ele>1153</ele>
        <time>2011-03-03T23:53:35Z</time>
      </trkpt>
      <trkpt lat="47.456918964162469" lon="10.599724994972348">
        <ele>1191</ele>
        <time>2011-03-03T23:53:52Z</time>
      </trkpt>
      <trkpt lat="47.456889040768147" lon="10.599372033029795">
        <ele>1177</ele>
        <time>2011-03-03T23:54:02Z</time>
      </trkpt>
      <trkpt lat="47.456822991371155" lon="10.599192995578051">
        <ele>1177</ele>
        <time>2011-03-03T23:54:07Z</time>
      </trkpt>
      <trkpt lat="47.456534989178181" lon="10.598872974514961">
        <ele>1177</ele>
        <time>2011-03-03T23:54:22Z</time>
      </trkpt>
      <trkpt lat="47.456347988918424" lon="10.598453041166067">
        <ele>1166</ele>
        <time>2011-03-03T23:54:35Z</time>
      </trkpt>
      <trkpt lat="47.456183033064008" lon="10.598147017881274">
        <ele>1212</ele>
        <time>2011-03-03T23:54:46Z</time>
      </trkpt>
      <trkpt lat="47.456043977290392" lon="10.597792966291308">
        <ele>1202</ele>
        <time>2011-03-03T23:54:57Z</time>
      </trkpt>
      <trkpt lat="47.455894025042653" lon="10.597113026306033">
        <ele>1202</ele>
        <time>2011-03-03T23:55:16Z</time>
      </trkpt>
      <trkpt lat="47.455767039209604" lon="10.59669803828001">
        <ele>1190</ele>
        <time>2011-03-03T23:55:29Z</time>
      </trkpt>
      <trkpt lat="47.455762010067701" lon="10.59626704081893">
        <ele>1190</ele>
        <time>2011-03-03T23:55:40Z</time>
      </trkpt>
      <trkpt lat="47.455756980925798" lon="10.595787009224296">
        <ele>1192</ele>
        <time>2011-03-03T23:55:53Z</time>
      </trkpt>
      <trkpt lat="47.455566041171551" lon="10.595133975148201">
        <ele>1187</ele>
        <time>2011-03-03T23:56:13Z</time>
      </trkpt>
      <trkpt lat="47.455477025359869" lon="10.594565011560917">
        <ele>1182</ele>
        <time>2011-03-03T23:56:28Z</time>
      </trkpt>
      <trkpt lat="47.455506026744843" lon="10.594146000221372">
        <ele>1182</ele>
        <time>2011-03-03T23:56:40Z</time>
      </trkpt>
      <trkpt lat="47.455566041171551" lon="10.594060001894832">
        <ele>1182</ele>
        <time>2011-03-03T23:56:43Z</time>
      </trkpt>
      <trkpt lat="47.455568974837661" lon="10.593888005241752">
        <ele>1182</ele>
        <time>2011-03-03T23:56:48Z</time>
      </trkpt>
      <trkpt lat="47.45545799843967" lon="10.5937559902668">
        <ele>1182</ele>
        <time>2011-03-03T23:56:54Z</time>
      </trkpt>
      <trkpt lat="47.455419022589922" lon="10.593591034412384">
        <ele>1185</ele>
        <time>2011-03-03T23:56:58Z</time>
      </trkpt>
      <trkpt lat="47.455425979569554" lon="10.593151990324259">
        <ele>1185</ele>
        <time>2011-03-03T23:57:10Z</time>
      </trkpt>
      <trkpt lat="47.455433020368218" lon="10.592647986486554">
        <ele>1183</ele>
        <time>2011-03-03T23:57:24Z</time>
      </trkpt>
      <trkpt lat="47.455340987071395" lon="10.591780040413141">
        <ele>1222</ele>
        <time>2011-03-03T23:57:48Z</time>
      </trkpt>
      <trkpt lat="47.455245014280081" lon="10.591107979416847">
        <ele>1220</ele>
        <time>2011-03-03T23:58:06Z</time>
      </trkpt>
      <trkpt lat="47.455173013731837" lon="10.590143976733088">
        <ele>1220</ele>
        <time>2011-03-03T23:58:32Z</time>
      </trkpt>
      <trkpt lat="47.455081986263394" lon="10.589333027601242">
        <ele>1221</ele>
        <time>2011-03-03T23:58:55Z</time>
      </trkpt>
      <trkpt lat="47.455230010673404" lon="10.588888032361865">
        <ele>1221</ele>
        <time>2011-03-03T23:59:08Z</time>
      </trkpt>
      <trkpt lat="47.455218024551868" lon="10.588805973529816">
        <ele>1221</ele>
        <time>2011-03-03T23:59:10Z</time>
      </trkpt>
      <trkpt lat="47.455068994313478" lon="10.58831999078393">
        <ele>1218</ele>
        <time>2011-03-03T23:59:25Z</time>
      </trkpt>
      <trkpt lat="47.455014009028673" lon="10.587650025263429">
        <ele>1222</ele>
        <time>2011-03-03T23:59:43Z</time>
      </trkpt>
      <trkpt lat="47.455122973769903" lon="10.58746000751853">
        <ele>1222</ele>
        <time>2011-03-03T23:59:50Z</time>
      </trkpt>
      <trkpt lat="47.455164967104793" lon="10.586975030601025">
        <ele>1220</ele>
        <time>2011-03-04T00:00:03Z</time>
      </trkpt>
      <trkpt lat="47.455039992928505" lon="10.586542021483183">
        <ele>1220</ele>
        <time>2011-03-04T00:00:16Z</time>
      </trkpt>
      <trkpt lat="47.455099001526833" lon="10.585962999612093">
        <ele>1223</ele>
        <time>2011-03-04T00:00:32Z</time>
      </trkpt>
      <trkpt lat="47.455119034275413" lon="10.585424965247512">
        <ele>1223</ele>
        <time>2011-03-04T00:00:46Z</time>
      </trkpt>
      <trkpt lat="47.455145018175244" lon="10.584737984463573">
        <ele>1225</ele>
        <time>2011-03-04T00:01:05Z</time>
      </trkpt>
      <trkpt lat="47.455221964046359" lon="10.584255019202828">
        <ele>1230</ele>
        <time>2011-03-04T00:01:18Z</time>
      </trkpt>
      <trkpt lat="47.455203020945191" lon="10.583596033975482">
        <ele>1237</ele>
        <time>2011-03-04T00:01:36Z</time>
      </trkpt>
      <trkpt lat="47.45517997071147" lon="10.582977030426264">
        <ele>1237</ele>
        <time>2011-03-04T00:01:53Z</time>
      </trkpt>
      <trkpt lat="47.455149963498116" lon="10.582887008786201">
        <ele>1246</ele>
        <time>2011-03-04T00:01:56Z</time>
      </trkpt>
      <trkpt lat="47.455336963757873" lon="10.582386022433639">
        <ele>1246</ele>
        <time>2011-03-04T00:02:11Z</time>
      </trkpt>
      <trkpt lat="47.455399995669723" lon="10.582033982500434">
        <ele>1244</ele>
        <time>2011-03-04T00:02:21Z</time>
      </trkpt>
      <trkpt lat="47.455109981819987" lon="10.581613965332508">
        <ele>1244</ele>
        <time>2011-03-04T00:02:37Z</time>
      </trkpt>
      <trkpt lat="47.455062037333846" lon="10.581120019778609">
        <ele>1241</ele>
        <time>2011-03-04T00:02:51Z</time>
      </trkpt>
      <trkpt lat="47.454995987936854" lon="10.580577040091157">
        <ele>1241</ele>
        <time>2011-03-04T00:03:06Z</time>
      </trkpt>
      <trkpt lat="47.45492197573185" lon="10.580010004341602">
        <ele>1228</ele>
        <time>2011-03-04T00:03:21Z</time>
      </trkpt>
      <trkpt lat="47.454734975472093" lon="10.579850999638438">
        <ele>1228</ele>
        <time>2011-03-04T00:03:30Z</time>
      </trkpt>
      <trkpt lat="47.454573959112167" lon="10.579653019085526">
        <ele>1277</ele>
        <time>2011-03-04T00:03:38Z</time>
      </trkpt>
      <trkpt lat="47.454901020973921" lon="10.579386977478862">
        <ele>1247</ele>
        <time>2011-03-04T00:03:53Z</time>
      </trkpt>
      <trkpt lat="47.455057008191943" lon="10.579122025519609">
        <ele>1247</ele>
        <time>2011-03-04T00:04:03Z</time>
      </trkpt>
      <trkpt lat="47.455126997083426" lon="10.57905999943614">
        <ele>1247</ele>
        <time>2011-03-04T00:04:06Z</time>
      </trkpt>
      <trkpt lat="47.455206960439682" lon="10.578610980883241">
        <ele>1257</ele>
        <time>2011-03-04T00:04:19Z</time>
      </trkpt>
      <trkpt lat="47.455184999853373" lon="10.578121980652213">
        <ele>1257</ele>
        <time>2011-03-04T00:04:32Z</time>
      </trkpt>
      <trkpt lat="47.455121967941523" lon="10.577630968764424">
        <ele>1255</ele>
        <time>2011-03-04T00:04:45Z</time>
      </trkpt>
      <trkpt lat="47.455030018463731" lon="10.577149009332061">
        <ele>1255</ele>
        <time>2011-03-04T00:04:59Z</time>
      </trkpt>
      <trkpt lat="47.454972015693784" lon="10.576458005234599">
        <ele>1246</ele>
        <time>2011-03-04T00:05:18Z</time>
      </trkpt>
      <trkpt lat="47.454774035140872" lon="10.57581502944231">
        <ele>1230</ele>
        <time>2011-03-04T00:05:37Z</time>
      </trkpt>
      <trkpt lat="47.454686025157571" lon="10.575549993664026">
        <ele>1230</ele>
        <time>2011-03-04T00:05:45Z</time>
      </trkpt>
      <trkpt lat="47.454612012952566" lon="10.575583018362522">
        <ele>1230</ele>
        <time>2011-03-04T00:05:48Z</time>
      </trkpt>
      <trkpt lat="47.45459902100265" lon="10.575576983392239">
        <ele>1230</ele>
        <time>2011-03-04T00:05:49Z</time>
      </trkpt>
      <trkpt lat="47.454574964940548" lon="10.575575977563858">
        <ele>1277</ele>
        <time>2011-03-04T00:05:50Z</time>
      </trkpt>
      <trkpt lat="47.454458959400654" lon="10.575500037521124">
        <ele>1277</ele>
        <time>2011-03-04T00:05:55Z</time>
      </trkpt>
      <trkpt lat="47.454348988831043" lon="10.5752560403198">
        <ele>1265</ele>
        <time>2011-03-04T00:06:03Z</time>
      </trkpt>
      <trkpt lat="47.454290986061096" lon="10.574998967349529">
        <ele>1265</ele>
        <time>2011-03-04T00:06:10Z</time>
      </trkpt>
      <trkpt lat="47.454202976077795" lon="10.574373006820679">
        <ele>1251</ele>
        <time>2011-03-04T00:06:27Z</time>
      </trkpt>
      <trkpt lat="47.454182021319866" lon="10.573830027133226">
        <ele>1251</ele>
        <time>2011-03-04T00:06:42Z</time>
      </trkpt>
      <trkpt lat="47.454136004671454" lon="10.573673034086823">
        <ele>1239</ele>
        <time>2011-03-04T00:06:47Z</time>
      </trkpt>
      <trkpt lat="47.454043971374631" lon="10.573539007455111">
        <ele>1239</ele>
        <time>2011-03-04T00:06:52Z</time>
      </trkpt>
      <trkpt lat="47.45399996638298" lon="10.572899971157312">
        <ele>1228</ele>
        <time>2011-03-04T00:07:09Z</time>
      </trkpt>
      <trkpt lat="47.453935006633401" lon="10.572710959240794">
        <ele>1228</ele>
        <time>2011-03-04T00:07:15Z</time>
      </trkpt>
      <trkpt lat="47.453877003863454" lon="10.572006041184068">
        <ele>1223</ele>
        <time>2011-03-04T00:07:34Z</time>
      </trkpt>
      <trkpt lat="47.453845990821719" lon="10.571799008175731">
        <ele>1223</ele>
        <time>2011-03-04T00:07:40Z</time>
      </trkpt>
      <trkpt lat="47.453859988600016" lon="10.571652995422482">
        <ele>1223</ele>
        <time>2011-03-04T00:07:44Z</time>
      </trkpt>
      <trkpt lat="47.453887984156609" lon="10.571417966857553">
        <ele>1223</ele>
        <time>2011-03-04T00:07:50Z</time>
      </trkpt>
      <trkpt lat="47.453874992206693" lon="10.571100041270256">
        <ele>1211</ele>
        <time>2011-03-04T00:07:59Z</time>
      </trkpt>
      <trkpt lat="47.453894019126892" lon="10.571008007973433">
        <ele>1211</ele>
        <time>2011-03-04T00:08:01Z</time>
      </trkpt>
      <trkpt lat="47.453920003026724" lon="10.57096098549664">
        <ele>1211</ele>
        <time>2011-03-04T00:08:03Z</time>
      </trkpt>
      <trkpt lat="47.453902987763286" lon="10.570967020466924">
        <ele>1211</ele>
        <time>2011-03-04T00:08:04Z</time>
      </trkpt>
      <trkpt lat="47.453896030783653" lon="10.571215962991118">
        <ele>1211</ele>
        <time>2011-03-04T00:08:11Z</time>
      </trkpt>
      <trkpt lat="47.453887984156609" lon="10.571157038211823">
        <ele>1211</ele>
        <time>2011-03-04T00:08:12Z</time>
      </trkpt>
      <trkpt lat="47.453942969441414" lon="10.570936007425189">
        <ele>1211</ele>
        <time>2011-03-04T00:08:19Z</time>
      </trkpt>
      <trkpt lat="47.453968031331897" lon="10.570945981889963">
        <ele>1211</ele>
        <time>2011-03-04T00:08:20Z</time>
      </trkpt>
      <trkpt lat="47.453974988311529" lon="10.570930978283286">
        <ele>1211</ele>
        <time>2011-03-04T00:08:20Z</time>
      </trkpt>
      <trkpt lat="47.453969959169626" lon="10.570935001596808">
        <ele>1211</ele>
        <time>2011-03-04T00:08:20Z</time>
      </trkpt>
      <trkpt lat="47.45386996306479" lon="10.571233984082937">
        <ele>1211</ele>
        <time>2011-03-04T00:08:29Z</time>
      </trkpt>
      <trkpt lat="47.453837022185326" lon="10.571128958836198">
        <ele>1211</ele>
        <time>2011-03-04T00:08:33Z</time>
      </trkpt>
      <trkpt lat="47.453798968344927" lon="10.571063999086618">
        <ele>1211</ele>
        <time>2011-03-04T00:08:35Z</time>
      </trkpt>
      <trkpt lat="47.453730991110206" lon="10.570982024073601">
        <ele>1271</ele>
        <time>2011-03-04T00:08:38Z</time>
      </trkpt>
      <trkpt lat="47.453677011653781" lon="10.570941958576441">
        <ele>1271</ele>
        <time>2011-03-04T00:08:41Z</time>
      </trkpt>
      <trkpt lat="47.453593024984002" lon="10.570864006876945">
        <ele>1271</ele>
        <time>2011-03-04T00:08:45Z</time>
      </trkpt>
      <trkpt lat="47.453571986407042" lon="10.570913963019848">
        <ele>1271</ele>
        <time>2011-03-04T00:08:46Z</time>
      </trkpt>
      <trkpt lat="47.453593024984002" lon="10.571048995479941">
        <ele>1271</ele>
        <time>2011-03-04T00:08:50Z</time>
      </trkpt>
      <trkpt lat="47.453578021377325" lon="10.571073973551393">
        <ele>1271</ele>
        <time>2011-03-04T00:08:51Z</time>
      </trkpt>
      <trkpt lat="47.453542985022068" lon="10.57111001573503">
        <ele>1271</ele>
        <time>2011-03-04T00:08:53Z</time>
      </trkpt>
      <trkpt lat="47.453510966151953" lon="10.571234989911318">
        <ele>1271</ele>
        <time>2011-03-04T00:08:56Z</time>
      </trkpt>
      <trkpt lat="47.453498980030417" lon="10.571429030969739">
        <ele>1286</ele>
        <time>2011-03-04T00:09:02Z</time>
      </trkpt>
      <trkpt lat="47.453476013615727" lon="10.571584012359381">
        <ele>1286</ele>
        <time>2011-03-04T00:09:06Z</time>
      </trkpt>
      <trkpt lat="47.453472996130586" lon="10.57160496711731">
        <ele>1286</ele>
        <time>2011-03-04T00:09:06Z</time>
      </trkpt>
      <trkpt lat="47.453495962545276" lon="10.571799008175731">
        <ele>1286</ele>
        <time>2011-03-04T00:09:12Z</time>
      </trkpt>
      <trkpt lat="47.453454975038767" lon="10.571938985958695">
        <ele>1286</ele>
        <time>2011-03-04T00:09:16Z</time>
      </trkpt>
      <trkpt lat="47.453464027494192" lon="10.572016015648842">
        <ele>1286</ele>
        <time>2011-03-04T00:09:18Z</time>
      </trkpt>
      <trkpt lat="47.453464027494192" lon="10.572146018967032">
        <ele>1300</ele>
        <time>2011-03-04T00:09:22Z</time>
      </trkpt>
      <trkpt lat="47.453451035544276" lon="10.57220502756536">
        <ele>1300</ele>
        <time>2011-03-04T00:09:23Z</time>
      </trkpt>
      <trkpt lat="47.453425973653793" lon="10.572308041155338">
        <ele>1300</ele>
        <time>2011-03-04T00:09:26Z</time>
      </trkpt>
      <trkpt lat="47.453434020280838" lon="10.572374006733298">
        <ele>1300</ele>
        <time>2011-03-04T00:09:28Z</time>
      </trkpt>
      <trkpt lat="47.453442988917232" lon="10.57248598895967">
        <ele>1300</ele>
        <time>2011-03-04T00:09:31Z</time>
      </trkpt>
      <trkpt lat="47.453407030552626" lon="10.572590008378029">
        <ele>1300</ele>
        <time>2011-03-04T00:09:34Z</time>
      </trkpt>
      <trkpt lat="47.453391021117568" lon="10.572794023901224">
        <ele>1300</ele>
        <time>2011-03-04T00:09:40Z</time>
      </trkpt>
      <trkpt lat="47.453378029167652" lon="10.572878010571003">
        <ele>1300</ele>
        <time>2011-03-04T00:09:42Z</time>
      </trkpt>
      <trkpt lat="47.453373000025749" lon="10.572883961722255">
        <ele>1300</ele>
        <time>2011-03-04T00:09:42Z</time>
      </trkpt>
      <trkpt lat="47.453369982540607" lon="10.573086971417069">
        <ele>1308</ele>
        <time>2011-03-04T00:09:48Z</time>
      </trkpt>
      <trkpt lat="47.453363025560975" lon="10.573332980275154">
        <ele>1308</ele>
        <time>2011-03-04T00:09:55Z</time>
      </trkpt>
      <trkpt lat="47.453369982540607" lon="10.573459966108203">
        <ele>1308</ele>
        <time>2011-03-04T00:09:58Z</time>
      </trkpt>
      <trkpt lat="47.45341801084578" lon="10.573544036597013">
        <ele>1308</ele>
        <time>2011-03-04T00:10:01Z</time>
      </trkpt>
      <trkpt lat="47.453420022502542" lon="10.573639003559947">
        <ele>1308</ele>
        <time>2011-03-04T00:10:04Z</time>
      </trkpt>
      <trkpt lat="47.453470984473825" lon="10.573971010744572">
        <ele>1316</ele>
        <time>2011-03-04T00:10:13Z</time>
      </trkpt>
      <trkpt lat="47.453507026657462" lon="10.574288014322519">
        <ele>1316</ele>
        <time>2011-03-04T00:10:21Z</time>
      </trkpt>
      <trkpt lat="47.453512977808714" lon="10.574303017929196">
        <ele>1316</ele>
        <time>2011-03-04T00:10:22Z</time>
      </trkpt>
      <trkpt lat="47.45352697558701" lon="10.574451964348555">
        <ele>1316</ele>
        <time>2011-03-04T00:10:26Z</time>
      </trkpt>
      <trkpt lat="47.453457992523909" lon="10.574787994846702">
        <ele>1320</ele>
        <time>2011-03-04T00:10:35Z</time>
      </trkpt>
      <trkpt lat="47.453494034707546" lon="10.574988992884755">
        <ele>1320</ele>
        <time>2011-03-04T00:10:41Z</time>
      </trkpt>
      <trkpt lat="47.453538039699197" lon="10.575194014236331">
        <ele>1320</ele>
        <time>2011-03-04T00:10:47Z</time>
      </trkpt>
      <trkpt lat="47.453565029427409" lon="10.575553011149168">
        <ele>1325</ele>
        <time>2011-03-04T00:10:57Z</time>
      </trkpt>
      <trkpt lat="47.453550025820732" lon="10.575581006705761">
        <ele>1325</ele>
        <time>2011-03-04T00:10:58Z</time>
      </trkpt>
      <trkpt lat="47.453549019992352" lon="10.575630040839314">
        <ele>1325</ele>
        <time>2011-03-04T00:10:59Z</time>
      </trkpt>
      <trkpt lat="47.453555976971984" lon="10.575660970062017">
        <ele>1325</ele>
        <time>2011-03-04T00:11:00Z</time>
      </trkpt>
      <trkpt lat="47.453549019992352" lon="10.575660970062017">
        <ele>1325</ele>
        <time>2011-03-04T00:11:00Z</time>
      </trkpt>
      <trkpt lat="47.453532004728913" lon="10.575658036395907">
        <ele>1325</ele>
        <time>2011-03-04T00:11:01Z</time>
      </trkpt>
      <trkpt lat="47.453538039699197" lon="10.575717967003584">
        <ele>1325</ele>
        <time>2011-03-04T00:11:03Z</time>
      </trkpt>
      <trkpt lat="47.45354600250721" lon="10.576056009158492">
        <ele>1325</ele>
        <time>2011-03-04T00:11:12Z</time>
      </trkpt>
      <trkpt lat="47.453550025820732" lon="10.576154999434948">
        <ele>1325</ele>
        <time>2011-03-04T00:11:14Z</time>
      </trkpt>
      <trkpt lat="47.453542985022068" lon="10.576423974707723">
        <ele>1330</ele>
        <time>2011-03-04T00:11:22Z</time>
      </trkpt>
      <trkpt lat="47.453543990850449" lon="10.576639976352453">
        <ele>1330</ele>
        <time>2011-03-04T00:11:27Z</time>
      </trkpt>
      <trkpt lat="47.453518006950617" lon="10.576685993000865">
        <ele>1330</ele>
        <time>2011-03-04T00:11:29Z</time>
      </trkpt>
      <trkpt lat="47.453436031937599" lon="10.576970977708697">
        <ele>1330</ele>
        <time>2011-03-04T00:11:37Z</time>
      </trkpt>
      <trkpt lat="47.453428991138935" lon="10.577168958261609">
        <ele>1332</ele>
        <time>2011-03-04T00:11:43Z</time>
      </trkpt>
      <trkpt lat="47.453406024724245" lon="10.577562991529703">
        <ele>1332</ele>
        <time>2011-03-04T00:11:54Z</time>
      </trkpt>
      <trkpt lat="47.453403007239103" lon="10.577822998166084">
        <ele>1332</ele>
        <time>2011-03-04T00:12:01Z</time>
      </trkpt>
      <trkpt lat="47.453431002795696" lon="10.578073030337691">
        <ele>1330</ele>
        <time>2011-03-04T00:12:07Z</time>
      </trkpt>
      <trkpt lat="47.453258000314236" lon="10.578267993405461">
        <ele>1330</ele>
        <time>2011-03-04T00:12:16Z</time>
      </trkpt>
      <trkpt lat="47.453121040016413" lon="10.578507967293262">
        <ele>1330</ele>
        <time>2011-03-04T00:12:25Z</time>
      </trkpt>
      <trkpt lat="47.45316001586616" lon="10.578563958406448">
        <ele>1330</ele>
        <time>2011-03-04T00:12:27Z</time>
      </trkpt>
      <trkpt lat="47.453163033351302" lon="10.578589020296931">
        <ele>1330</ele>
        <time>2011-03-04T00:12:28Z</time>
      </trkpt>
      <trkpt lat="47.453166972845793" lon="10.578746013343334">
        <ele>1330</ele>
        <time>2011-03-04T00:12:32Z</time>
      </trkpt>
      <trkpt lat="47.453136965632439" lon="10.578956985846162">
        <ele>1327</ele>
        <time>2011-03-04T00:12:38Z</time>
      </trkpt>
      <trkpt lat="47.453087009489536" lon="10.578998979181051">
        <ele>1327</ele>
        <time>2011-03-04T00:12:40Z</time>
      </trkpt>
      <trkpt lat="47.452915012836456" lon="10.579217998310924">
        <ele>1359</ele>
        <time>2011-03-04T00:12:49Z</time>
      </trkpt>
      <trkpt lat="47.452952982857823" lon="10.579346995800734">
        <ele>1327</ele>
        <time>2011-03-04T00:12:53Z</time>
      </trkpt>
      <trkpt lat="47.452886011451483" lon="10.579546988010406">
        <ele>1359</ele>
        <time>2011-03-04T00:12:59Z</time>
      </trkpt>
      <trkpt lat="47.452847035601735" lon="10.579585963860154">
        <ele>1351</ele>
        <time>2011-03-04T00:13:01Z</time>
      </trkpt>
      <trkpt lat="47.452691970393062" lon="10.579855022951961">
        <ele>1351</ele>
        <time>2011-03-04T00:13:10Z</time>
      </trkpt>
      <trkpt lat="47.452744022011757" lon="10.579868014901876">
        <ele>1351</ele>
        <time>2011-03-04T00:13:12Z</time>
      </trkpt>
      <trkpt lat="47.45272901840508" lon="10.580013021826744">
        <ele>1351</ele>
        <time>2011-03-04T00:13:16Z</time>
      </trkpt>
      <trkpt lat="47.452718038111925" lon="10.580031964927912">
        <ele>1351</ele>
        <time>2011-03-04T00:13:17Z</time>
      </trkpt>
      <trkpt lat="47.452626004815102" lon="10.580096002668142">
        <ele>1351</ele>
        <time>2011-03-04T00:13:21Z</time>
      </trkpt>
      <trkpt lat="47.452657017856836" lon="10.580232962965965">
        <ele>1351</ele>
        <time>2011-03-04T00:13:25Z</time>
      </trkpt>
      <trkpt lat="47.452552998438478" lon="10.580192981287837">
        <ele>1351</ele>
        <time>2011-03-04T00:13:29Z</time>
      </trkpt>
      <trkpt lat="47.452392987906933" lon="10.580162974074483">
        <ele>1351</ele>
        <time>2011-03-04T00:13:36Z</time>
      </trkpt>
      <trkpt lat="47.452468005940318" lon="10.580121986567974">
        <ele>1351</ele>
        <time>2011-03-04T00:13:39Z</time>
      </trkpt>
      <trkpt lat="47.45242903009057" lon="10.58006901293993">
        <ele>1351</ele>
        <time>2011-03-04T00:13:41Z</time>
      </trkpt>
      <trkpt lat="47.452465994283557" lon="10.580047974362969">
        <ele>1351</ele>
        <time>2011-03-04T00:13:43Z</time>
      </trkpt>
      <trkpt lat="47.452516034245491" lon="10.579939009621739">
        <ele>1351</ele>
        <time>2011-03-04T00:13:46Z</time>
      </trkpt>
      <trkpt lat="47.452513016760349" lon="10.579927023500204">
        <ele>1351</ele>
        <time>2011-03-04T00:13:47Z</time>
      </trkpt>
      <trkpt lat="47.452470017597079" lon="10.579958036541939">
        <ele>1351</ele>
        <time>2011-03-04T00:13:49Z</time>
      </trkpt>
      <trkpt lat="47.452210010960698" lon="10.579823004081845">
        <ele>1351</ele>
        <time>2011-03-04T00:14:00Z</time>
      </trkpt>
      <trkpt lat="47.45217296294868" lon="10.579731976613402">
        <ele>1351</ele>
        <time>2011-03-04T00:14:02Z</time>
      </trkpt>
      <trkpt lat="47.452157959342003" lon="10.579597027972341">
        <ele>1351</ele>
        <time>2011-03-04T00:14:06Z</time>
      </trkpt>
      <trkpt lat="47.452153014019132" lon="10.579367028549314">
        <ele>1359</ele>
        <time>2011-03-04T00:14:12Z</time>
      </trkpt>
      <trkpt lat="47.452044971287251" lon="10.579354036599398">
        <ele>1390</ele>
        <time>2011-03-04T00:14:17Z</time>
      </trkpt>
      <trkpt lat="47.452057963237166" lon="10.579278012737632">
        <ele>1390</ele>
        <time>2011-03-04T00:14:19Z</time>
      </trkpt>
      <trkpt lat="47.452068021520972" lon="10.579078020527959">
        <ele>1390</ele>
        <time>2011-03-04T00:14:24Z</time>
      </trkpt>
      <trkpt lat="47.45195503346622" lon="10.578878028318286">
        <ele>1390</ele>
        <time>2011-03-04T00:14:31Z</time>
      </trkpt>
      <trkpt lat="47.45187004096806" lon="10.578680969774723">
        <ele>1406</ele>
        <time>2011-03-04T00:14:38Z</time>
      </trkpt>
      <trkpt lat="47.451903987675905" lon="10.578430015593767">
        <ele>1406</ele>
        <time>2011-03-04T00:14:45Z</time>
      </trkpt>
      <trkpt lat="47.451882027089596" lon="10.578258018940687">
        <ele>1406</ele>
        <time>2011-03-04T00:14:49Z</time>
      </trkpt>
      <trkpt lat="47.451823018491268" lon="10.578204961493611">
        <ele>1406</ele>
        <time>2011-03-04T00:14:52Z</time>
      </trkpt>
      <trkpt lat="47.45182896964252" lon="10.577953001484275">
        <ele>1406</ele>
        <time>2011-03-04T00:14:59Z</time>
      </trkpt>
      <trkpt lat="47.451827963814139" lon="10.577933974564075">
        <ele>1406</ele>
        <time>2011-03-04T00:14:59Z</time>
      </trkpt>
      <trkpt lat="47.451816983520985" lon="10.57779198512435">
        <ele>1416</ele>
        <time>2011-03-04T00:15:03Z</time>
      </trkpt>
      <trkpt lat="47.451782030984759" lon="10.577701041474938">
        <ele>1416</ele>
        <time>2011-03-04T00:15:06Z</time>
      </trkpt>
      <trkpt lat="47.45178597047925" lon="10.577599033713341">
        <ele>1416</ele>
        <time>2011-03-04T00:15:09Z</time>
      </trkpt>
      <trkpt lat="47.451896024867892" lon="10.577278006821871">
        <ele>1416</ele>
        <time>2011-03-04T00:15:19Z</time>
      </trkpt>
      <trkpt lat="47.451844979077578" lon="10.577129982411861">
        <ele>1416</ele>
        <time>2011-03-04T00:15:23Z</time>
      </trkpt>
      <trkpt lat="47.451846990734339" lon="10.577026968821883">
        <ele>1423</ele>
        <time>2011-03-04T00:15:26Z</time>
      </trkpt>
      <trkpt lat="47.451986968517303" lon="10.576702002435923">
        <ele>1423</ele>
        <time>2011-03-04T00:15:36Z</time>
      </trkpt>
      <trkpt lat="47.451811032369733" lon="10.576596977189183">
        <ele>1423</ele>
        <time>2011-03-04T00:15:44Z</time>
      </trkpt>
      <trkpt lat="47.451800974085927" lon="10.576375024393201">
        <ele>1423</ele>
        <time>2011-03-04T00:15:50Z</time>
      </trkpt>
      <trkpt lat="47.45174003764987" lon="10.576195986941457">
        <ele>1424</ele>
        <time>2011-03-04T00:15:55Z</time>
      </trkpt>
      <trkpt lat="47.451693015173078" lon="10.576015021651983">
        <ele>1424</ele>
        <time>2011-03-04T00:16:01Z</time>
      </trkpt>
      <trkpt lat="47.451631994917989" lon="10.575877977535129">
        <ele>1424</ele>
        <time>2011-03-04T00:16:05Z</time>
      </trkpt>
      <trkpt lat="47.451601987704635" lon="10.575558040291071">
        <ele>1424</ele>
        <time>2011-03-04T00:16:14Z</time>
      </trkpt>
      <trkpt lat="47.451619002968073" lon="10.575267020612955">
        <ele>1427</ele>
        <time>2011-03-04T00:16:22Z</time>
      </trkpt>
      <trkpt lat="47.451549014076591" lon="10.575114972889423">
        <ele>1427</ele>
        <time>2011-03-04T00:16:27Z</time>
      </trkpt>
      <trkpt lat="47.451640963554382" lon="10.574951022863388">
        <ele>1427</ele>
        <time>2011-03-04T00:16:32Z</time>
      </trkpt>
      <trkpt lat="47.451581032946706" lon="10.574714988470078">
        <ele>1427</ele>
        <time>2011-03-04T00:16:39Z</time>
      </trkpt>
      <trkpt lat="47.451588995754719" lon="10.574273010715842">
        <ele>1432</ele>
        <time>2011-03-04T00:16:51Z</time>
      </trkpt>
      <trkpt lat="47.451603999361396" lon="10.574030019342899">
        <ele>1432</ele>
        <time>2011-03-04T00:16:58Z</time>
      </trkpt>
      <trkpt lat="47.451594024896622" lon="10.573936980217695">
        <ele>1432</ele>
        <time>2011-03-04T00:17:00Z</time>
      </trkpt>
      <trkpt lat="47.451514983549714" lon="10.573659958317876">
        <ele>1434</ele>
        <time>2011-03-04T00:17:09Z</time>
      </trkpt>
      <trkpt lat="47.45150500908494" lon="10.573498019948602">
        <ele>1434</ele>
        <time>2011-03-04T00:17:13Z</time>
      </trkpt>
      <trkpt lat="47.451443988829851" lon="10.573378996923566">
        <ele>1434</ele>
        <time>2011-03-04T00:17:17Z</time>
      </trkpt>
      <trkpt lat="47.451422028243542" lon="10.573326023295522">
        <ele>1434</ele>
        <time>2011-03-04T00:17:19Z</time>
      </trkpt>
      <trkpt lat="47.451382968574762" lon="10.573156038299203">
        <ele>1434</ele>
        <time>2011-03-04T00:17:24Z</time>
      </trkpt>
      <trkpt lat="47.451309962198138" lon="10.572981024160981">
        <ele>1434</ele>
        <time>2011-03-04T00:17:29Z</time>
      </trkpt>
      <trkpt lat="47.451274003833532" lon="10.572773991152644">
        <ele>1438</ele>
        <time>2011-03-04T00:17:35Z</time>
      </trkpt>
      <trkpt lat="47.45122698135674" lon="10.572603000327945">
        <ele>1500</ele>
        <time>2011-03-04T00:17:40Z</time>
      </trkpt>
      <trkpt lat="47.451263023540378" lon="10.572360008955002">
        <ele>1438</ele>
        <time>2011-03-04T00:17:47Z</time>
      </trkpt>
      <trkpt lat="47.451265035197139" lon="10.572307035326958">
        <ele>1438</ele>
        <time>2011-03-04T00:17:48Z</time>
      </trkpt>
      <trkpt lat="47.451227987185121" lon="10.572221037000418">
        <ele>1500</ele>
        <time>2011-03-04T00:17:51Z</time>
      </trkpt>
      <trkpt lat="47.451168978586793" lon="10.572163034230471">
        <ele>1500</ele>
        <time>2011-03-04T00:17:54Z</time>
      </trkpt>
      <trkpt lat="47.451121034100652" lon="10.57207896374166">
        <ele>1504</ele>
        <time>2011-03-04T00:17:57Z</time>
      </trkpt>
      <trkpt lat="47.451112987473607" lon="10.571764977648854">
        <ele>1504</ele>
        <time>2011-03-04T00:18:05Z</time>
      </trkpt>
      <trkpt lat="47.451036963611841" lon="10.571597004309297">
        <ele>1504</ele>
        <time>2011-03-04T00:18:11Z</time>
      </trkpt>
      <trkpt lat="47.451025983318686" lon="10.57154000736773">
        <ele>1504</ele>
        <time>2011-03-04T00:18:12Z</time>
      </trkpt>
      <trkpt lat="47.450979966670275" lon="10.571456020697951">
        <ele>1504</ele>
        <time>2011-03-04T00:18:15Z</time>
      </trkpt>
      <trkpt lat="47.450926993042231" lon="10.571330040693283">
        <ele>1504</ele>
        <time>2011-03-04T00:18:19Z</time>
      </trkpt>
      <trkpt lat="47.450911989435554" lon="10.571302967146039">
        <ele>1504</ele>
        <time>2011-03-04T00:18:20Z</time>
      </trkpt>
      <trkpt lat="47.450844012200832" lon="10.571468006819487">
        <ele>1504</ele>
        <time>2011-03-04T00:18:25Z</time>
      </trkpt>
      <trkpt lat="47.450830014422536" lon="10.57151997461915">
        <ele>1504</ele>
        <time>2011-03-04T00:18:27Z</time>
      </trkpt>
      <trkpt lat="47.450775029137731" lon="10.57143297046423">
        <ele>1504</ele>
        <time>2011-03-04T00:18:30Z</time>
      </trkpt>
      <trkpt lat="47.450745021924376" lon="10.57128100655973">
        <ele>1504</ele>
        <time>2011-03-04T00:18:34Z</time>
      </trkpt>
      <trkpt lat="47.450707973912358" lon="10.571143040433526">
        <ele>1497</ele>
        <time>2011-03-04T00:18:38Z</time>
      </trkpt>
      <trkpt lat="47.450650976970792" lon="10.571072967723012">
        <ele>1497</ele>
        <time>2011-03-04T00:18:41Z</time>
      </trkpt>
      <trkpt lat="47.450617030262947" lon="10.570890996605158">
        <ele>1497</ele>
        <time>2011-03-04T00:18:46Z</time>
      </trkpt>
      <trkpt lat="47.450561039149761" lon="10.570815978571773">
        <ele>1497</ele>
        <time>2011-03-04T00:18:49Z</time>
      </trkpt>
      <trkpt lat="47.450549975037575" lon="10.57076501660049">
        <ele>1497</ele>
        <time>2011-03-04T00:18:51Z</time>
      </trkpt>
      <trkpt lat="47.450486021116376" lon="10.570683041587472">
        <ele>1497</ele>
        <time>2011-03-04T00:18:54Z</time>
      </trkpt>
      <trkpt lat="47.450477974489331" lon="10.570633001625538">
        <ele>1497</ele>
        <time>2011-03-04T00:18:56Z</time>
      </trkpt>
      <trkpt lat="47.450448973104358" lon="10.570254977792501">
        <ele>1482</ele>
        <time>2011-03-04T00:19:06Z</time>
      </trkpt>
      <trkpt lat="47.450390970334411" lon="10.569979967549443">
        <ele>1557</ele>
        <time>2011-03-04T00:19:14Z</time>
      </trkpt>
      <trkpt lat="47.450336990877986" lon="10.56982004083693">
        <ele>1557</ele>
        <time>2011-03-04T00:19:19Z</time>
      </trkpt>
      <trkpt lat="47.45030296035111" lon="10.569723984226584">
        <ele>1557</ele>
        <time>2011-03-04T00:19:22Z</time>
      </trkpt>
      <trkpt lat="47.450245041400194" lon="10.569608984515071">
        <ele>1557</ele>
        <time>2011-03-04T00:19:25Z</time>
      </trkpt>
      <trkpt lat="47.450187960639596" lon="10.569544024765491">
        <ele>1527</ele>
        <time>2011-03-04T00:19:28Z</time>
      </trkpt>
      <trkpt lat="47.450084025040269" lon="10.569287035614252">
        <ele>1527</ele>
        <time>2011-03-04T00:19:36Z</time>
      </trkpt>
      <trkpt lat="47.449995009228587" lon="10.569104980677366">
        <ele>1527</ele>
        <time>2011-03-04T00:19:43Z</time>
      </trkpt>
      <trkpt lat="47.44987296871841" lon="10.568886967375875">
        <ele>1527</ele>
        <time>2011-03-04T00:19:50Z</time>
      </trkpt>
      <trkpt lat="47.449756963178515" lon="10.56868102401495">
        <ele>1508</ele>
        <time>2011-03-04T00:19:57Z</time>
      </trkpt>
      <trkpt lat="47.449704995378852" lon="10.568422023206949">
        <ele>1508</ele>
        <time>2011-03-04T00:20:05Z</time>
      </trkpt>
      <trkpt lat="47.449715975672007" lon="10.568324960768223">
        <ele>1508</ele>
        <time>2011-03-04T00:20:07Z</time>
      </trkpt>
      <trkpt lat="47.449606005102396" lon="10.568076018244028">
        <ele>1508</ele>
        <time>2011-03-04T00:20:15Z</time>
      </trkpt>
      <trkpt lat="47.449596030637622" lon="10.567985996603966">
        <ele>1508</ele>
        <time>2011-03-04T00:20:18Z</time>
      </trkpt>
      <trkpt lat="47.449553031474352" lon="10.567964036017656">
        <ele>1560</ele>
        <time>2011-03-04T00:20:20Z</time>
      </trkpt>
      <trkpt lat="47.449476001784205" lon="10.567838978022337">
        <ele>1532</ele>
        <time>2011-03-04T00:20:24Z</time>
      </trkpt>
      <trkpt lat="47.449454963207245" lon="10.567815005779266">
        <ele>1532</ele>
        <time>2011-03-04T00:20:25Z</time>
      </trkpt>
      <trkpt lat="47.449410036206245" lon="10.567602021619678">
        <ele>1532</ele>
        <time>2011-03-04T00:20:31Z</time>
      </trkpt>
      <trkpt lat="47.449260000139475" lon="10.567437987774611">
        <ele>1532</ele>
        <time>2011-03-04T00:20:39Z</time>
      </trkpt>
      <trkpt lat="47.44911901652813" lon="10.567319970577955">
        <ele>1532</ele>
        <time>2011-03-04T00:20:45Z</time>
      </trkpt>
      <trkpt lat="47.449065959081054" lon="10.567275965586305">
        <ele>1532</ele>
        <time>2011-03-04T00:20:48Z</time>
      </trkpt>
      <trkpt lat="47.448985995724797" lon="10.567217962816358">
        <ele>1532</ele>
        <time>2011-03-04T00:20:51Z</time>
      </trkpt>
      <trkpt lat="47.448875019326806" lon="10.567058036103845">
        <ele>1508</ele>
        <time>2011-03-04T00:20:58Z</time>
      </trkpt>
      <trkpt lat="47.448703022673726" lon="10.566913029178977">
        <ele>1524</ele>
        <time>2011-03-04T00:21:06Z</time>
      </trkpt>
      <trkpt lat="47.448586011305451" lon="10.566923003643751">
        <ele>1524</ele>
        <time>2011-03-04T00:21:10Z</time>
      </trkpt>
      <trkpt lat="47.448437986895442" lon="10.566905988380313">
        <ele>1524</ele>
        <time>2011-03-04T00:21:16Z</time>
      </trkpt>
      <trkpt lat="47.448343019932508" lon="10.566880004480481">
        <ele>1524</ele>
        <time>2011-03-04T00:21:20Z</time>
      </trkpt>
      <trkpt lat="47.448125006631017" lon="10.566953010857105">
        <ele>1524</ele>
        <time>2011-03-04T00:21:29Z</time>
      </trkpt>
      <trkpt lat="47.44793800637126" lon="10.566844968125224">
        <ele>1524</ele>
        <time>2011-03-04T00:21:37Z</time>
      </trkpt>
      <trkpt lat="47.447815965861082" lon="10.566759975627065">
        <ele>1549</ele>
        <time>2011-03-04T00:21:42Z</time>
      </trkpt>
      <trkpt lat="47.44781001470983" lon="10.566733991727233">
        <ele>1549</ele>
        <time>2011-03-04T00:21:43Z</time>
      </trkpt>
      <trkpt lat="47.447674982249737" lon="10.566641036421061">
        <ele>1549</ele>
        <time>2011-03-04T00:21:49Z</time>
      </trkpt>
      <trkpt lat="47.447593007236719" lon="10.566611029207706">
        <ele>1549</ele>
        <time>2011-03-04T00:21:53Z</time>
      </trkpt>
      <trkpt lat="47.447566017508507" lon="10.566584039479494">
        <ele>1549</ele>
        <time>2011-03-04T00:21:54Z</time>
      </trkpt>
      <trkpt lat="47.447533998638391" lon="10.566559983417392">
        <ele>1549</ele>
        <time>2011-03-04T00:21:55Z</time>
      </trkpt>
      <trkpt lat="47.447474990040064" lon="10.566456969827414">
        <ele>1549</ele>
        <time>2011-03-04T00:21:59Z</time>
      </trkpt>
      <trkpt lat="47.447400977835059" lon="10.566397961229086">
        <ele>1549</ele>
        <time>2011-03-04T00:22:02Z</time>
      </trkpt>
      <trkpt lat="47.447231998667121" lon="10.566211966797709">
        <ele>1540</ele>
        <time>2011-03-04T00:22:11Z</time>
      </trkpt>
      <trkpt lat="47.447152035310864" lon="10.566142983734608">
        <ele>1540</ele>
        <time>2011-03-04T00:22:14Z</time>
      </trkpt>
      <trkpt lat="47.447025971487164" lon="10.565899992361665">
        <ele>1558</ele>
        <time>2011-03-04T00:22:23Z</time>
      </trkpt>
      <trkpt lat="47.446848023682833" lon="10.565752973780036">
        <ele>1558</ele>
        <time>2011-03-04T00:22:31Z</time>
      </trkpt>
      <trkpt lat="47.446783985942602" lon="10.56573897600174">
        <ele>1558</ele>
        <time>2011-03-04T00:22:33Z</time>
      </trkpt>
      <trkpt lat="47.446791026741266" lon="10.565515011548996">
        <ele>1558</ele>
        <time>2011-03-04T00:22:40Z</time>
      </trkpt>
      <trkpt lat="47.446724977344275" lon="10.565290963277221">
        <ele>1563</ele>
        <time>2011-03-04T00:22:46Z</time>
      </trkpt>
      <trkpt lat="47.446726989001036" lon="10.565195996314287">
        <ele>1563</ele>
        <time>2011-03-04T00:22:49Z</time>
      </trkpt>
      <trkpt lat="47.446740986779332" lon="10.565097006037831">
        <ele>1563</ele>
        <time>2011-03-04T00:22:51Z</time>
      </trkpt>
      <trkpt lat="47.446894962340593" lon="10.564868012443185">
        <ele>1563</ele>
        <time>2011-03-04T00:23:00Z</time>
      </trkpt>
      <trkpt lat="47.446975009515882" lon="10.564838005229831">
        <ele>1563</ele>
        <time>2011-03-04T00:23:03Z</time>
      </trkpt>
      <trkpt lat="47.446939973160625" lon="10.564732979983091">
        <ele>1563</ele>
        <time>2011-03-04T00:23:07Z</time>
      </trkpt>
      <trkpt lat="47.446976015344262" lon="10.564467022195458">
        <ele>1574</ele>
        <time>2011-03-04T00:23:14Z</time>
      </trkpt>
      <trkpt lat="47.446968974545598" lon="10.564417988061905">
        <ele>1574</ele>
        <time>2011-03-04T00:23:15Z</time>
      </trkpt>
      <trkpt lat="47.446903008967638" lon="10.564231993630528">
        <ele>1574</ele>
        <time>2011-03-04T00:23:21Z</time>
      </trkpt>
      <trkpt lat="47.446851963177323" lon="10.564108025282621">
        <ele>1574</ele>
        <time>2011-03-04T00:23:25Z</time>
      </trkpt>
      <trkpt lat="47.446794966235757" lon="10.563939968124032">
        <ele>1574</ele>
        <time>2011-03-04T00:23:30Z</time>
      </trkpt>
      <trkpt lat="47.44675800204277" lon="10.563754979521036">
        <ele>1574</ele>
        <time>2011-03-04T00:23:35Z</time>
      </trkpt>
      <trkpt lat="47.446750961244106" lon="10.563699994236231">
        <ele>1592</ele>
        <time>2011-03-04T00:23:37Z</time>
      </trkpt>
      <trkpt lat="47.446710979565978" lon="10.563645008951426">
        <ele>1592</ele>
        <time>2011-03-04T00:23:39Z</time>
      </trkpt>
      <trkpt lat="47.446553986519575" lon="10.563451973721385">
        <ele>1592</ele>
        <time>2011-03-04T00:23:47Z</time>
      </trkpt>
      <trkpt lat="47.446450972929597" lon="10.563434036448598">
        <ele>1592</ele>
        <time>2011-03-04T00:23:51Z</time>
      </trkpt>
      <trkpt lat="47.446399005129933" lon="10.56337796151638">
        <ele>1592</ele>
        <time>2011-03-04T00:23:54Z</time>
      </trkpt>
      <trkpt lat="47.446388024836779" lon="10.563387013971806">
        <ele>1592</ele>
        <time>2011-03-04T00:23:54Z</time>
      </trkpt>
      <trkpt lat="47.446289034560323" lon="10.563500002026558">
        <ele>1592</ele>
        <time>2011-03-04T00:23:59Z</time>
      </trkpt>
      <trkpt lat="47.446202030405402" lon="10.563607038930058">
        <ele>1622</ele>
        <time>2011-03-04T00:24:04Z</time>
      </trkpt>
      <trkpt lat="47.446108991280198" lon="10.563598992303014">
        <ele>1622</ele>
        <time>2011-03-04T00:24:08Z</time>
      </trkpt>
      <trkpt lat="47.44600597769022" lon="10.56358901783824">
        <ele>1622</ele>
        <time>2011-03-04T00:24:12Z</time>
      </trkpt>
      <trkpt lat="47.445896007120609" lon="10.563610978424549">
        <ele>1622</ele>
        <time>2011-03-04T00:24:16Z</time>
      </trkpt>
      <trkpt lat="47.44581202045083" lon="10.563593041151762">
        <ele>1622</ele>
        <time>2011-03-04T00:24:20Z</time>
      </trkpt>
      <trkpt lat="47.445673970505595" lon="10.563550963997841">
        <ele>1622</ele>
        <time>2011-03-04T00:24:25Z</time>
      </trkpt>
      <trkpt lat="47.445622002705932" lon="10.563471000641584">
        <ele>1622</ele>
        <time>2011-03-04T00:24:28Z</time>
      </trkpt>
      <trkpt lat="47.445599036291242" lon="10.563478963449597">
        <ele>1622</ele>
        <time>2011-03-04T00:24:29Z</time>
      </trkpt>
      <trkpt lat="47.445542039349675" lon="10.563388019800186">
        <ele>1622</ele>
        <time>2011-03-04T00:24:33Z</time>
      </trkpt>
      <trkpt lat="47.445479007437825" lon="10.563318030908704">
        <ele>1622</ele>
        <time>2011-03-04T00:24:36Z</time>
      </trkpt>
      <trkpt lat="47.445473978295922" lon="10.563316019251943">
        <ele>1622</ele>
        <time>2011-03-04T00:24:36Z</time>
      </trkpt>
      <trkpt lat="47.445363001897931" lon="10.563266985118389">
        <ele>1646</ele>
        <time>2011-03-04T00:24:41Z</time>
      </trkpt>
      <trkpt lat="47.445309022441506" lon="10.563266985118389">
        <ele>1646</ele>
        <time>2011-03-04T00:24:43Z</time>
      </trkpt>
      <trkpt lat="47.445212965831161" lon="10.563220968469977">
        <ele>1646</ele>
        <time>2011-03-04T00:24:47Z</time>
      </trkpt>
      <trkpt lat="47.445105006918311" lon="10.563174029812217">
        <ele>1646</ele>
        <time>2011-03-04T00:24:51Z</time>
      </trkpt>
      <trkpt lat="47.445096960291266" lon="10.563105968758464">
        <ele>1646</ele>
        <time>2011-03-04T00:24:53Z</time>
      </trkpt>
      <trkpt lat="47.445070976391435" lon="10.5630540009588">
        <ele>1646</ele>
        <time>2011-03-04T00:24:55Z</time>
      </trkpt>
      <trkpt lat="47.444950025528669" lon="10.563023993745446">
        <ele>1646</ele>
        <time>2011-03-04T00:25:00Z</time>
      </trkpt>
      <trkpt lat="47.444895962253213" lon="10.562969008460641">
        <ele>1646</ele>
        <time>2011-03-04T00:25:02Z</time>
      </trkpt>
      <trkpt lat="47.444921024143696" lon="10.562893990427256">
        <ele>1671</ele>
        <time>2011-03-04T00:25:05Z</time>
      </trkpt>
      <trkpt lat="47.444901997223496" lon="10.562808997929096">
        <ele>1671</ele>
        <time>2011-03-04T00:25:07Z</time>
      </trkpt>
      <trkpt lat="47.44493099860847" lon="10.562618980184197">
        <ele>1671</ele>
        <time>2011-03-04T00:25:12Z</time>
      </trkpt>
      <trkpt lat="47.444967040792108" lon="10.5625169724226">
        <ele>1671</ele>
        <time>2011-03-04T00:25:16Z</time>
      </trkpt>
      <trkpt lat="47.445006016641855" lon="10.562411025166512">
        <ele>1671</ele>
        <time>2011-03-04T00:25:19Z</time>
      </trkpt>
      <trkpt lat="47.444981038570404" lon="10.562310023233294">
        <ele>1671</ele>
        <time>2011-03-04T00:25:22Z</time>
      </trkpt>
      <trkpt lat="47.44495396502316" lon="10.562200974673033">
        <ele>1671</ele>
        <time>2011-03-04T00:25:25Z</time>
      </trkpt>
      <trkpt lat="47.444880958646536" lon="10.562091004103422">
        <ele>1671</ele>
        <time>2011-03-04T00:25:29Z</time>
      </trkpt>
      <trkpt lat="47.444761013612151" lon="10.562097039073706">
        <ele>1671</ele>
        <time>2011-03-04T00:25:34Z</time>
      </trkpt>
      <trkpt lat="47.444662023335695" lon="10.562089998275042">
        <ele>1671</ele>
        <time>2011-03-04T00:25:38Z</time>
      </trkpt>
      <trkpt lat="47.444608965888619" lon="10.561998970806599">
        <ele>1690</ele>
        <time>2011-03-04T00:25:41Z</time>
      </trkpt>
      <trkpt lat="47.444529002532363" lon="10.561847006902099">
        <ele>1696</ele>
        <time>2011-03-04T00:25:46Z</time>
      </trkpt>
      <trkpt lat="47.444463036954403" lon="10.561733013018966">
        <ele>1696</ele>
        <time>2011-03-04T00:25:50Z</time>
      </trkpt>
      <trkpt lat="47.444404028356075" lon="10.561626981943846">
        <ele>1696</ele>
        <time>2011-03-04T00:25:54Z</time>
      </trkpt>
      <trkpt lat="47.444449039176106" lon="10.561532014980912">
        <ele>1696</ele>
        <time>2011-03-04T00:25:57Z</time>
      </trkpt>
      <trkpt lat="47.444459013640881" lon="10.56137602776289">
        <ele>1696</ele>
        <time>2011-03-04T00:26:01Z</time>
      </trkpt>
      <trkpt lat="47.444420037791133" lon="10.561330011114478">
        <ele>1696</ele>
        <time>2011-03-04T00:26:03Z</time>
      </trkpt>
      <trkpt lat="47.444387013092637" lon="10.561175029724836">
        <ele>1711</ele>
        <time>2011-03-04T00:26:08Z</time>
      </trkpt>
      <trkpt lat="47.444280982017517" lon="10.560920974239707">
        <ele>1711</ele>
        <time>2011-03-04T00:26:16Z</time>
      </trkpt>
      <trkpt lat="47.444162964820862" lon="10.560748977586627">
        <ele>1711</ele>
        <time>2011-03-04T00:26:23Z</time>
      </trkpt>
      <trkpt lat="47.44415701366961" lon="10.560606988146901">
        <ele>1711</ele>
        <time>2011-03-04T00:26:26Z</time>
      </trkpt>
      <trkpt lat="47.444159025326371" lon="10.560596007853746">
        <ele>1711</ele>
        <time>2011-03-04T00:26:27Z</time>
      </trkpt>
      <trkpt lat="47.44415701366961" lon="10.560543034225702">
        <ele>1711</ele>
        <time>2011-03-04T00:26:28Z</time>
      </trkpt>
      <trkpt lat="47.444158019497991" lon="10.560502968728542">
        <ele>1711</ele>
        <time>2011-03-04T00:26:29Z</time>
      </trkpt>
      <trkpt lat="47.44415701366961" lon="10.560489976778626">
        <ele>1711</ele>
        <time>2011-03-04T00:26:30Z</time>
      </trkpt>
      <trkpt lat="47.444144021719694" lon="10.560329966247082">
        <ele>1732</ele>
        <time>2011-03-04T00:26:34Z</time>
      </trkpt>
      <trkpt lat="47.444147039204836" lon="10.560319991782308">
        <ele>1732</ele>
        <time>2011-03-04T00:26:34Z</time>
      </trkpt>
      <trkpt lat="47.444156007841229" lon="10.560295013710856">
        <ele>1732</ele>
        <time>2011-03-04T00:26:35Z</time>
      </trkpt>
      <trkpt lat="47.444110997021198" lon="10.560210021212697">
        <ele>1732</ele>
        <time>2011-03-04T00:26:38Z</time>
      </trkpt>
      <trkpt lat="47.444044025614858" lon="10.560156041756272">
        <ele>1732</ele>
        <time>2011-03-04T00:26:41Z</time>
      </trkpt>
      <trkpt lat="47.443862976506352" lon="10.560043975710869">
        <ele>1732</ele>
        <time>2011-03-04T00:26:49Z</time>
      </trkpt>
      <trkpt lat="47.443771027028561" lon="10.559977004304528">
        <ele>1732</ele>
        <time>2011-03-04T00:26:53Z</time>
      </trkpt>
      <trkpt lat="47.443759040907025" lon="10.559935010969639">
        <ele>1732</ele>
        <time>2011-03-04T00:26:54Z</time>
      </trkpt>
      <trkpt lat="47.443653009831905" lon="10.559797966852784">
        <ele>1729</ele>
        <time>2011-03-04T00:27:00Z</time>
      </trkpt>
      <trkpt lat="47.443567011505365" lon="10.559697970747948">
        <ele>1729</ele>
        <time>2011-03-04T00:27:04Z</time>
      </trkpt>
      <trkpt lat="47.44349199347198" lon="10.559537038207054">
        <ele>1751</ele>
        <time>2011-03-04T00:27:09Z</time>
      </trkpt>
      <trkpt lat="47.443483024835587" lon="10.559515999630094">
        <ele>1751</ele>
        <time>2011-03-04T00:27:10Z</time>
      </trkpt>
      <trkpt lat="47.443390991538763" lon="10.559476017951965">
        <ele>1751</ele>
        <time>2011-03-04T00:27:14Z</time>
      </trkpt>
      <trkpt lat="47.443367019295692" lon="10.55938096717">
        <ele>1751</ele>
        <time>2011-03-04T00:27:17Z</time>
      </trkpt>
      <trkpt lat="47.443314967676997" lon="10.559179969131947">
        <ele>1751</ele>
        <time>2011-03-04T00:27:23Z</time>
      </trkpt>
      <trkpt lat="47.443223018199205" lon="10.559160020202398">
        <ele>1751</ele>
        <time>2011-03-04T00:27:26Z</time>
      </trkpt>
      <trkpt lat="47.44312503375113" lon="10.559132024645805">
        <ele>1751</ele>
        <time>2011-03-04T00:27:30Z</time>
      </trkpt>
      <trkpt lat="47.443050015717745" lon="10.559052983298898">
        <ele>1751</ele>
        <time>2011-03-04T00:27:34Z</time>
      </trkpt>
      <trkpt lat="47.442968040704727" lon="10.55899397470057">
        <ele>1751</ele>
        <time>2011-03-04T00:27:38Z</time>
      </trkpt>
      <trkpt lat="47.442840971052647" lon="10.558918034657836">
        <ele>1764</ele>
        <time>2011-03-04T00:27:43Z</time>
      </trkpt>
      <trkpt lat="47.442643996328115" lon="10.558876041322947">
        <ele>1764</ele>
        <time>2011-03-04T00:27:51Z</time>
      </trkpt>
      <trkpt lat="47.442581970244646" lon="10.558914011344314">
        <ele>1764</ele>
        <time>2011-03-04T00:27:54Z</time>
      </trkpt>
      <trkpt lat="47.44248197413981" lon="10.558910993859172">
        <ele>1764</ele>
        <time>2011-03-04T00:27:58Z</time>
      </trkpt>
      <trkpt lat="47.442365968599916" lon="10.558877969160676">
        <ele>1764</ele>
        <time>2011-03-04T00:28:02Z</time>
      </trkpt>
      <trkpt lat="47.442255998030305" lon="10.55888400413096">
        <ele>1764</ele>
        <time>2011-03-04T00:28:07Z</time>
      </trkpt>
      <trkpt lat="47.442188020795584" lon="10.558888027444482">
        <ele>1764</ele>
        <time>2011-03-04T00:28:10Z</time>
      </trkpt>
      <trkpt lat="47.442034967243671" lon="10.55886397138238">
        <ele>1787</ele>
        <time>2011-03-04T00:28:16Z</time>
      </trkpt>
      <trkpt lat="47.441947041079402" lon="10.558800017461181">
        <ele>1787</ele>
        <time>2011-03-04T00:28:20Z</time>
      </trkpt>
      <trkpt lat="47.441813014447689" lon="10.558808986097574">
        <ele>1787</ele>
        <time>2011-03-04T00:28:25Z</time>
      </trkpt>
      <trkpt lat="47.441696003079414" lon="10.558887021616101">
        <ele>1787</ele>
        <time>2011-03-04T00:28:30Z</time>
      </trkpt>
      <trkpt lat="47.441593995317817" lon="10.558847961947322">
        <ele>1787</ele>
        <time>2011-03-04T00:28:34Z</time>
      </trkpt>
      <trkpt lat="47.441416969522834" lon="10.558900013566017">
        <ele>1787</ele>
        <time>2011-03-04T00:28:42Z</time>
      </trkpt>
      <trkpt lat="47.441327031701803" lon="10.558935971930623">
        <ele>1787</ele>
        <time>2011-03-04T00:28:45Z</time>
      </trkpt>
      <trkpt lat="47.441153023391962" lon="10.559065975248814">
        <ele>1815</ele>
        <time>2011-03-04T00:28:53Z</time>
      </trkpt>
      <trkpt lat="47.441080017015338" lon="10.559195978567004">
        <ele>1815</ele>
        <time>2011-03-04T00:28:58Z</time>
      </trkpt>
      <trkpt lat="47.440912965685129" lon="10.559295974671841">
        <ele>1815</ele>
        <time>2011-03-04T00:29:05Z</time>
      </trkpt>
      <trkpt lat="47.440882036462426" lon="10.559365963563323">
        <ele>1815</ele>
        <time>2011-03-04T00:29:07Z</time>
      </trkpt>
      <trkpt lat="47.440786985680461" lon="10.559299997985363">
        <ele>1815</ele>
        <time>2011-03-04T00:29:11Z</time>
      </trkpt>
      <trkpt lat="47.440752033144236" lon="10.559255992993712">
        <ele>1815</ele>
        <time>2011-03-04T00:29:13Z</time>
      </trkpt>
      <trkpt lat="47.440691012889147" lon="10.559286000207067">
        <ele>1815</ele>
        <time>2011-03-04T00:29:16Z</time>
      </trkpt>
      <trkpt lat="47.440623035654426" lon="10.559385996311903">
        <ele>1815</ele>
        <time>2011-03-04T00:29:20Z</time>
      </trkpt>
      <trkpt lat="47.440540976822376" lon="10.559445004910231">
        <ele>1815</ele>
        <time>2011-03-04T00:29:23Z</time>
      </trkpt>
      <trkpt lat="47.440512981265783" lon="10.559488004073501">
        <ele>1815</ele>
        <time>2011-03-04T00:29:25Z</time>
      </trkpt>
      <trkpt lat="47.440327992662787" lon="10.559496972709894">
        <ele>1832</ele>
        <time>2011-03-04T00:29:32Z</time>
      </trkpt>
      <trkpt lat="47.440209975466132" lon="10.559286000207067">
        <ele>1832</ele>
        <time>2011-03-04T00:29:40Z</time>
      </trkpt>
      <trkpt lat="47.440138980746269" lon="10.559189021587372">
        <ele>1832</ele>
        <time>2011-03-04T00:29:44Z</time>
      </trkpt>
      <trkpt lat="47.440007971599698" lon="10.558936977759004">
        <ele>1832</ele>
        <time>2011-03-04T00:29:52Z</time>
      </trkpt>
      <trkpt lat="47.43986003100872" lon="10.558800017461181">
        <ele>1832</ele>
        <time>2011-03-04T00:29:59Z</time>
      </trkpt>
      <trkpt lat="47.439757017418742" lon="10.558748971670866">
        <ele>1840</ele>
        <time>2011-03-04T00:30:04Z</time>
      </trkpt>
      <trkpt lat="47.43968803435564" lon="10.558613017201424">
        <ele>1840</ele>
        <time>2011-03-04T00:30:08Z</time>
      </trkpt>
      <trkpt lat="47.439550990238786" lon="10.558436997234821">
        <ele>1856</ele>
        <time>2011-03-04T00:30:15Z</time>
      </trkpt>
      <trkpt lat="47.439457029104233" lon="10.55817699059844">
        <ele>1856</ele>
        <time>2011-03-04T00:30:23Z</time>
      </trkpt>
      <trkpt lat="47.439435990527272" lon="10.558029972016811">
        <ele>1856</ele>
        <time>2011-03-04T00:30:27Z</time>
      </trkpt>
      <trkpt lat="47.439514026045799" lon="10.557883959263563">
        <ele>1875</ele>
        <time>2011-03-04T00:30:33Z</time>
      </trkpt>
      <trkpt lat="47.439532969146967" lon="10.557820005342364">
        <ele>1875</ele>
        <time>2011-03-04T00:30:34Z</time>
      </trkpt>
      <trkpt lat="47.439693985506892" lon="10.557613978162408">
        <ele>1856</ele>
        <time>2011-03-04T00:30:43Z</time>
      </trkpt>
      <trkpt lat="47.43977403268218" lon="10.557559998705983">
        <ele>1856</ele>
        <time>2011-03-04T00:30:46Z</time>
      </trkpt>
      <trkpt lat="47.439814014360309" lon="10.557524040341377">
        <ele>1856</ele>
        <time>2011-03-04T00:30:48Z</time>
      </trkpt>
      <trkpt lat="47.43996899574995" lon="10.557221034541726">
        <ele>1856</ele>
        <time>2011-03-04T00:30:59Z</time>
      </trkpt>
      <trkpt lat="47.440043007954955" lon="10.557054989039898">
        <ele>1872</ele>
        <time>2011-03-04T00:31:04Z</time>
      </trkpt>
      <trkpt lat="47.440134035423398" lon="10.556862037628889">
        <ele>1872</ele>
        <time>2011-03-04T00:31:10Z</time>
      </trkpt>
      <trkpt lat="47.44011702015996" lon="10.556761035695672">
        <ele>1872</ele>
        <time>2011-03-04T00:31:13Z</time>
      </trkpt>
      <trkpt lat="47.4401839915663" lon="10.556514021009207">
        <ele>1872</ele>
        <time>2011-03-04T00:31:20Z</time>
      </trkpt>
      <trkpt lat="47.440248029306531" lon="10.556298019364476">
        <ele>1872</ele>
        <time>2011-03-04T00:31:27Z</time>
      </trkpt>
      <trkpt lat="47.440341990441084" lon="10.556143037974834">
        <ele>1885</ele>
        <time>2011-03-04T00:31:32Z</time>
      </trkpt>
      <trkpt lat="47.440366968512535" lon="10.556128034368157">
        <ele>1885</ele>
        <time>2011-03-04T00:31:33Z</time>
      </trkpt>
      <trkpt lat="47.440410973504186" lon="10.556018985807896">
        <ele>1885</ele>
        <time>2011-03-04T00:31:37Z</time>
      </trkpt>
      <trkpt lat="47.440496971830726" lon="10.555801978334785">
        <ele>1873</ele>
        <time>2011-03-04T00:31:44Z</time>
      </trkpt>
      <trkpt lat="47.440625969320536" lon="10.555678009986877">
        <ele>1873</ele>
        <time>2011-03-04T00:31:50Z</time>
      </trkpt>
      <trkpt lat="47.440657988190651" lon="10.555580025538802">
        <ele>1873</ele>
        <time>2011-03-04T00:31:53Z</time>
      </trkpt>
      <trkpt lat="47.440769970417023" lon="10.555419009178877">
        <ele>1873</ele>
        <time>2011-03-04T00:31:59Z</time>
      </trkpt>
      <trkpt lat="47.44084800593555" lon="10.555296968668699">
        <ele>1881</ele>
        <time>2011-03-04T00:32:04Z</time>
      </trkpt>
      <trkpt lat="47.440946996212006" lon="10.55529504083097">
        <ele>1881</ele>
        <time>2011-03-04T00:32:08Z</time>
      </trkpt>
      <trkpt lat="47.440955964848399" lon="10.555213987827301">
        <ele>1881</ele>
        <time>2011-03-04T00:32:10Z</time>
      </trkpt>
      <trkpt lat="47.440950013697147" lon="10.555180041119456">
        <ele>1881</ele>
        <time>2011-03-04T00:32:11Z</time>
      </trkpt>
      <trkpt lat="47.440943978726864" lon="10.554792964830995">
        <ele>1881</ele>
        <time>2011-03-04T00:32:21Z</time>
      </trkpt>
      <trkpt lat="47.440927969291806" lon="10.554513009265065">
        <ele>1883</ele>
        <time>2011-03-04T00:32:29Z</time>
      </trkpt>
      <trkpt lat="47.44093501009047" lon="10.554509991779923">
        <ele>1883</ele>
        <time>2011-03-04T00:32:29Z</time>
      </trkpt>
      <trkpt lat="47.44095697067678" lon="10.554319974035025">
        <ele>1883</ele>
        <time>2011-03-04T00:32:34Z</time>
      </trkpt>
      <trkpt lat="47.440910032019019" lon="10.5541140306741">
        <ele>1883</ele>
        <time>2011-03-04T00:32:40Z</time>
      </trkpt>
      <trkpt lat="47.440911959856749" lon="10.554097015410662">
        <ele>1883</ele>
        <time>2011-03-04T00:32:41Z</time>
      </trkpt>
      <trkpt lat="47.440936015918851" lon="10.553845977410674">
        <ele>1883</ele>
        <time>2011-03-04T00:32:48Z</time>
      </trkpt>
      <trkpt lat="47.440926041454077" lon="10.553616983816028">
        <ele>1890</ele>
        <time>2011-03-04T00:32:54Z</time>
      </trkpt>
      <trkpt lat="47.440919000655413" lon="10.553349014371634">
        <ele>1890</ele>
        <time>2011-03-04T00:33:01Z</time>
      </trkpt>
      <trkpt lat="47.440955964848399" lon="10.553155979141593">
        <ele>1890</ele>
        <time>2011-03-04T00:33:07Z</time>
      </trkpt>
      <trkpt lat="47.4409110378474" lon="10.552897984161973">
        <ele>1894</ele>
        <time>2011-03-04T00:33:14Z</time>
      </trkpt>
      <trkpt lat="47.440873989835382" lon="10.552594978362322">
        <ele>1894</ele>
        <time>2011-03-04T00:33:22Z</time>
      </trkpt>
      <trkpt lat="47.44087097235024" lon="10.552558014169335">
        <ele>1894</ele>
        <time>2011-03-04T00:33:23Z</time>
      </trkpt>
      <trkpt lat="47.44091397151351" lon="10.552316028624773">
        <ele>1894</ele>
        <time>2011-03-04T00:33:30Z</time>
      </trkpt>
      <trkpt lat="47.440959988161922" lon="10.552165992558002">
        <ele>1894</ele>
        <time>2011-03-04T00:33:34Z</time>
      </trkpt>
      <trkpt lat="47.440989995375276" lon="10.552097009494901">
        <ele>1894</ele>
        <time>2011-03-04T00:33:37Z</time>
      </trkpt>
      <trkpt lat="47.44100097566843" lon="10.552040012553334">
        <ele>1902</ele>
        <time>2011-03-04T00:33:38Z</time>
      </trkpt>
      <trkpt lat="47.441122010350227" lon="10.551876984536648">
        <ele>1902</ele>
        <time>2011-03-04T00:33:45Z</time>
      </trkpt>
      <trkpt lat="47.441168026998639" lon="10.551766008138657">
        <ele>1902</ele>
        <time>2011-03-04T00:33:48Z</time>
      </trkpt>
      <trkpt lat="47.44112896732986" lon="10.551780005916953">
        <ele>1902</ele>
        <time>2011-03-04T00:33:50Z</time>
      </trkpt>
      <trkpt lat="47.441135002300143" lon="10.551770031452179">
        <ele>1902</ele>
        <time>2011-03-04T00:33:50Z</time>
      </trkpt>
      <trkpt lat="47.44121203199029" lon="10.551656959578395">
        <ele>1902</ele>
        <time>2011-03-04T00:33:55Z</time>
      </trkpt>
      <trkpt lat="47.441232986748219" lon="10.551551012322307">
        <ele>1902</ele>
        <time>2011-03-04T00:33:57Z</time>
      </trkpt>
      <trkpt lat="47.441232986748219" lon="10.551547994837165">
        <ele>1902</ele>
        <time>2011-03-04T00:33:58Z</time>
      </trkpt>
      <trkpt lat="47.441285960376263" lon="10.551460990682244">
        <ele>1895</ele>
        <time>2011-03-04T00:34:01Z</time>
      </trkpt>
      <trkpt lat="47.441355027258396" lon="10.55121498182416">
        <ele>1920</ele>
        <time>2011-03-04T00:34:08Z</time>
      </trkpt>
      <trkpt lat="47.441441025584936" lon="10.551110040396452">
        <ele>1920</ele>
        <time>2011-03-04T00:34:12Z</time>
      </trkpt>
      <trkpt lat="47.441498022526503" lon="10.550979031249881">
        <ele>1920</ele>
        <time>2011-03-04T00:34:17Z</time>
      </trkpt>
      <trkpt lat="47.441504979506135" lon="10.550939971581101">
        <ele>1920</ele>
        <time>2011-03-04T00:34:18Z</time>
      </trkpt>
      <trkpt lat="47.441562982276082" lon="10.550897978246212">
        <ele>1920</ele>
        <time>2011-03-04T00:34:20Z</time>
      </trkpt>
      <trkpt lat="47.441570023074746" lon="10.55082798935473">
        <ele>1920</ele>
        <time>2011-03-04T00:34:22Z</time>
      </trkpt>
      <trkpt lat="47.441616961732507" lon="10.550767974928021">
        <ele>1920</ele>
        <time>2011-03-04T00:34:25Z</time>
      </trkpt>
      <trkpt lat="47.441616961732507" lon="10.550674013793468">
        <ele>1920</ele>
        <time>2011-03-04T00:34:27Z</time>
      </trkpt>
      <trkpt lat="47.441614028066397" lon="10.550631014630198">
        <ele>1920</ele>
        <time>2011-03-04T00:34:28Z</time>
      </trkpt>
      <trkpt lat="47.441615033894777" lon="10.550516014918685">
        <ele>1920</ele>
        <time>2011-03-04T00:34:32Z</time>
      </trkpt>
      <trkpt lat="47.441630959510803" lon="10.550437979400158">
        <ele>1920</ele>
        <time>2011-03-04T00:34:34Z</time>
      </trkpt>
      <trkpt lat="47.441628025844693" lon="10.550379976630211">
        <ele>1953</ele>
        <time>2011-03-04T00:34:35Z</time>
      </trkpt>
      <trkpt lat="47.441679993644357" lon="10.550345024093986">
        <ele>1953</ele>
        <time>2011-03-04T00:34:38Z</time>
      </trkpt>
      <trkpt lat="47.441670019179583" lon="10.550245027989149">
        <ele>1953</ele>
        <time>2011-03-04T00:34:40Z</time>
      </trkpt>
      <trkpt lat="47.441669013351202" lon="10.550132961943746">
        <ele>1953</ele>
        <time>2011-03-04T00:34:43Z</time>
      </trkpt>
      <trkpt lat="47.44168502278626" lon="10.55011996999383">
        <ele>1953</ele>
        <time>2011-03-04T00:34:44Z</time>
      </trkpt>
      <trkpt lat="47.441744031384587" lon="10.550090968608856">
        <ele>1953</ele>
        <time>2011-03-04T00:34:47Z</time>
      </trkpt>
      <trkpt lat="47.441736990585923" lon="10.550044029951096">
        <ele>1953</ele>
        <time>2011-03-04T00:34:48Z</time>
      </trkpt>
      <trkpt lat="47.441760040819645" lon="10.549978986382484">
        <ele>1953</ele>
        <time>2011-03-04T00:34:50Z</time>
      </trkpt>
      <trkpt lat="47.441806979477406" lon="10.549930036067963">
        <ele>1953</ele>
        <time>2011-03-04T00:34:52Z</time>
      </trkpt>
      <trkpt lat="47.441832041367888" lon="10.549897011369467">
        <ele>1953</ele>
        <time>2011-03-04T00:34:54Z</time>
      </trkpt>
      <trkpt lat="47.441874034702778" lon="10.549871027469635">
        <ele>1953</ele>
        <time>2011-03-04T00:34:55Z</time>
      </trkpt>
      <trkpt lat="47.44186095893383" lon="10.549804978072643">
        <ele>1953</ele>
        <time>2011-03-04T00:34:57Z</time>
      </trkpt>
      <trkpt lat="47.441930025815964" lon="10.549758961424232">
        <ele>1953</ele>
        <time>2011-03-04T00:35:00Z</time>
      </trkpt>
      <trkpt lat="47.441932037472725" lon="10.549704981967807">
        <ele>1953</ele>
        <time>2011-03-04T00:35:02Z</time>
      </trkpt>
      <trkpt lat="47.441951986402273" lon="10.549645973369479">
        <ele>1953</ele>
        <time>2011-03-04T00:35:04Z</time>
      </trkpt>
      <trkpt lat="47.441952992230654" lon="10.549643961712718">
        <ele>1953</ele>
        <time>2011-03-04T00:35:04Z</time>
      </trkpt>
      <trkpt lat="47.441934971138835" lon="10.549580007791519">
        <ele>2003</ele>
        <time>2011-03-04T00:35:05Z</time>
      </trkpt>
      <trkpt lat="47.441914016380906" lon="10.549501972272992">
        <ele>2003</ele>
        <time>2011-03-04T00:35:08Z</time>
      </trkpt>
      <trkpt lat="47.44192399084568" lon="10.549450004473329">
        <ele>2003</ele>
        <time>2011-03-04T00:35:09Z</time>
      </trkpt>
      <trkpt lat="47.441919967532158" lon="10.549353025853634">
        <ele>2003</ele>
        <time>2011-03-04T00:35:12Z</time>
      </trkpt>
      <trkpt lat="47.441964978352189" lon="10.549301980063319">
        <ele>2003</ele>
        <time>2011-03-04T00:35:14Z</time>
      </trkpt>
      <trkpt lat="47.441978976130486" lon="10.54928102530539">
        <ele>2003</ele>
        <time>2011-03-04T00:35:15Z</time>
      </trkpt>
      <trkpt lat="47.441978976130486" lon="10.549206007272005">
        <ele>2003</ele>
        <time>2011-03-04T00:35:17Z</time>
      </trkpt>
      <trkpt lat="47.442004960030317" lon="10.549149010330439">
        <ele>2003</ele>
        <time>2011-03-04T00:35:19Z</time>
      </trkpt>
      <trkpt lat="47.442037984728813" lon="10.549096036702394">
        <ele>2003</ele>
        <time>2011-03-04T00:35:21Z</time>
      </trkpt>
      <trkpt lat="47.442057011649013" lon="10.549029987305403">
        <ele>2003</ele>
        <time>2011-03-04T00:35:23Z</time>
      </trkpt>
      <trkpt lat="47.442086013033986" lon="10.548965027555823">
        <ele>2033</ele>
        <time>2011-03-04T00:35:25Z</time>
      </trkpt>
      <trkpt lat="47.442071009427309" lon="10.548953963443637">
        <ele>2003</ele>
        <time>2011-03-04T00:35:25Z</time>
      </trkpt>
      <trkpt lat="47.442131023854017" lon="10.548924962058663">
        <ele>2033</ele>
        <time>2011-03-04T00:35:28Z</time>
      </trkpt>
      <trkpt lat="47.442148961126804" lon="10.548887997865677">
        <ele>2033</ele>
        <time>2011-03-04T00:35:29Z</time>
      </trkpt>
      <trkpt lat="47.44218097999692" lon="10.548798982053995">
        <ele>2033</ele>
        <time>2011-03-04T00:35:32Z</time>
      </trkpt>
      <trkpt lat="47.442172011360526" lon="10.54876402951777">
        <ele>2033</ele>
        <time>2011-03-04T00:35:33Z</time>
      </trkpt>
      <trkpt lat="47.442146027460694" lon="10.548688005656004">
        <ele>2071</ele>
        <time>2011-03-04T00:35:35Z</time>
      </trkpt>
      <trkpt lat="47.442142004147172" lon="10.548651963472366">
        <ele>2071</ele>
        <time>2011-03-04T00:35:36Z</time>
      </trkpt>
      <trkpt lat="47.442131023854017" lon="10.5485949665308">
        <ele>2071</ele>
        <time>2011-03-04T00:35:38Z</time>
      </trkpt>
      <trkpt lat="47.442122977226973" lon="10.54857300594449">
        <ele>2071</ele>
        <time>2011-03-04T00:35:39Z</time>
      </trkpt>
      <trkpt lat="47.442074026912451" lon="10.548524977639318">
        <ele>2066</ele>
        <time>2011-03-04T00:35:41Z</time>
      </trkpt>
      <trkpt lat="47.442084001377225" lon="10.54846596904099">
        <ele>2071</ele>
        <time>2011-03-04T00:35:43Z</time>
      </trkpt>
      <trkpt lat="47.442054999992251" lon="10.548402015119791">
        <ele>2066</ele>
        <time>2011-03-04T00:35:45Z</time>
      </trkpt>
      <trkpt lat="47.442075032740831" lon="10.548338983207941">
        <ele>2066</ele>
        <time>2011-03-04T00:35:46Z</time>
      </trkpt>
      <trkpt lat="47.44202901609242" lon="10.548301013186574">
        <ele>2066</ele>
        <time>2011-03-04T00:35:49Z</time>
      </trkpt>
      <trkpt lat="47.442090958356857" lon="10.5482720118016">
        <ele>2071</ele>
        <time>2011-03-04T00:35:51Z</time>
      </trkpt>
      <trkpt lat="47.442109985277057" lon="10.548234041780233">
        <ele>2071</ele>
        <time>2011-03-04T00:35:52Z</time>
      </trkpt>
      <trkpt lat="47.442118031904101" lon="10.548176961019635">
        <ele>2071</ele>
        <time>2011-03-04T00:35:54Z</time>
      </trkpt>
      <trkpt lat="47.442165976390243" lon="10.548187019303441">
        <ele>2071</ele>
        <time>2011-03-04T00:35:56Z</time>
      </trkpt>
      <trkpt lat="47.442173017188907" lon="10.548157012090087">
        <ele>2071</ele>
        <time>2011-03-04T00:35:57Z</time>
      </trkpt>
      <trkpt lat="47.442167988047004" lon="10.54810001514852">
        <ele>2071</ele>
        <time>2011-03-04T00:35:58Z</time>
      </trkpt>
      <trkpt lat="47.442204030230641" lon="10.548063972964883">
        <ele>2071</ele>
        <time>2011-03-04T00:36:00Z</time>
      </trkpt>
      <trkpt lat="47.442216016352177" lon="10.54797101765871">
        <ele>2071</ele>
        <time>2011-03-04T00:36:03Z</time>
      </trkpt>
      <trkpt lat="47.442254992201924" lon="10.547940004616976">
        <ele>2071</ele>
        <time>2011-03-04T00:36:04Z</time>
      </trkpt>
      <trkpt lat="47.442247029393911" lon="10.547901028767228">
        <ele>2077</ele>
        <time>2011-03-04T00:36:06Z</time>
      </trkpt>
      <trkpt lat="47.442261027172208" lon="10.547856017947197">
        <ele>2077</ele>
        <time>2011-03-04T00:36:07Z</time>
      </trkpt>
      <trkpt lat="47.442286005243659" lon="10.547813018783927">
        <ele>2077</ele>
        <time>2011-03-04T00:36:08Z</time>
      </trkpt>
      <trkpt lat="47.442316012457013" lon="10.547786029055715">
        <ele>2077</ele>
        <time>2011-03-04T00:36:10Z</time>
      </trkpt>
      <trkpt lat="47.442348031327128" lon="10.547772031277418">
        <ele>2077</ele>
        <time>2011-03-04T00:36:11Z</time>
      </trkpt>
      <trkpt lat="47.442363034933805" lon="10.547703970223665">
        <ele>2077</ele>
        <time>2011-03-04T00:36:13Z</time>
      </trkpt>
      <trkpt lat="47.442355994135141" lon="10.547630041837692">
        <ele>2077</ele>
        <time>2011-03-04T00:36:15Z</time>
      </trkpt>
      <trkpt lat="47.442343002185225" lon="10.547563992440701">
        <ele>2077</ele>
        <time>2011-03-04T00:36:17Z</time>
      </trkpt>
      <trkpt lat="47.442207969725132" lon="10.547511018812656">
        <ele>2077</ele>
        <time>2011-03-04T00:36:23Z</time>
      </trkpt>
      <trkpt lat="47.442129012197256" lon="10.547486962750554">
        <ele>2077</ele>
        <time>2011-03-04T00:36:26Z</time>
      </trkpt>
      <trkpt lat="47.442092970013618" lon="10.547457961365581">
        <ele>2077</ele>
        <time>2011-03-04T00:36:27Z</time>
      </trkpt>
      <trkpt lat="47.442056005820632" lon="10.547474976629019">
        <ele>2110</ele>
        <time>2011-03-04T00:36:29Z</time>
      </trkpt>
      <trkpt lat="47.442036978900433" lon="10.547451004385948">
        <ele>2110</ele>
        <time>2011-03-04T00:36:30Z</time>
      </trkpt>
      <trkpt lat="47.441998003050685" lon="10.547478999942541">
        <ele>2110</ele>
        <time>2011-03-04T00:36:32Z</time>
      </trkpt>
      <trkpt lat="47.441904963925481" lon="10.547395013272762">
        <ele>2110</ele>
        <time>2011-03-04T00:36:36Z</time>
      </trkpt>
      <trkpt lat="47.441843021661043" lon="10.547355031594634">
        <ele>2110</ele>
        <time>2011-03-04T00:36:39Z</time>
      </trkpt>
      <trkpt lat="47.441787030547857" lon="10.547331981360912">
        <ele>2110</ele>
        <time>2011-03-04T00:36:41Z</time>
      </trkpt>
      <trkpt lat="47.441694997251034" lon="10.547246988862753">
        <ele>2110</ele>
        <time>2011-03-04T00:36:46Z</time>
      </trkpt>
      <trkpt lat="47.441532975062728" lon="10.547193009406328">
        <ele>2110</ele>
        <time>2011-03-04T00:36:52Z</time>
      </trkpt>
      <trkpt lat="47.441457035019994" lon="10.547141041606665">
        <ele>2110</ele>
        <time>2011-03-04T00:36:56Z</time>
      </trkpt>
      <trkpt lat="47.441357960924506" lon="10.547070968896151">
        <ele>2074</ele>
        <time>2011-03-04T00:37:00Z</time>
      </trkpt>
      <trkpt lat="47.441293001174927" lon="10.547042973339558">
        <ele>2074</ele>
        <time>2011-03-04T00:37:03Z</time>
      </trkpt>
      <trkpt lat="47.441238015890121" lon="10.5470269639045">
        <ele>2144</ele>
        <time>2011-03-04T00:37:05Z</time>
      </trkpt>
      <trkpt lat="47.441164003685117" lon="10.546980025246739">
        <ele>2144</ele>
        <time>2011-03-04T00:37:08Z</time>
      </trkpt>
      <trkpt lat="47.441139025613666" lon="10.546967033296824">
        <ele>2144</ele>
        <time>2011-03-04T00:37:09Z</time>
      </trkpt>
      <trkpt lat="47.441069958731532" lon="10.546915987506509">
        <ele>2144</ele>
        <time>2011-03-04T00:37:12Z</time>
      </trkpt>
      <trkpt lat="47.440966023132205" lon="10.546841975301504">
        <ele>2144</ele>
        <time>2011-03-04T00:37:17Z</time>
      </trkpt>
      <trkpt lat="47.440854040905833" lon="10.546781038865447">
        <ele>2144</ele>
        <time>2011-03-04T00:37:22Z</time>
      </trkpt>
      <trkpt lat="47.440850017592311" lon="10.546814985573292">
        <ele>2144</ele>
        <time>2011-03-04T00:37:23Z</time>
      </trkpt>
      <trkpt lat="47.440776005387306" lon="10.546784978359938">
        <ele>2144</ele>
        <time>2011-03-04T00:37:26Z</time>
      </trkpt>
      <trkpt lat="47.440708028152585" lon="10.546772992238402">
        <ele>2144</ele>
        <time>2011-03-04T00:37:28Z</time>
      </trkpt>
      <trkpt lat="47.440690007060766" lon="10.546848010271788">
        <ele>2144</ele>
        <time>2011-03-04T00:37:31Z</time>
      </trkpt>
      <trkpt lat="47.44065597653389" lon="10.546859996393323">
        <ele>2144</ele>
        <time>2011-03-04T00:37:32Z</time>
      </trkpt>
      <trkpt lat="47.440603002905846" lon="10.546794030815363">
        <ele>2144</ele>
        <time>2011-03-04T00:37:35Z</time>
      </trkpt>
      <trkpt lat="47.440494038164616" lon="10.546684982255101">
        <ele>2144</ele>
        <time>2011-03-04T00:37:40Z</time>
      </trkpt>
      <trkpt lat="47.440485991537571" lon="10.54659403860569">
        <ele>2144</ele>
        <time>2011-03-04T00:37:42Z</time>
      </trkpt>
      <trkpt lat="47.440457995980978" lon="10.546539975330234">
        <ele>2144</ele>
        <time>2011-03-04T00:37:44Z</time>
      </trkpt>
      <trkpt lat="47.440387001261115" lon="10.546543998643756">
        <ele>2193</ele>
        <time>2011-03-04T00:37:47Z</time>
      </trkpt>
      <trkpt lat="47.440310977399349" lon="10.546584986150265">
        <ele>2193</ele>
        <time>2011-03-04T00:37:50Z</time>
      </trkpt>
      <trkpt lat="47.440239982679486" lon="10.54657400585711">
        <ele>2193</ele>
        <time>2011-03-04T00:37:53Z</time>
      </trkpt>
      <trkpt lat="47.44022598490119" lon="10.546584986150265">
        <ele>2193</ele>
        <time>2011-03-04T00:37:54Z</time>
      </trkpt>
      <trkpt lat="47.440145015716553" lon="10.54655103944242">
        <ele>2193</ele>
        <time>2011-03-04T00:37:57Z</time>
      </trkpt>
      <trkpt lat="47.440019035711884" lon="10.546437967568636">
        <ele>2193</ele>
        <time>2011-03-04T00:38:03Z</time>
      </trkpt>
      <trkpt lat="47.439890960231423" lon="10.546368984505534">
        <ele>2193</ele>
        <time>2011-03-04T00:38:09Z</time>
      </trkpt>
      <trkpt lat="47.439755005761981" lon="10.546313999220729">
        <ele>2193</ele>
        <time>2011-03-04T00:38:14Z</time>
      </trkpt>
      <trkpt lat="47.439675964415073" lon="10.546335037797689">
        <ele>2193</ele>
        <time>2011-03-04T00:38:17Z</time>
      </trkpt>
      <trkpt lat="47.439615027979016" lon="10.546387005597353">
        <ele>2193</ele>
        <time>2011-03-04T00:38:20Z</time>
      </trkpt>
      <trkpt lat="47.439588960260153" lon="10.546430004760623">
        <ele>2193</ele>
        <time>2011-03-04T00:38:22Z</time>
      </trkpt>
      <trkpt lat="47.439618967473507" lon="10.546446014195681">
        <ele>2193</ele>
        <time>2011-03-04T00:38:23Z</time>
      </trkpt>
      <trkpt lat="47.4396020360291" lon="10.546479960903525">
        <ele>2193</ele>
        <time>2011-03-04T00:38:24Z</time>
      </trkpt>
      <trkpt lat="47.439590971916914" lon="10.546537963673472">
        <ele>2193</ele>
        <time>2011-03-04T00:38:26Z</time>
      </trkpt>
      <trkpt lat="47.439545961096883" lon="10.546588003635406">
        <ele>2235</ele>
        <time>2011-03-04T00:38:28Z</time>
      </trkpt>
      <trkpt lat="47.439513020217419" lon="10.54663997143507">
        <ele>2235</ele>
        <time>2011-03-04T00:38:30Z</time>
      </trkpt>
      <trkpt lat="47.439476978033781" lon="10.546643994748592">
        <ele>2235</ele>
        <time>2011-03-04T00:38:32Z</time>
      </trkpt>
      <trkpt lat="47.439421992748976" lon="10.546608036383986">
        <ele>2235</ele>
        <time>2011-03-04T00:38:34Z</time>
      </trkpt>
      <trkpt lat="47.439384022727609" lon="10.546606024727225">
        <ele>2235</ele>
        <time>2011-03-04T00:38:35Z</time>
      </trkpt>
      <trkpt lat="47.439335994422436" lon="10.546580040827394">
        <ele>2235</ele>
        <time>2011-03-04T00:38:38Z</time>
      </trkpt>
      <trkpt lat="47.439255025237799" lon="10.546516003087163">
        <ele>2235</ele>
        <time>2011-03-04T00:38:41Z</time>
      </trkpt>
      <trkpt lat="47.439240021631122" lon="10.546545004472136">
        <ele>2235</ele>
        <time>2011-03-04T00:38:42Z</time>
      </trkpt>
      <trkpt lat="47.439175983890891" lon="10.546534024178982">
        <ele>2235</ele>
        <time>2011-03-04T00:38:45Z</time>
      </trkpt>
      <trkpt lat="47.439133990556002" lon="10.546522960066795">
        <ele>2235</ele>
        <time>2011-03-04T00:38:46Z</time>
      </trkpt>
      <trkpt lat="47.439084034413099" lon="10.546512985602021">
        <ele>2235</ele>
        <time>2011-03-04T00:38:48Z</time>
      </trkpt>
      <trkpt lat="47.439048998057842" lon="10.546514997258782">
        <ele>2235</ele>
        <time>2011-03-04T00:38:50Z</time>
      </trkpt>
      <trkpt lat="47.438994012773037" lon="10.546427993103862">
        <ele>2235</ele>
        <time>2011-03-04T00:38:53Z</time>
      </trkpt>
      <trkpt lat="47.438951013609767" lon="10.546322967857122">
        <ele>2235</ele>
        <time>2011-03-04T00:38:56Z</time>
      </trkpt>
      <trkpt lat="47.43889301083982" lon="10.546307964250445">
        <ele>2235</ele>
        <time>2011-03-04T00:38:59Z</time>
      </trkpt>
      <trkpt lat="47.438860991969705" lon="10.546331014484167">
        <ele>2235</ele>
        <time>2011-03-04T00:39:00Z</time>
      </trkpt>
      <trkpt lat="47.438783962279558" lon="10.546281980350614">
        <ele>2235</ele>
        <time>2011-03-04T00:39:04Z</time>
      </trkpt>
      <trkpt lat="47.438749009743333" lon="10.546290026977658">
        <ele>2230</ele>
        <time>2011-03-04T00:39:05Z</time>
      </trkpt>
      <trkpt lat="47.438748003914952" lon="10.54627301171422">
        <ele>2230</ele>
        <time>2011-03-04T00:39:05Z</time>
      </trkpt>
      <trkpt lat="47.438746998086572" lon="10.54627301171422">
        <ele>2230</ele>
        <time>2011-03-04T00:39:05Z</time>
      </trkpt>
      <trkpt lat="47.438727971166372" lon="10.546313999220729">
        <ele>2230</ele>
        <time>2011-03-04T00:39:07Z</time>
      </trkpt>
      <trkpt lat="47.438735011965036" lon="10.546317016705871">
        <ele>2230</ele>
        <time>2011-03-04T00:39:07Z</time>
      </trkpt>
      <trkpt lat="47.438734006136656" lon="10.546317016705871">
        <ele>2230</ele>
        <time>2011-03-04T00:39:07Z</time>
      </trkpt>
      <trkpt lat="47.438722020015121" lon="10.54631601087749">
        <ele>2230</ele>
        <time>2011-03-04T00:39:08Z</time>
      </trkpt>
      <trkpt lat="47.438722020015121" lon="10.546315005049109">
        <ele>2230</ele>
        <time>2011-03-04T00:39:08Z</time>
      </trkpt>
      <trkpt lat="47.438659993931651" lon="10.546174021437764">
        <ele>2216</ele>
        <time>2011-03-04T00:39:12Z</time>
      </trkpt>
      <trkpt lat="47.438639039173722" lon="10.546110989525914">
        <ele>2216</ele>
        <time>2011-03-04T00:39:14Z</time>
      </trkpt>
      <trkpt lat="47.438495960086584" lon="10.545945027843118">
        <ele>2216</ele>
        <time>2011-03-04T00:39:21Z</time>
      </trkpt>
      <trkpt lat="47.438438963145018" lon="10.545861963182688">
        <ele>2216</ele>
        <time>2011-03-04T00:39:25Z</time>
      </trkpt>
      <trkpt lat="47.438393030315638" lon="10.545854000374675">
        <ele>2216</ele>
        <time>2011-03-04T00:39:26Z</time>
      </trkpt>
      <trkpt lat="47.438345002010465" lon="10.545894987881184">
        <ele>2216</ele>
        <time>2011-03-04T00:39:29Z</time>
      </trkpt>
      <trkpt lat="47.438311977311969" lon="10.545963970944285">
        <ele>2216</ele>
        <time>2011-03-04T00:39:31Z</time>
      </trkpt>
      <trkpt lat="47.438249029219151" lon="10.545935975387692">
        <ele>2216</ele>
        <time>2011-03-04T00:39:34Z</time>
      </trkpt>
      <trkpt lat="47.438219022005796" lon="10.545941004529595">
        <ele>2216</ele>
        <time>2011-03-04T00:39:35Z</time>
      </trkpt>
      <trkpt lat="47.438246011734009" lon="10.546056004241109">
        <ele>2216</ele>
        <time>2011-03-04T00:39:38Z</time>
      </trkpt>
      <trkpt lat="47.438230002298951" lon="10.546087017282844">
        <ele>2216</ele>
        <time>2011-03-04T00:39:39Z</time>
      </trkpt>
      <trkpt lat="47.438209969550371" lon="10.546006970107555">
        <ele>2216</ele>
        <time>2011-03-04T00:39:41Z</time>
      </trkpt>
      <trkpt lat="47.438175017014146" lon="10.546041000634432">
        <ele>2216</ele>
        <time>2011-03-04T00:39:43Z</time>
      </trkpt>
      <trkpt lat="47.438139980658889" lon="10.546062039211392">
        <ele>2216</ele>
        <time>2011-03-04T00:39:45Z</time>
      </trkpt>
      <trkpt lat="47.438107961788774" lon="10.546079976484179">
        <ele>2216</ele>
        <time>2011-03-04T00:39:46Z</time>
      </trkpt>
      <trkpt lat="47.438097987323999" lon="10.546078970655799">
        <ele>2216</ele>
        <time>2011-03-04T00:39:46Z</time>
      </trkpt>
      <trkpt lat="47.438091030344367" lon="10.546061033383012">
        <ele>2216</ele>
        <time>2011-03-04T00:39:47Z</time>
      </trkpt>
      <trkpt lat="47.438091030344367" lon="10.546060027554631">
        <ele>2216</ele>
        <time>2011-03-04T00:39:47Z</time>
      </trkpt>
      <trkpt lat="47.438091030344367" lon="10.546059021726251">
        <ele>2216</ele>
        <time>2011-03-04T00:39:47Z</time>
      </trkpt>
      <trkpt lat="47.438092036172748" lon="10.546059021726251">
        <ele>2216</ele>
        <time>2011-03-04T00:39:47Z</time>
      </trkpt>
      <trkpt lat="47.438008971512318" lon="10.546010993421078">
        <ele>2216</ele>
        <time>2011-03-04T00:39:51Z</time>
      </trkpt>
      <trkpt lat="47.438000002875924" lon="10.545990038663149">
        <ele>2216</ele>
        <time>2011-03-04T00:39:51Z</time>
      </trkpt>
      <trkpt lat="47.437961027026176" lon="10.545948967337608">
        <ele>2216</ele>
        <time>2011-03-04T00:39:53Z</time>
      </trkpt>
      <trkpt lat="47.437934037297964" lon="10.545875960960984">
        <ele>2216</ele>
        <time>2011-03-04T00:39:56Z</time>
      </trkpt>
      <trkpt lat="47.437865976244211" lon="10.545814018696547">
        <ele>2194</ele>
        <time>2011-03-04T00:39:59Z</time>
      </trkpt>
      <trkpt lat="47.437862958759069" lon="10.545811001211405">
        <ele>2194</ele>
        <time>2011-03-04T00:39:59Z</time>
      </trkpt>
      <trkpt lat="47.437815014272928" lon="10.545801026746631">
        <ele>2194</ele>
        <time>2011-03-04T00:40:01Z</time>
      </trkpt>
      <trkpt lat="47.437817025929689" lon="10.545793985947967">
        <ele>2194</ele>
        <time>2011-03-04T00:40:01Z</time>
      </trkpt>
      <trkpt lat="47.437816020101309" lon="10.545791974291205">
        <ele>2194</ele>
        <time>2011-03-04T00:40:01Z</time>
      </trkpt>
      <trkpt lat="47.437811996787786" lon="10.545748975127935">
        <ele>2194</ele>
        <time>2011-03-04T00:40:02Z</time>
      </trkpt>
      <trkpt lat="47.437770003452897" lon="10.545763978734612">
        <ele>2194</ele>
        <time>2011-03-04T00:40:04Z</time>
      </trkpt>
      <trkpt lat="47.43775499984622" lon="10.545647973194718">
        <ele>2194</ele>
        <time>2011-03-04T00:40:07Z</time>
      </trkpt>
      <trkpt lat="47.437719963490963" lon="10.545657025650144">
        <ele>2194</ele>
        <time>2011-03-04T00:40:09Z</time>
      </trkpt>
      <trkpt lat="47.437730021774769" lon="10.545610003173351">
        <ele>2194</ele>
        <time>2011-03-04T00:40:10Z</time>
      </trkpt>
      <trkpt lat="47.43773203343153" lon="10.545587036758661">
        <ele>2194</ele>
        <time>2011-03-04T00:40:11Z</time>
      </trkpt>
      <trkpt lat="47.43771200068295" lon="10.545557029545307">
        <ele>2194</ele>
        <time>2011-03-04T00:40:12Z</time>
      </trkpt>
      <trkpt lat="47.437703032046556" lon="10.545530961826444">
        <ele>2194</ele>
        <time>2011-03-04T00:40:12Z</time>
      </trkpt>
      <trkpt lat="47.437704037874937" lon="10.54543498903513">
        <ele>2194</ele>
        <time>2011-03-04T00:40:15Z</time>
      </trkpt>
      <trkpt lat="47.437656009569764" lon="10.545400958508253">
        <ele>2146</ele>
        <time>2011-03-04T00:40:17Z</time>
      </trkpt>
      <trkpt lat="47.437606975436211" lon="10.545388972386718">
        <ele>2146</ele>
        <time>2011-03-04T00:40:19Z</time>
      </trkpt>
      <trkpt lat="47.437537992373109" lon="10.545356031507254">
        <ele>2146</ele>
        <time>2011-03-04T00:40:22Z</time>
      </trkpt>
      <trkpt lat="47.437526006251574" lon="10.545314960181713">
        <ele>2146</ele>
        <time>2011-03-04T00:40:23Z</time>
      </trkpt>
      <trkpt lat="47.437546039000154" lon="10.54526399821043">
        <ele>2146</ele>
        <time>2011-03-04T00:40:25Z</time>
      </trkpt>
      <trkpt lat="47.437537992373109" lon="10.545228039845824">
        <ele>2146</ele>
        <time>2011-03-04T00:40:26Z</time>
      </trkpt>
      <trkpt lat="47.437503961846232" lon="10.545143969357014">
        <ele>2146</ele>
        <time>2011-03-04T00:40:29Z</time>
      </trkpt>
      <trkpt lat="47.437515025958419" lon="10.545041039586067">
        <ele>2146</ele>
        <time>2011-03-04T00:40:31Z</time>
      </trkpt>
      <trkpt lat="47.437515025958419" lon="10.545033998787403">
        <ele>2146</ele>
        <time>2011-03-04T00:40:32Z</time>
      </trkpt>
      <trkpt lat="47.437474960461259" lon="10.54500499740243">
        <ele>2146</ele>
        <time>2011-03-04T00:40:33Z</time>
      </trkpt>
      <trkpt lat="47.437450988218188" lon="10.544964009895921">
        <ele>2146</ele>
        <time>2011-03-04T00:40:35Z</time>
      </trkpt>
      <trkpt lat="47.437403965741396" lon="10.544924028217793">
        <ele>2146</ele>
        <time>2011-03-04T00:40:37Z</time>
      </trkpt>
      <trkpt lat="47.437396002933383" lon="10.544879017397761">
        <ele>2146</ele>
        <time>2011-03-04T00:40:38Z</time>
      </trkpt>
      <trkpt lat="47.437388962134719" lon="10.544782960787416">
        <ele>2146</ele>
        <time>2011-03-04T00:40:41Z</time>
      </trkpt>
      <trkpt lat="47.437364989891648" lon="10.544696040451527">
        <ele>2146</ele>
        <time>2011-03-04T00:40:43Z</time>
      </trkpt>
      <trkpt lat="47.437296006828547" lon="10.544701991602778">
        <ele>2146</ele>
        <time>2011-03-04T00:40:46Z</time>
      </trkpt>
      <trkpt lat="47.437234986573458" lon="10.544695034623146">
        <ele>2146</ele>
        <time>2011-03-04T00:40:49Z</time>
      </trkpt>
      <trkpt lat="47.437233980745077" lon="10.54468497633934">
        <ele>2146</ele>
        <time>2011-03-04T00:40:49Z</time>
      </trkpt>
      <trkpt lat="47.437227023765445" lon="10.544578023254871">
        <ele>2100</ele>
        <time>2011-03-04T00:40:52Z</time>
      </trkpt>
      <trkpt lat="47.437160974368453" lon="10.544422036036849">
        <ele>2100</ele>
        <time>2011-03-04T00:40:57Z</time>
      </trkpt>
      <trkpt lat="47.437159968540072" lon="10.544417006894946">
        <ele>2100</ele>
        <time>2011-03-04T00:40:57Z</time>
      </trkpt>
      <trkpt lat="47.437060978263617" lon="10.544293960556388">
        <ele>2124</ele>
        <time>2011-03-04T00:41:02Z</time>
      </trkpt>
      <trkpt lat="47.437042035162449" lon="10.544249033555388">
        <ele>2124</ele>
        <time>2011-03-04T00:41:04Z</time>
      </trkpt>
      <trkpt lat="47.437030971050262" lon="10.544149959459901">
        <ele>2124</ele>
        <time>2011-03-04T00:41:06Z</time>
      </trkpt>
      <trkpt lat="47.436985038220882" lon="10.544078964740038">
        <ele>2124</ele>
        <time>2011-03-04T00:41:09Z</time>
      </trkpt>
      <trkpt lat="47.436955031007528" lon="10.543913003057241">
        <ele>2124</ele>
        <time>2011-03-04T00:41:14Z</time>
      </trkpt>
      <trkpt lat="47.436963999643922" lon="10.5438909586519">
        <ele>2124</ele>
        <time>2011-03-04T00:41:14Z</time>
      </trkpt>
      <trkpt lat="47.437005992978811" lon="10.543833961710334">
        <ele>2124</ele>
        <time>2011-03-04T00:41:17Z</time>
      </trkpt>
      <trkpt lat="47.437082016840577" lon="10.543810995295644">
        <ele>2124</ele>
        <time>2011-03-04T00:41:20Z</time>
      </trkpt>
      <trkpt lat="47.437082016840577" lon="10.543809989467263">
        <ele>2124</ele>
        <time>2011-03-04T00:41:20Z</time>
      </trkpt>
      <trkpt lat="47.437059972435236" lon="10.543808983638883">
        <ele>2124</ele>
        <time>2011-03-04T00:41:21Z</time>
      </trkpt>
      <trkpt lat="47.437081011012197" lon="10.543762966990471">
        <ele>2124</ele>
        <time>2011-03-04T00:41:22Z</time>
      </trkpt>
      <trkpt lat="47.437012027949095" lon="10.543842008337379">
        <ele>2124</ele>
        <time>2011-03-04T00:41:26Z</time>
      </trkpt>
      <trkpt lat="47.436995012685657" lon="10.543819963932037">
        <ele>2124</ele>
        <time>2011-03-04T00:41:26Z</time>
      </trkpt>
      <trkpt lat="47.43698101490736" lon="10.543771013617516">
        <ele>2124</ele>
        <time>2011-03-04T00:41:28Z</time>
      </trkpt>
      <trkpt lat="47.436973974108696" lon="10.543726002797484">
        <ele>2101</ele>
        <time>2011-03-04T00:41:29Z</time>
      </trkpt>
      <trkpt lat="47.436975985765457" lon="10.54371896199882">
        <ele>2101</ele>
        <time>2011-03-04T00:41:29Z</time>
      </trkpt>
      <trkpt lat="47.436950001865625" lon="10.543632041662931">
        <ele>2101</ele>
        <time>2011-03-04T00:41:32Z</time>
      </trkpt>
      <trkpt lat="47.436943966895342" lon="10.543625000864267">
        <ele>2101</ele>
        <time>2011-03-04T00:41:32Z</time>
      </trkpt>
      <trkpt lat="47.436927035450935" lon="10.543511006981134">
        <ele>2101</ele>
        <time>2011-03-04T00:41:35Z</time>
      </trkpt>
      <trkpt lat="47.436907002702355" lon="10.543476976454258">
        <ele>2101</ele>
        <time>2011-03-04T00:41:37Z</time>
      </trkpt>
      <trkpt lat="47.436871966347098" lon="10.543468007817864">
        <ele>2101</ele>
        <time>2011-03-04T00:41:38Z</time>
      </trkpt>
      <trkpt lat="47.436861991882324" lon="10.543397013098001">
        <ele>2101</ele>
        <time>2011-03-04T00:41:40Z</time>
      </trkpt>
      <trkpt lat="47.436792002990842" lon="10.543298022821546">
        <ele>2101</ele>
        <time>2011-03-04T00:41:44Z</time>
      </trkpt>
      <trkpt lat="47.436750009655952" lon="10.543214958161116">
        <ele>2101</ele>
        <time>2011-03-04T00:41:47Z</time>
      </trkpt>
      <trkpt lat="47.436687983572483" lon="10.54311303421855">
        <ele>2101</ele>
        <time>2011-03-04T00:41:50Z</time>
      </trkpt>
      <trkpt lat="47.436678009107709" lon="10.543041033670306">
        <ele>2101</ele>
        <time>2011-03-04T00:41:52Z</time>
      </trkpt>
      <trkpt lat="47.436730982735753" lon="10.542941959574819">
        <ele>2101</ele>
        <time>2011-03-04T00:41:56Z</time>
      </trkpt>
      <trkpt lat="47.436758978292346" lon="10.542826959863305">
        <ele>2076</ele>
        <time>2011-03-04T00:41:59Z</time>
      </trkpt>
      <trkpt lat="47.436754032969475" lon="10.542831989005208">
        <ele>2076</ele>
        <time>2011-03-04T00:41:59Z</time>
      </trkpt>
      <trkpt lat="47.436750009655952" lon="10.542633002623916">
        <ele>2076</ele>
        <time>2011-03-04T00:42:05Z</time>
      </trkpt>
      <trkpt lat="47.436720002442598" lon="10.542501993477345">
        <ele>2076</ele>
        <time>2011-03-04T00:42:09Z</time>
      </trkpt>
      <trkpt lat="47.436734000220895" lon="10.542437033727765">
        <ele>2076</ele>
        <time>2011-03-04T00:42:10Z</time>
      </trkpt>
      <trkpt lat="47.436694018542767" lon="10.542263025417924">
        <ele>2076</ele>
        <time>2011-03-04T00:42:15Z</time>
      </trkpt>
      <trkpt lat="47.436684966087341" lon="10.542262019589543">
        <ele>2076</ele>
        <time>2011-03-04T00:42:16Z</time>
      </trkpt>
      <trkpt lat="47.436685971915722" lon="10.542259002104402">
        <ele>2076</ele>
        <time>2011-03-04T00:42:16Z</time>
      </trkpt>
      <trkpt lat="47.436668034642935" lon="10.542230000719428">
        <ele>2076</ele>
        <time>2011-03-04T00:42:17Z</time>
      </trkpt>
      <trkpt lat="47.436712039634585" lon="10.542128998786211">
        <ele>2076</ele>
        <time>2011-03-04T00:42:20Z</time>
      </trkpt>
      <trkpt lat="47.436730982735753" lon="10.542051969096065">
        <ele>2063</ele>
        <time>2011-03-04T00:42:22Z</time>
      </trkpt>
      <trkpt lat="47.436755960807204" lon="10.542030008509755">
        <ele>2063</ele>
        <time>2011-03-04T00:42:23Z</time>
      </trkpt>
      <trkpt lat="47.436749003827572" lon="10.54195499047637">
        <ele>2063</ele>
        <time>2011-03-04T00:42:26Z</time>
      </trkpt>
      <trkpt lat="47.436753027141094" lon="10.541946021839976">
        <ele>2063</ele>
        <time>2011-03-04T00:42:26Z</time>
      </trkpt>
      <trkpt lat="47.436775993555784" lon="10.541879972442985">
        <ele>2063</ele>
        <time>2011-03-04T00:42:28Z</time>
      </trkpt>
      <trkpt lat="47.436796026304364" lon="10.541791962459683">
        <ele>2063</ele>
        <time>2011-03-04T00:42:30Z</time>
      </trkpt>
      <trkpt lat="47.436829973012209" lon="10.541660031303763">
        <ele>2063</ele>
        <time>2011-03-04T00:42:34Z</time>
      </trkpt>
      <trkpt lat="47.436881018802524" lon="10.541450986638665">
        <ele>2063</ele>
        <time>2011-03-04T00:42:40Z</time>
      </trkpt>
      <trkpt lat="47.436911026015878" lon="10.541247976943851">
        <ele>2057</ele>
        <time>2011-03-04T00:42:46Z</time>
      </trkpt>
      <trkpt lat="47.436927035450935" lon="10.541145969182253">
        <ele>2057</ele>
        <time>2011-03-04T00:42:49Z</time>
      </trkpt>
      <trkpt lat="47.436939021572471" lon="10.541085032746196">
        <ele>2057</ele>
        <time>2011-03-04T00:42:50Z</time>
      </trkpt>
      <trkpt lat="47.436983026564121" lon="10.54094597697258">
        <ele>2057</ele>
        <time>2011-03-04T00:42:55Z</time>
      </trkpt>
      <trkpt lat="47.436974979937077" lon="10.540940025821328">
        <ele>2057</ele>
        <time>2011-03-04T00:42:55Z</time>
      </trkpt>
      <trkpt lat="47.436985038220882" lon="10.540760988369584">
        <ele>2057</ele>
        <time>2011-03-04T00:43:00Z</time>
      </trkpt>
      <trkpt lat="47.436976991593838" lon="10.540702985599637">
        <ele>2057</ele>
        <time>2011-03-04T00:43:01Z</time>
      </trkpt>
      <trkpt lat="47.436969028785825" lon="10.540607012808323">
        <ele>2057</ele>
        <time>2011-03-04T00:43:04Z</time>
      </trkpt>
      <trkpt lat="47.436972968280315" lon="10.540554961189628">
        <ele>2057</ele>
        <time>2011-03-04T00:43:05Z</time>
      </trkpt>
      <trkpt lat="47.436974979937077" lon="10.540543980896473">
        <ele>2057</ele>
        <time>2011-03-04T00:43:06Z</time>
      </trkpt>
      <trkpt lat="47.436968022957444" lon="10.540488995611668">
        <ele>2057</ele>
        <time>2011-03-04T00:43:07Z</time>
      </trkpt>
      <trkpt lat="47.436956036835909" lon="10.54040702059865">
        <ele>2040</ele>
        <time>2011-03-04T00:43:09Z</time>
      </trkpt>
      <trkpt lat="47.436969028785825" lon="10.540393022820354">
        <ele>2040</ele>
        <time>2011-03-04T00:43:10Z</time>
      </trkpt>
      <trkpt lat="47.436977997422218" lon="10.540296966210008">
        <ele>2040</ele>
        <time>2011-03-04T00:43:13Z</time>
      </trkpt>
      <trkpt lat="47.436974979937077" lon="10.540241980925202">
        <ele>2040</ele>
        <time>2011-03-04T00:43:14Z</time>
      </trkpt>
      <trkpt lat="47.436921000480652" lon="10.540238041430712">
        <ele>2040</ele>
        <time>2011-03-04T00:43:16Z</time>
      </trkpt>
      <trkpt lat="47.436915971338749" lon="10.540239969268441">
        <ele>2040</ele>
        <time>2011-03-04T00:43:17Z</time>
      </trkpt>
      <trkpt lat="47.436822010204196" lon="10.540250027552247">
        <ele>2040</ele>
        <time>2011-03-04T00:43:20Z</time>
      </trkpt>
      <trkpt lat="47.436740035191178" lon="10.540157994255424">
        <ele>2040</ele>
        <time>2011-03-04T00:43:25Z</time>
      </trkpt>
      <trkpt lat="47.436665017157793" lon="10.540108038112521">
        <ele>2040</ele>
        <time>2011-03-04T00:43:28Z</time>
      </trkpt>
      <trkpt lat="47.436513975262642" lon="10.54002002812922">
        <ele>2040</ele>
        <time>2011-03-04T00:43:34Z</time>
      </trkpt>
      <trkpt lat="47.43640199303627" lon="10.539892958477139">
        <ele>2040</ele>
        <time>2011-03-04T00:43:40Z</time>
      </trkpt>
      <trkpt lat="47.436402998864651" lon="10.539849959313869">
        <ele>2040</ele>
        <time>2011-03-04T00:43:41Z</time>
      </trkpt>
      <trkpt lat="47.436347007751465" lon="10.539705958217382">
        <ele>2040</ele>
        <time>2011-03-04T00:43:46Z</time>
      </trkpt>
      <trkpt lat="47.436325969174504" lon="10.539647033438087">
        <ele>2040</ele>
        <time>2011-03-04T00:43:47Z</time>
      </trkpt>
      <trkpt lat="47.436296967789531" lon="10.539431031793356">
        <ele>2019</ele>
        <time>2011-03-04T00:43:53Z</time>
      </trkpt>
      <trkpt lat="47.436220021918416" lon="10.539212012663484">
        <ele>2058</ele>
        <time>2011-03-04T00:44:00Z</time>
      </trkpt>
      <trkpt lat="47.436196971684694" lon="10.53909600712359">
        <ele>2058</ele>
        <time>2011-03-04T00:44:03Z</time>
      </trkpt>
      <trkpt lat="47.436196971684694" lon="10.539093995466828">
        <ele>2058</ele>
        <time>2011-03-04T00:44:03Z</time>
      </trkpt>
      <trkpt lat="47.436194038018584" lon="10.539103969931602">
        <ele>2058</ele>
        <time>2011-03-04T00:44:04Z</time>
      </trkpt>
      <trkpt lat="47.436194038018584" lon="10.539102964103222">
        <ele>2058</ele>
        <time>2011-03-04T00:44:04Z</time>
      </trkpt>
      <trkpt lat="47.436194960027933" lon="10.539103969931602">
        <ele>2058</ele>
        <time>2011-03-04T00:44:04Z</time>
      </trkpt>
      <trkpt lat="47.43612396530807" lon="10.538962986320257">
        <ele>2058</ele>
        <time>2011-03-04T00:44:09Z</time>
      </trkpt>
      <trkpt lat="47.436090018600225" lon="10.538785038515925">
        <ele>2058</ele>
        <time>2011-03-04T00:44:14Z</time>
      </trkpt>
      <trkpt lat="47.43599496781826" lon="10.538617987185717">
        <ele>2087</ele>
        <time>2011-03-04T00:44:19Z</time>
      </trkpt>
      <trkpt lat="47.435921039432287" lon="10.538478009402752">
        <ele>2087</ele>
        <time>2011-03-04T00:44:24Z</time>
      </trkpt>
      <trkpt lat="47.435911986976862" lon="10.538467029109597">
        <ele>2087</ele>
        <time>2011-03-04T00:44:25Z</time>
      </trkpt>
      <trkpt lat="47.435803022235632" lon="10.538382036611438">
        <ele>2087</ele>
        <time>2011-03-04T00:44:30Z</time>
      </trkpt>
      <trkpt lat="47.435740996152163" lon="10.538213979452848">
        <ele>2087</ele>
        <time>2011-03-04T00:44:35Z</time>
      </trkpt>
      <trkpt lat="47.435743007808924" lon="10.538224959746003">
        <ele>2087</ele>
        <time>2011-03-04T00:44:35Z</time>
      </trkpt>
      <trkpt lat="47.435708977282047" lon="10.538168968632817">
        <ele>2087</ele>
        <time>2011-03-04T00:44:37Z</time>
      </trkpt>
      <trkpt lat="47.435514014214277" lon="10.53795799612999">
        <ele>2087</ele>
        <time>2011-03-04T00:44:47Z</time>
      </trkpt>
      <trkpt lat="47.4353919737041" lon="10.537815000861883">
        <ele>2107</ele>
        <time>2011-03-04T00:44:53Z</time>
      </trkpt>
      <trkpt lat="47.435287032276392" lon="10.537718022242188">
        <ele>2107</ele>
        <time>2011-03-04T00:44:58Z</time>
      </trkpt>
      <trkpt lat="47.435230035334826" lon="10.537654990330338">
        <ele>2107</ele>
        <time>2011-03-04T00:45:01Z</time>
      </trkpt>
      <trkpt lat="47.435118975117803" lon="10.537490034475923">
        <ele>2107</ele>
        <time>2011-03-04T00:45:07Z</time>
      </trkpt>
      <trkpt lat="47.434996012598276" lon="10.537307979539037">
        <ele>2107</ele>
        <time>2011-03-04T00:45:14Z</time>
      </trkpt>
      <trkpt lat="47.434871960431337" lon="10.537174036726356">
        <ele>2107</ele>
        <time>2011-03-04T00:45:20Z</time>
      </trkpt>
      <trkpt lat="47.43476802483201" lon="10.537066999822855">
        <ele>2129</ele>
        <time>2011-03-04T00:45:25Z</time>
      </trkpt>
      <trkpt lat="47.434716979041696" lon="10.537005979567766">
        <ele>2129</ele>
        <time>2011-03-04T00:45:28Z</time>
      </trkpt>
      <trkpt lat="47.434602985158563" lon="10.53684102371335">
        <ele>2129</ele>
        <time>2011-03-04T00:45:34Z</time>
      </trkpt>
      <trkpt lat="47.434497037902474" lon="10.536796012893319">
        <ele>2119</ele>
        <time>2011-03-04T00:45:39Z</time>
      </trkpt>
      <trkpt lat="47.434379020705819" lon="10.536801964044571">
        <ele>2119</ele>
        <time>2011-03-04T00:45:44Z</time>
      </trkpt>
      <trkpt lat="47.434266032651067" lon="10.536743039265275">
        <ele>2119</ele>
        <time>2011-03-04T00:45:48Z</time>
      </trkpt>
      <trkpt lat="47.434192020446062" lon="10.536660980433226">
        <ele>2119</ele>
        <time>2011-03-04T00:45:52Z</time>
      </trkpt>
      <trkpt lat="47.434218004345894" lon="10.536593003198504">
        <ele>2119</ele>
        <time>2011-03-04T00:45:54Z</time>
      </trkpt>
      <trkpt lat="47.434177016839385" lon="10.536538017913699">
        <ele>2119</ele>
        <time>2011-03-04T00:45:56Z</time>
      </trkpt>
      <trkpt lat="47.434154972434044" lon="10.536470962688327">
        <ele>2119</ele>
        <time>2011-03-04T00:45:58Z</time>
      </trkpt>
      <trkpt lat="47.434220016002655" lon="10.536340037360787">
        <ele>2119</ele>
        <time>2011-03-04T00:46:03Z</time>
      </trkpt>
      <trkpt lat="47.434241976588964" lon="10.536298966035247">
        <ele>2119</ele>
        <time>2011-03-04T00:46:04Z</time>
      </trkpt>
      <trkpt lat="47.434311965480447" lon="10.536187989637256">
        <ele>2092</ele>
        <time>2011-03-04T00:46:08Z</time>
      </trkpt>
      <trkpt lat="47.43431699462235" lon="10.536172986030579">
        <ele>2092</ele>
        <time>2011-03-04T00:46:09Z</time>
      </trkpt>
      <trkpt lat="47.434321017935872" lon="10.536163011565804">
        <ele>2092</ele>
        <time>2011-03-04T00:46:09Z</time>
      </trkpt>
      <trkpt lat="47.434392012655735" lon="10.536038959398866">
        <ele>2092</ele>
        <time>2011-03-04T00:46:13Z</time>
      </trkpt>
      <trkpt lat="47.434448003768921" lon="10.535934017971158">
        <ele>2092</ele>
        <time>2011-03-04T00:46:17Z</time>
      </trkpt>
      <trkpt lat="47.434441968798637" lon="10.535676022991538">
        <ele>2092</ele>
        <time>2011-03-04T00:46:24Z</time>
      </trkpt>
      <trkpt lat="47.434427971020341" lon="10.535642998293042">
        <ele>2092</ele>
        <time>2011-03-04T00:46:25Z</time>
      </trkpt>
      <trkpt lat="47.434431994333863" lon="10.535599999129772">
        <ele>2092</ele>
        <time>2011-03-04T00:46:26Z</time>
      </trkpt>
      <trkpt lat="47.434393018484116" lon="10.535549037158489">
        <ele>2092</ele>
        <time>2011-03-04T00:46:28Z</time>
      </trkpt>
      <trkpt lat="47.434357982128859" lon="10.535537973046303">
        <ele>2092</ele>
        <time>2011-03-04T00:46:30Z</time>
      </trkpt>
      <trkpt lat="47.434339039027691" lon="10.535512994974852">
        <ele>2092</ele>
        <time>2011-03-04T00:46:31Z</time>
      </trkpt>
      <trkpt lat="47.43429696187377" lon="10.535507965832949">
        <ele>2092</ele>
        <time>2011-03-04T00:46:33Z</time>
      </trkpt>
      <trkpt lat="47.434307020157576" lon="10.535475024953485">
        <ele>2092</ele>
        <time>2011-03-04T00:46:34Z</time>
      </trkpt>
      <trkpt lat="47.43429503403604" lon="10.535418028011918">
        <ele>2092</ele>
        <time>2011-03-04T00:46:35Z</time>
      </trkpt>
      <trkpt lat="47.434267960488796" lon="10.535406963899732">
        <ele>2081</ele>
        <time>2011-03-04T00:46:36Z</time>
      </trkpt>
      <trkpt lat="47.434224961325526" lon="10.535343009978533">
        <ele>2081</ele>
        <time>2011-03-04T00:46:39Z</time>
      </trkpt>
      <trkpt lat="47.434183973819017" lon="10.535299004986882">
        <ele>2081</ele>
        <time>2011-03-04T00:46:41Z</time>
      </trkpt>
      <trkpt lat="47.434177016839385" lon="10.535282995551825">
        <ele>2081</ele>
        <time>2011-03-04T00:46:41Z</time>
      </trkpt>
      <trkpt lat="47.434135023504496" lon="10.535220969468355">
        <ele>2081</ele>
        <time>2011-03-04T00:46:44Z</time>
      </trkpt>
      <trkpt lat="47.434089006856084" lon="10.535150980576873">
        <ele>2081</ele>
        <time>2011-03-04T00:46:46Z</time>
      </trkpt>
      <trkpt lat="47.434053970500827" lon="10.53507998585701">
        <ele>2081</ele>
        <time>2011-03-04T00:46:49Z</time>
      </trkpt>
      <trkpt lat="47.434011977165937" lon="10.535119967535138">
        <ele>2081</ele>
        <time>2011-03-04T00:46:51Z</time>
      </trkpt>
      <trkpt lat="47.433990016579628" lon="10.535025000572205">
        <ele>2081</ele>
        <time>2011-03-04T00:46:53Z</time>
      </trkpt>
      <trkpt lat="47.433970989659429" lon="10.534949982538819">
        <ele>2081</ele>
        <time>2011-03-04T00:46:56Z</time>
      </trkpt>
      <trkpt lat="47.433942994102836" lon="10.534878987818956">
        <ele>2081</ele>
        <time>2011-03-04T00:46:58Z</time>
      </trkpt>
      <trkpt lat="47.433923967182636" lon="10.534775974228978">
        <ele>2081</ele>
        <time>2011-03-04T00:47:01Z</time>
      </trkpt>
      <trkpt lat="47.433897983282804" lon="10.534504987299442">
        <ele>2074</ele>
        <time>2011-03-04T00:47:08Z</time>
      </trkpt>
      <trkpt lat="47.433899994939566" lon="10.534380013123155">
        <ele>2074</ele>
        <time>2011-03-04T00:47:11Z</time>
      </trkpt>
      <trkpt lat="47.433896977454424" lon="10.53437196649611">
        <ele>2074</ele>
        <time>2011-03-04T00:47:12Z</time>
      </trkpt>
      <trkpt lat="47.43386797606945" lon="10.534295020624995">
        <ele>2074</ele>
        <time>2011-03-04T00:47:14Z</time>
      </trkpt>
      <trkpt lat="47.433834029361606" lon="10.534125035628676">
        <ele>2074</ele>
        <time>2011-03-04T00:47:19Z</time>
      </trkpt>
      <trkpt lat="47.433834029361606" lon="10.534093016758561">
        <ele>2074</ele>
        <time>2011-03-04T00:47:20Z</time>
      </trkpt>
      <trkpt lat="47.433833023533225" lon="10.533921020105481">
        <ele>2074</ele>
        <time>2011-03-04T00:47:24Z</time>
      </trkpt>
      <trkpt lat="47.433812990784645" lon="10.533846002072096">
        <ele>2074</ele>
        <time>2011-03-04T00:47:27Z</time>
      </trkpt>
      <trkpt lat="47.433840986341238" lon="10.533567974343896">
        <ele>2062</ele>
        <time>2011-03-04T00:47:34Z</time>
      </trkpt>
      <trkpt lat="47.433836963027716" lon="10.533224986866117">
        <ele>2062</ele>
        <time>2011-03-04T00:47:43Z</time>
      </trkpt>
      <trkpt lat="47.433908963575959" lon="10.532922986894846">
        <ele>2062</ele>
        <time>2011-03-04T00:47:52Z</time>
      </trkpt>
      <trkpt lat="47.433917010203004" lon="10.532756019383669">
        <ele>2076</ele>
        <time>2011-03-04T00:47:57Z</time>
      </trkpt>
      <trkpt lat="47.433906029909849" lon="10.532686030492187">
        <ele>2076</ele>
        <time>2011-03-04T00:47:59Z</time>
      </trkpt>
      <trkpt lat="47.433856995776296" lon="10.53245997056365">
        <ele>2076</ele>
        <time>2011-03-04T00:48:05Z</time>
      </trkpt>
      <trkpt lat="47.433804022148252" lon="10.532192001119256">
        <ele>2076</ele>
        <time>2011-03-04T00:48:13Z</time>
      </trkpt>
      <trkpt lat="47.43375901132822" lon="10.532149001955986">
        <ele>2076</ele>
        <time>2011-03-04T00:48:15Z</time>
      </trkpt>
      <trkpt lat="47.433734033256769" lon="10.532113965600729">
        <ele>2002</ele>
        <time>2011-03-04T00:48:16Z</time>
      </trkpt>
      <trkpt lat="47.433697991073132" lon="10.531742982566357">
        <ele>2013</ele>
        <time>2011-03-04T00:48:26Z</time>
      </trkpt>
      <trkpt lat="47.43364904075861" lon="10.531425978988409">
        <ele>2013</ele>
        <time>2011-03-04T00:48:35Z</time>
      </trkpt>
      <trkpt lat="47.433531023561954" lon="10.531193967908621">
        <ele>2005</ele>
        <time>2011-03-04T00:48:43Z</time>
      </trkpt>
      <trkpt lat="47.43352297693491" lon="10.53114996291697">
        <ele>2005</ele>
        <time>2011-03-04T00:48:44Z</time>
      </trkpt>
      <trkpt lat="47.433561030775309" lon="10.530966985970736">
        <ele>2005</ele>
        <time>2011-03-04T00:48:49Z</time>
      </trkpt>
      <trkpt lat="47.43356597609818" lon="10.530935972929001">
        <ele>2005</ele>
        <time>2011-03-04T00:48:50Z</time>
      </trkpt>
      <trkpt lat="47.433744007721543" lon="10.530603965744376">
        <ele>2005</ele>
        <time>2011-03-04T00:49:02Z</time>
      </trkpt>
      <trkpt lat="47.433743001893163" lon="10.53058996796608">
        <ele>2005</ele>
        <time>2011-03-04T00:49:02Z</time>
      </trkpt>
      <trkpt lat="47.433753982186317" lon="10.530297020450234">
        <ele>2034</ele>
        <time>2011-03-04T00:49:10Z</time>
      </trkpt>
      <trkpt lat="47.433793041855097" lon="10.529983034357429">
        <ele>2034</ele>
        <time>2011-03-04T00:49:19Z</time>
      </trkpt>
      <trkpt lat="47.433705031871796" lon="10.529786981642246">
        <ele>1991</ele>
        <time>2011-03-04T00:49:25Z</time>
      </trkpt>
      <trkpt lat="47.433641999959946" lon="10.52962495945394">
        <ele>1991</ele>
        <time>2011-03-04T00:49:30Z</time>
      </trkpt>
      <trkpt lat="47.433633031323552" lon="10.52951599471271">
        <ele>2008</ele>
        <time>2011-03-04T00:49:33Z</time>
      </trkpt>
      <trkpt lat="47.433577962219715" lon="10.529224975034595">
        <ele>2008</ele>
        <time>2011-03-04T00:49:41Z</time>
      </trkpt>
      <trkpt lat="47.433542003855109" lon="10.529203014448285">
        <ele>2008</ele>
        <time>2011-03-04T00:49:43Z</time>
      </trkpt>
      <trkpt lat="47.433528006076813" lon="10.529195973649621">
        <ele>2008</ele>
        <time>2011-03-04T00:49:43Z</time>
      </trkpt>
      <trkpt lat="47.433447958901525" lon="10.529116010293365">
        <ele>2008</ele>
        <time>2011-03-04T00:49:47Z</time>
      </trkpt>
      <trkpt lat="47.433442007750273" lon="10.529057001695037">
        <ele>2008</ele>
        <time>2011-03-04T00:49:49Z</time>
      </trkpt>
      <trkpt lat="47.433438990265131" lon="10.528760030865669">
        <ele>2008</ele>
        <time>2011-03-04T00:49:57Z</time>
      </trkpt>
      <trkpt lat="47.433448964729905" lon="10.528718959540129">
        <ele>1981</ele>
        <time>2011-03-04T00:49:58Z</time>
      </trkpt>
      <trkpt lat="47.433456005528569" lon="10.528663974255323">
        <ele>1981</ele>
        <time>2011-03-04T00:50:00Z</time>
      </trkpt>
      <trkpt lat="47.433473020792007" lon="10.52857001312077">
        <ele>1981</ele>
        <time>2011-03-04T00:50:02Z</time>
      </trkpt>
      <trkpt lat="47.433495987206697" lon="10.528393993154168">
        <ele>1981</ele>
        <time>2011-03-04T00:50:07Z</time>
      </trkpt>
      <trkpt lat="47.433548960834742" lon="10.528283016756177">
        <ele>1981</ele>
        <time>2011-03-04T00:50:11Z</time>
      </trkpt>
      <trkpt lat="47.433548038825393" lon="10.528275975957513">
        <ele>1981</ele>
        <time>2011-03-04T00:50:11Z</time>
      </trkpt>
      <trkpt lat="47.43367301300168" lon="10.528249992057681">
        <ele>1981</ele>
        <time>2011-03-04T00:50:16Z</time>
      </trkpt>
      <trkpt lat="47.433752976357937" lon="10.528217973187566">
        <ele>2006</ele>
        <time>2011-03-04T00:50:19Z</time>
      </trkpt>
      <trkpt lat="47.433750964701176" lon="10.528205987066031">
        <ele>2006</ele>
        <time>2011-03-04T00:50:20Z</time>
      </trkpt>
      <trkpt lat="47.433804022148252" lon="10.528029967099428">
        <ele>2006</ele>
        <time>2011-03-04T00:50:25Z</time>
      </trkpt>
      <trkpt lat="47.433818019926548" lon="10.527964001521468">
        <ele>2006</ele>
        <time>2011-03-04T00:50:27Z</time>
      </trkpt>
      <trkpt lat="47.433835035189986" lon="10.527710029855371">
        <ele>1977</ele>
        <time>2011-03-04T00:50:34Z</time>
      </trkpt>
      <trkpt lat="47.433832017704844" lon="10.527683962136507">
        <ele>1977</ele>
        <time>2011-03-04T00:50:34Z</time>
      </trkpt>
      <trkpt lat="47.433835035189986" lon="10.527670970186591">
        <ele>1977</ele>
        <time>2011-03-04T00:50:35Z</time>
      </trkpt>
      <trkpt lat="47.433862024918199" lon="10.527461003512144">
        <ele>1977</ele>
        <time>2011-03-04T00:50:41Z</time>
      </trkpt>
      <trkpt lat="47.433898989111185" lon="10.527429990470409">
        <ele>1977</ele>
        <time>2011-03-04T00:50:42Z</time>
      </trkpt>
      <trkpt lat="47.434029998257756" lon="10.527313984930515">
        <ele>1977</ele>
        <time>2011-03-04T00:50:48Z</time>
      </trkpt>
      <trkpt lat="47.434129994362593" lon="10.52721600048244">
        <ele>1977</ele>
        <time>2011-03-04T00:50:53Z</time>
      </trkpt>
      <trkpt lat="47.43420802988112" lon="10.527162021026015">
        <ele>1977</ele>
        <time>2011-03-04T00:50:57Z</time>
      </trkpt>
      <trkpt lat="47.434191014617682" lon="10.527075016871095">
        <ele>1945</ele>
        <time>2011-03-04T00:50:59Z</time>
      </trkpt>
      <trkpt lat="47.434201994910836" lon="10.527038974687457">
        <ele>1945</ele>
        <time>2011-03-04T00:51:00Z</time>
      </trkpt>
      <trkpt lat="47.434199983254075" lon="10.526992036029696">
        <ele>1945</ele>
        <time>2011-03-04T00:51:01Z</time>
      </trkpt>
      <trkpt lat="47.434224039316177" lon="10.526952976360917">
        <ele>1945</ele>
        <time>2011-03-04T00:51:03Z</time>
      </trkpt>
      <trkpt lat="47.434240970760584" lon="10.526946019381285">
        <ele>1945</ele>
        <time>2011-03-04T00:51:04Z</time>
      </trkpt>
      <trkpt lat="47.434292016550899" lon="10.526863960549235">
        <ele>1945</ele>
        <time>2011-03-04T00:51:07Z</time>
      </trkpt>
      <trkpt lat="47.43431699462235" lon="10.526814004406333">
        <ele>1945</ele>
        <time>2011-03-04T00:51:08Z</time>
      </trkpt>
      <trkpt lat="47.434328980743885" lon="10.526760024949908">
        <ele>1945</ele>
        <time>2011-03-04T00:51:10Z</time>
      </trkpt>
      <trkpt lat="47.434329986572266" lon="10.526739992201328">
        <ele>1945</ele>
        <time>2011-03-04T00:51:10Z</time>
      </trkpt>
      <trkpt lat="47.434335015714169" lon="10.526546034961939">
        <ele>1945</ele>
        <time>2011-03-04T00:51:16Z</time>
      </trkpt>
      <trkpt lat="47.434326969087124" lon="10.526405973359942">
        <ele>1945</ele>
        <time>2011-03-04T00:51:19Z</time>
      </trkpt>
      <trkpt lat="47.43435999378562" lon="10.526299020275474">
        <ele>1945</ele>
        <time>2011-03-04T00:51:23Z</time>
      </trkpt>
      <trkpt lat="47.434382038190961" lon="10.526236994192004">
        <ele>1913</ele>
        <time>2011-03-04T00:51:24Z</time>
      </trkpt>
      <trkpt lat="47.43442696519196" lon="10.526096010580659">
        <ele>1913</ele>
        <time>2011-03-04T00:51:29Z</time>
      </trkpt>
      <trkpt lat="47.43442696519196" lon="10.526083018630743">
        <ele>1913</ele>
        <time>2011-03-04T00:51:29Z</time>
      </trkpt>
      <trkpt lat="47.434439035132527" lon="10.525936000049114">
        <ele>1913</ele>
        <time>2011-03-04T00:51:33Z</time>
      </trkpt>
      <trkpt lat="47.434559985995293" lon="10.525766015052795">
        <ele>1913</ele>
        <time>2011-03-04T00:51:40Z</time>
      </trkpt>
      <trkpt lat="47.43459502235055" lon="10.525686973705888">
        <ele>1942</ele>
        <time>2011-03-04T00:51:42Z</time>
      </trkpt>
      <trkpt lat="47.434690995141864" lon="10.52560499869287">
        <ele>1942</ele>
        <time>2011-03-04T00:51:47Z</time>
      </trkpt>
      <trkpt lat="47.434709016233683" lon="10.525607010349631">
        <ele>1942</ele>
        <time>2011-03-04T00:51:47Z</time>
      </trkpt>
      <trkpt lat="47.434735000133514" lon="10.525524029508233">
        <ele>1942</ele>
        <time>2011-03-04T00:51:50Z</time>
      </trkpt>
      <trkpt lat="47.434775987640023" lon="10.525437025353312">
        <ele>1942</ele>
        <time>2011-03-04T00:51:53Z</time>
      </trkpt>
      <trkpt lat="47.434788979589939" lon="10.52539000287652">
        <ele>1950</ele>
        <time>2011-03-04T00:51:54Z</time>
      </trkpt>
      <trkpt lat="47.4347909912467" lon="10.52538899704814">
        <ele>1950</ele>
        <time>2011-03-04T00:51:54Z</time>
      </trkpt>
      <trkpt lat="47.434796020388603" lon="10.525396959856153">
        <ele>1950</ele>
        <time>2011-03-04T00:51:55Z</time>
      </trkpt>
      <trkpt lat="47.434796020388603" lon="10.525397965684533">
        <ele>1950</ele>
        <time>2011-03-04T00:51:55Z</time>
      </trkpt>
      <trkpt lat="47.434761989861727" lon="10.52549502812326">
        <ele>1942</ele>
        <time>2011-03-04T00:51:58Z</time>
      </trkpt>
      <trkpt lat="47.434739023447037" lon="10.525516988709569">
        <ele>1942</ele>
        <time>2011-03-04T00:51:59Z</time>
      </trkpt>
      <trkpt lat="47.434709016233683" lon="10.525586977601051">
        <ele>1942</ele>
        <time>2011-03-04T00:52:01Z</time>
      </trkpt>
      <trkpt lat="47.434765007346869" lon="10.525597035884857">
        <ele>1942</ele>
        <time>2011-03-04T00:52:03Z</time>
      </trkpt>
      <trkpt lat="47.43477095849812" lon="10.525615978986025">
        <ele>1942</ele>
        <time>2011-03-04T00:52:04Z</time>
      </trkpt>
      <trkpt lat="47.43483298458159" lon="10.525614973157644">
        <ele>1942</ele>
        <time>2011-03-04T00:52:06Z</time>
      </trkpt>
      <trkpt lat="47.434839019551873" lon="10.525615978986025">
        <ele>1942</ele>
        <time>2011-03-04T00:52:06Z</time>
      </trkpt>
      <trkpt lat="47.434866009280086" lon="10.525626037269831">
        <ele>1942</ele>
        <time>2011-03-04T00:52:08Z</time>
      </trkpt>
      <trkpt lat="47.434930969029665" lon="10.525574991479516">
        <ele>1942</ele>
        <time>2011-03-04T00:52:11Z</time>
      </trkpt>
      <trkpt lat="47.434944966807961" lon="10.52556099370122">
        <ele>1942</ele>
        <time>2011-03-04T00:52:11Z</time>
      </trkpt>
      <trkpt lat="47.434976985678077" lon="10.525521012023091">
        <ele>1942</ele>
        <time>2011-03-04T00:52:13Z</time>
      </trkpt>
      <trkpt lat="47.434999030083418" lon="10.525468038395047">
        <ele>1942</ele>
        <time>2011-03-04T00:52:15Z</time>
      </trkpt>
      <trkpt lat="47.435061978176236" lon="10.525446999818087">
        <ele>1942</ele>
        <time>2011-03-04T00:52:17Z</time>
      </trkpt>
      <trkpt lat="47.435101037845016" lon="10.525370975956321">
        <ele>1950</ele>
        <time>2011-03-04T00:52:20Z</time>
      </trkpt>
      <trkpt lat="47.435101037845016" lon="10.525367958471179">
        <ele>1950</ele>
        <time>2011-03-04T00:52:20Z</time>
      </trkpt>
      <trkpt lat="47.435161974281073" lon="10.525322025641799">
        <ele>1950</ele>
        <time>2011-03-04T00:52:23Z</time>
      </trkpt>
      <trkpt lat="47.435207990929484" lon="10.525300987064838">
        <ele>1950</ele>
        <time>2011-03-04T00:52:24Z</time>
      </trkpt>
      <trkpt lat="47.435243027284741" lon="10.525277014821768">
        <ele>1950</ele>
        <time>2011-03-04T00:52:26Z</time>
      </trkpt>
      <trkpt lat="47.435288038104773" lon="10.525211971253157">
        <ele>1950</ele>
        <time>2011-03-04T00:52:29Z</time>
      </trkpt>
      <trkpt lat="47.435294995084405" lon="10.525180958211422">
        <ele>1950</ele>
        <time>2011-03-04T00:52:29Z</time>
      </trkpt>
      <trkpt lat="47.435372024774551" lon="10.52506503649056">
        <ele>1950</ele>
        <time>2011-03-04T00:52:34Z</time>
      </trkpt>
      <trkpt lat="47.435386022552848" lon="10.525050032883883">
        <ele>1950</ele>
        <time>2011-03-04T00:52:34Z</time>
      </trkpt>
      <trkpt lat="47.435415023937821" lon="10.525010973215103">
        <ele>1950</ele>
        <time>2011-03-04T00:52:36Z</time>
      </trkpt>
      <trkpt lat="47.435458023101091" lon="10.52493897266686">
        <ele>1897</ele>
        <time>2011-03-04T00:52:39Z</time>
      </trkpt>
      <trkpt lat="47.4355180375278" lon="10.524855991825461">
        <ele>1897</ele>
        <time>2011-03-04T00:52:42Z</time>
      </trkpt>
      <trkpt lat="47.435605963692069" lon="10.524775022640824">
        <ele>1897</ele>
        <time>2011-03-04T00:52:46Z</time>
      </trkpt>
      <trkpt lat="47.435610992833972" lon="10.524768987670541">
        <ele>1897</ele>
        <time>2011-03-04T00:52:46Z</time>
      </trkpt>
      <trkpt lat="47.435666983947158" lon="10.524703022092581">
        <ele>1897</ele>
        <time>2011-03-04T00:52:49Z</time>
      </trkpt>
      <trkpt lat="47.435678970068693" lon="10.524686006829143">
        <ele>1897</ele>
        <time>2011-03-04T00:52:50Z</time>
      </trkpt>
      <trkpt lat="47.435696991160512" lon="10.524667985737324">
        <ele>1897</ele>
        <time>2011-03-04T00:52:51Z</time>
      </trkpt>
      <trkpt lat="47.435758011415601" lon="10.524581987410784">
        <ele>1915</ele>
        <time>2011-03-04T00:52:54Z</time>
      </trkpt>
      <trkpt lat="47.435811990872025" lon="10.524432035163045">
        <ele>1915</ele>
        <time>2011-03-04T00:52:59Z</time>
      </trkpt>
      <trkpt lat="47.435923973098397" lon="10.52425199188292">
        <ele>1915</ele>
        <time>2011-03-04T00:53:05Z</time>
      </trkpt>
      <trkpt lat="47.435925984755158" lon="10.524179991334677">
        <ele>1915</ele>
        <time>2011-03-04T00:53:07Z</time>
      </trkpt>
      <trkpt lat="47.435953980311751" lon="10.524092987179756">
        <ele>1915</ele>
        <time>2011-03-04T00:53:10Z</time>
      </trkpt>
      <trkpt lat="47.436118014156818" lon="10.523932976648211">
        <ele>1915</ele>
        <time>2011-03-04T00:53:18Z</time>
      </trkpt>
      <trkpt lat="47.436182973906398" lon="10.523898024111986">
        <ele>1915</ele>
        <time>2011-03-04T00:53:21Z</time>
      </trkpt>
      <trkpt lat="47.436231002211571" lon="10.523830968886614">
        <ele>1915</ele>
        <time>2011-03-04T00:53:23Z</time>
      </trkpt>
      <trkpt lat="47.436368968337774" lon="10.523634999990463">
        <ele>1890</ele>
        <time>2011-03-04T00:53:31Z</time>
      </trkpt>
      <trkpt lat="47.43642202578485" lon="10.52362997084856">
        <ele>1890</ele>
        <time>2011-03-04T00:53:33Z</time>
      </trkpt>
      <trkpt lat="47.436531996354461" lon="10.523459985852242">
        <ele>1890</ele>
        <time>2011-03-04T00:53:39Z</time>
      </trkpt>
      <trkpt lat="47.436570972204208" lon="10.523422015830874">
        <ele>1890</ele>
        <time>2011-03-04T00:53:41Z</time>
      </trkpt>
      <trkpt lat="47.436585975810885" lon="10.523398965597153">
        <ele>1890</ele>
        <time>2011-03-04T00:53:42Z</time>
      </trkpt>
      <trkpt lat="47.436612965539098" lon="10.523283965885639">
        <ele>1890</ele>
        <time>2011-03-04T00:53:45Z</time>
      </trkpt>
      <trkpt lat="47.436639033257961" lon="10.523253958672285">
        <ele>1890</ele>
        <time>2011-03-04T00:53:47Z</time>
      </trkpt>
      <trkpt lat="47.436663005501032" lon="10.523201990872622">
        <ele>1890</ele>
        <time>2011-03-04T00:53:48Z</time>
      </trkpt>
      <trkpt lat="47.4368080124259" lon="10.523063018918037">
        <ele>1890</ele>
        <time>2011-03-04T00:53:55Z</time>
      </trkpt>
      <trkpt lat="47.43685201741755" lon="10.523007027804852">
        <ele>1890</ele>
        <time>2011-03-04T00:53:58Z</time>
      </trkpt>
      <trkpt lat="47.437022002413869" lon="10.522857997566462">
        <ele>1909</ele>
        <time>2011-03-04T00:54:06Z</time>
      </trkpt>
      <trkpt lat="47.437190981581807" lon="10.522863026708364">
        <ele>1881</ele>
        <time>2011-03-04T00:54:12Z</time>
      </trkpt>
      <trkpt lat="47.437270022928715" lon="10.522754983976483">
        <ele>1881</ele>
        <time>2011-03-04T00:54:17Z</time>
      </trkpt>
      <trkpt lat="47.43734797462821" lon="10.522765964269638">
        <ele>1881</ele>
        <time>2011-03-04T00:54:20Z</time>
      </trkpt>
      <trkpt lat="47.437501028180122" lon="10.52283201366663">
        <ele>1881</ele>
        <time>2011-03-04T00:54:26Z</time>
      </trkpt>
      <trkpt lat="47.437645029276609" lon="10.522749032825232">
        <ele>1881</ele>
        <time>2011-03-04T00:54:32Z</time>
      </trkpt>
      <trkpt lat="47.437807973474264" lon="10.522648030892015">
        <ele>1881</ele>
        <time>2011-03-04T00:54:39Z</time>
      </trkpt>
      <trkpt lat="47.437961027026176" lon="10.522753978148103">
        <ele>1883</ele>
        <time>2011-03-04T00:54:46Z</time>
      </trkpt>
      <trkpt lat="47.437971001490951" lon="10.52272598259151">
        <ele>1883</ele>
        <time>2011-03-04T00:54:47Z</time>
      </trkpt>
      <trkpt lat="47.437977958470583" lon="10.522690024226904">
        <ele>1883</ele>
        <time>2011-03-04T00:54:48Z</time>
      </trkpt>
      <trkpt lat="47.437986005097628" lon="10.52264099009335">
        <ele>1883</ele>
        <time>2011-03-04T00:54:49Z</time>
      </trkpt>
      <trkpt lat="47.438025986775756" lon="10.522647025063634">
        <ele>1883</ele>
        <time>2011-03-04T00:54:51Z</time>
      </trkpt>
      <trkpt lat="47.438183985650539" lon="10.522601008415222">
        <ele>1883</ele>
        <time>2011-03-04T00:54:57Z</time>
      </trkpt>
      <trkpt lat="47.438356988132" lon="10.522557003423572">
        <ele>1883</ele>
        <time>2011-03-04T00:55:04Z</time>
      </trkpt>
      <trkpt lat="47.438410967588425" lon="10.52255499176681">
        <ele>1883</ele>
        <time>2011-03-04T00:55:07Z</time>
      </trkpt>
      <trkpt lat="47.438434017822146" lon="10.522535964846611">
        <ele>1883</ele>
        <time>2011-03-04T00:55:08Z</time>
      </trkpt>
      <trkpt lat="47.438522027805448" lon="10.522520039230585">
        <ele>1883</ele>
        <time>2011-03-04T00:55:11Z</time>
      </trkpt>
      <trkpt lat="47.438611965626478" lon="10.522376960143447">
        <ele>1883</ele>
        <time>2011-03-04T00:55:17Z</time>
      </trkpt>
      <trkpt lat="47.438770970329642" lon="10.522251985967159">
        <ele>1878</ele>
        <time>2011-03-04T00:55:24Z</time>
      </trkpt>
      <trkpt lat="47.438941961154342" lon="10.522250980138779">
        <ele>1878</ele>
        <time>2011-03-04T00:55:31Z</time>
      </trkpt>
      <trkpt lat="47.439176989719272" lon="10.522263972088695">
        <ele>1878</ele>
        <time>2011-03-04T00:55:40Z</time>
      </trkpt>
      <trkpt lat="47.439353009685874" lon="10.522304037585855">
        <ele>1878</ele>
        <time>2011-03-04T00:55:47Z</time>
      </trkpt>
      <trkpt lat="47.439443031325936" lon="10.522286016494036">
        <ele>1878</ele>
        <time>2011-03-04T00:55:51Z</time>
      </trkpt>
      <trkpt lat="47.439483013004065" lon="10.522288028150797">
        <ele>1878</ele>
        <time>2011-03-04T00:55:52Z</time>
      </trkpt>
      <trkpt lat="47.439683005213737" lon="10.522257015109062">
        <ele>1877</ele>
        <time>2011-03-04T00:56:00Z</time>
      </trkpt>
      <trkpt lat="47.439716029912233" lon="10.522236982360482">
        <ele>1877</ele>
        <time>2011-03-04T00:56:02Z</time>
      </trkpt>
      <trkpt lat="47.439832035452127" lon="10.522221978753805">
        <ele>1877</ele>
        <time>2011-03-04T00:56:07Z</time>
      </trkpt>
      <trkpt lat="47.439858019351959" lon="10.522217033430934">
        <ele>1877</ele>
        <time>2011-03-04T00:56:08Z</time>
      </trkpt>
      <trkpt lat="47.43990202434361" lon="10.52223103120923">
        <ele>1877</ele>
        <time>2011-03-04T00:56:09Z</time>
      </trkpt>
      <trkpt lat="47.440048037096858" lon="10.522183002904058">
        <ele>1877</ele>
        <time>2011-03-04T00:56:15Z</time>
      </trkpt>
      <trkpt lat="47.440207041800022" lon="10.522266989573836">
        <ele>1877</ele>
        <time>2011-03-04T00:56:22Z</time>
      </trkpt>
      <trkpt lat="47.440335033461452" lon="10.52231602370739">
        <ele>1877</ele>
        <time>2011-03-04T00:56:27Z</time>
      </trkpt>
      <trkpt lat="47.440380966290832" lon="10.522291967645288">
        <ele>1877</ele>
        <time>2011-03-04T00:56:29Z</time>
      </trkpt>
      <trkpt lat="47.440609037876129" lon="10.522304037585855">
        <ele>1885</ele>
        <time>2011-03-04T00:56:39Z</time>
      </trkpt>
      <trkpt lat="47.44074298068881" lon="10.52231996320188">
        <ele>1885</ele>
        <time>2011-03-04T00:56:44Z</time>
      </trkpt>
      <trkpt lat="47.440839037299156" lon="10.522306971251965">
        <ele>1885</ele>
        <time>2011-03-04T00:56:48Z</time>
      </trkpt>
      <trkpt lat="47.440874995663762" lon="10.522290039807558">
        <ele>1885</ele>
        <time>2011-03-04T00:56:49Z</time>
      </trkpt>
      <trkpt lat="47.440929980948567" lon="10.52240302786231">
        <ele>1885</ele>
        <time>2011-03-04T00:56:53Z</time>
      </trkpt>
      <trkpt lat="47.440989995375276" lon="10.522465975955129">
        <ele>1885</ele>
        <time>2011-03-04T00:56:56Z</time>
      </trkpt>
      <trkpt lat="47.441208008676767" lon="10.522648030892015">
        <ele>1885</ele>
        <time>2011-03-04T00:57:06Z</time>
      </trkpt>
      <trkpt lat="47.441273974254727" lon="10.522653982043266">
        <ele>1899</ele>
        <time>2011-03-04T00:57:09Z</time>
      </trkpt>
      <trkpt lat="47.441546972841024" lon="10.522709973156452">
        <ele>1899</ele>
        <time>2011-03-04T00:57:20Z</time>
      </trkpt>
      <trkpt lat="47.441739002242684" lon="10.522708967328072">
        <ele>1899</ele>
        <time>2011-03-04T00:57:27Z</time>
      </trkpt>
      <trkpt lat="47.441906975582242" lon="10.522828996181488">
        <ele>1899</ele>
        <time>2011-03-04T00:57:35Z</time>
      </trkpt>
      <trkpt lat="47.442121971398592" lon="10.522881969809532">
        <ele>1902</ele>
        <time>2011-03-04T00:57:44Z</time>
      </trkpt>
      <trkpt lat="47.442148961126804" lon="10.522877024486661">
        <ele>1902</ele>
        <time>2011-03-04T00:57:45Z</time>
      </trkpt>
      <trkpt lat="47.442193971946836" lon="10.522895967587829">
        <ele>1902</ele>
        <time>2011-03-04T00:57:47Z</time>
      </trkpt>
      <trkpt lat="47.44220201857388" lon="10.522900996729732">
        <ele>1902</ele>
        <time>2011-03-04T00:57:47Z</time>
      </trkpt>
      <trkpt lat="47.442220039665699" lon="10.522906025871634">
        <ele>1902</ele>
        <time>2011-03-04T00:57:48Z</time>
      </trkpt>
      <trkpt lat="47.442230014130473" lon="10.522905020043254">
        <ele>1902</ele>
        <time>2011-03-04T00:57:48Z</time>
      </trkpt>
      <trkpt lat="47.442283993586898" lon="10.522883981466293">
        <ele>1902</ele>
        <time>2011-03-04T00:57:50Z</time>
      </trkpt>
      <trkpt lat="47.442306960001588" lon="10.522874007001519">
        <ele>1902</ele>
        <time>2011-03-04T00:57:51Z</time>
      </trkpt>
      <trkpt lat="47.442317018285394" lon="10.522867972031236">
        <ele>1902</ele>
        <time>2011-03-04T00:57:52Z</time>
      </trkpt>
      <trkpt lat="47.442327998578548" lon="10.522863026708364">
        <ele>1902</ele>
        <time>2011-03-04T00:57:52Z</time>
      </trkpt>
      <trkpt lat="47.442338978871703" lon="10.522856991738081">
        <ele>1902</ele>
        <time>2011-03-04T00:57:53Z</time>
      </trkpt>
      <trkpt lat="47.44239597581327" lon="10.522826984524727">
        <ele>1902</ele>
        <time>2011-03-04T00:57:55Z</time>
      </trkpt>
      <trkpt lat="47.442501001060009" lon="10.522707961499691">
        <ele>1902</ele>
        <time>2011-03-04T00:58:00Z</time>
      </trkpt>
      <trkpt lat="47.442560009658337" lon="10.522588016465306">
        <ele>1902</ele>
        <time>2011-03-04T00:58:04Z</time>
      </trkpt>
      <trkpt lat="47.442712979391217" lon="10.522391041740775">
        <ele>1902</ele>
        <time>2011-03-04T00:58:12Z</time>
      </trkpt>
      <trkpt lat="47.442801995202899" lon="10.522265983745456">
        <ele>1902</ele>
        <time>2011-03-04T00:58:17Z</time>
      </trkpt>
      <trkpt lat="47.442963011562824" lon="10.522203035652637">
        <ele>1896</ele>
        <time>2011-03-04T00:58:24Z</time>
      </trkpt>
      <trkpt lat="47.443049009889364" lon="10.5221479665488">
        <ele>1896</ele>
        <time>2011-03-04T00:58:28Z</time>
      </trkpt>
      <trkpt lat="47.443216983228922" lon="10.522192977368832">
        <ele>1896</ele>
        <time>2011-03-04T00:58:35Z</time>
      </trkpt>
      <trkpt lat="47.443270040675998" lon="10.522204041481018">
        <ele>1896</ele>
        <time>2011-03-04T00:58:37Z</time>
      </trkpt>
      <trkpt lat="47.443394009023905" lon="10.52219096571207">
        <ele>1896</ele>
        <time>2011-03-04T00:58:42Z</time>
      </trkpt>
      <trkpt lat="47.443495010957122" lon="10.522203035652637">
        <ele>1896</ele>
        <time>2011-03-04T00:58:46Z</time>
      </trkpt>
      <trkpt lat="47.443525018170476" lon="10.522246034815907">
        <ele>1896</ele>
        <time>2011-03-04T00:58:47Z</time>
      </trkpt>
      <trkpt lat="47.443546978756785" lon="10.52229699678719">
        <ele>1896</ele>
        <time>2011-03-04T00:58:49Z</time>
      </trkpt>
      <trkpt lat="47.443781001493335" lon="10.522385006770492">
        <ele>1905</ele>
        <time>2011-03-04T00:58:59Z</time>
      </trkpt>
      <trkpt lat="47.443885020911694" lon="10.522392969578505">
        <ele>1905</ele>
        <time>2011-03-04T00:59:03Z</time>
      </trkpt>
      <trkpt lat="47.444117031991482" lon="10.522431023418903">
        <ele>1905</ele>
        <time>2011-03-04T00:59:12Z</time>
      </trkpt>
      <trkpt lat="47.444176040589809" lon="10.522461030632257">
        <ele>1905</ele>
        <time>2011-03-04T00:59:15Z</time>
      </trkpt>
      <trkpt lat="47.444391036406159" lon="10.522598996758461">
        <ele>1905</ele>
        <time>2011-03-04T00:59:24Z</time>
      </trkpt>
      <trkpt lat="47.444559009745717" lon="10.522609977051616">
        <ele>1905</ele>
        <time>2011-03-04T00:59:31Z</time>
      </trkpt>
      <trkpt lat="47.444740980863571" lon="10.522648030892015">
        <ele>1900</ele>
        <time>2011-03-04T00:59:38Z</time>
      </trkpt>
      <trkpt lat="47.444764031097293" lon="10.522649036720395">
        <ele>1900</ele>
        <time>2011-03-04T00:59:39Z</time>
      </trkpt>
      <trkpt lat="47.444909960031509" lon="10.522749032825232">
        <ele>1900</ele>
        <time>2011-03-04T00:59:46Z</time>
      </trkpt>
      <trkpt lat="47.445028983056545" lon="10.522899990901351">
        <ele>1900</ele>
        <time>2011-03-04T00:59:52Z</time>
      </trkpt>
      <trkpt lat="47.445135014131665" lon="10.523022031411529">
        <ele>1906</ele>
        <time>2011-03-04T00:59:57Z</time>
      </trkpt>
      <trkpt lat="47.445234004408121" lon="10.523150023072958">
        <ele>1906</ele>
        <time>2011-03-04T01:00:02Z</time>
      </trkpt>
      <trkpt lat="47.4453179910779" lon="10.523200985044241">
        <ele>1906</ele>
        <time>2011-03-04T01:00:06Z</time>
      </trkpt>
      <trkpt lat="47.445370964705944" lon="10.523260999470949">
        <ele>1906</ele>
        <time>2011-03-04T01:00:09Z</time>
      </trkpt>
      <trkpt lat="47.445531981065869" lon="10.523378010839224">
        <ele>1910</ele>
        <time>2011-03-04T01:00:16Z</time>
      </trkpt>
      <trkpt lat="47.445582021027803" lon="10.523360995575786">
        <ele>1910</ele>
        <time>2011-03-04T01:00:18Z</time>
      </trkpt>
      <trkpt lat="47.445660978555679" lon="10.523366024717689">
        <ele>1910</ele>
        <time>2011-03-04T01:00:21Z</time>
      </trkpt>
      <trkpt lat="47.44566198438406" lon="10.52336803637445">
        <ele>1910</ele>
        <time>2011-03-04T01:00:21Z</time>
      </trkpt>
      <trkpt lat="47.445827024057508" lon="10.523659978061914">
        <ele>1910</ele>
        <time>2011-03-04T01:00:32Z</time>
      </trkpt>
      <trkpt lat="47.446050988510251" lon="10.523662995547056">
        <ele>1910</ele>
        <time>2011-03-04T01:00:41Z</time>
      </trkpt>
      <trkpt lat="47.446223990991712" lon="10.523662995547056">
        <ele>1910</ele>
        <time>2011-03-04T01:00:47Z</time>
      </trkpt>
      <trkpt lat="47.446251986548305" lon="10.523637011647224">
        <ele>1908</ele>
        <time>2011-03-04T01:00:49Z</time>
      </trkpt>
      <trkpt lat="47.446424989029765" lon="10.523570040240884">
        <ele>1908</ele>
        <time>2011-03-04T01:00:56Z</time>
      </trkpt>
      <trkpt lat="47.446590028703213" lon="10.523483958095312">
        <ele>1908</ele>
        <time>2011-03-04T01:01:03Z</time>
      </trkpt>
      <trkpt lat="47.446601008996367" lon="10.523453028872609">
        <ele>1908</ele>
        <time>2011-03-04T01:01:04Z</time>
      </trkpt>
      <trkpt lat="47.446626992896199" lon="10.523407012224197">
        <ele>1908</ele>
        <time>2011-03-04T01:01:06Z</time>
      </trkpt>
      <trkpt lat="47.446406967937946" lon="10.523592000827193">
        <ele>1908</ele>
        <time>2011-03-04T01:01:16Z</time>
      </trkpt>
      <trkpt lat="47.446238994598389" lon="10.523633994162083">
        <ele>1910</ele>
        <time>2011-03-04T01:01:22Z</time>
      </trkpt>
      <trkpt lat="47.44613598100841" lon="10.52371202968061">
        <ele>1910</ele>
        <time>2011-03-04T01:01:27Z</time>
      </trkpt>
      <trkpt lat="47.446023998782039" lon="10.523752011358738">
        <ele>1909</ele>
        <time>2011-03-04T01:01:32Z</time>
      </trkpt>
      <trkpt lat="47.445853007957339" lon="10.523883020505309">
        <ele>1909</ele>
        <time>2011-03-04T01:01:39Z</time>
      </trkpt>
      <trkpt lat="47.445742031559348" lon="10.523987039923668">
        <ele>1909</ele>
        <time>2011-03-04T01:01:45Z</time>
      </trkpt>
      <trkpt lat="47.445734990760684" lon="10.523996008560061">
        <ele>1909</ele>
        <time>2011-03-04T01:01:45Z</time>
      </trkpt>
      <trkpt lat="47.445658966898918" lon="10.52403599023819">
        <ele>1909</ele>
        <time>2011-03-04T01:01:48Z</time>
      </trkpt>
      <trkpt lat="47.445655027404428" lon="10.524048982188106">
        <ele>1909</ele>
        <time>2011-03-04T01:01:49Z</time>
      </trkpt>
      <trkpt lat="47.445655027404428" lon="10.524058034643531">
        <ele>1909</ele>
        <time>2011-03-04T01:01:49Z</time>
      </trkpt>
      <trkpt lat="47.445654021576047" lon="10.524065997451544">
        <ele>1909</ele>
        <time>2011-03-04T01:01:49Z</time>
      </trkpt>
      <trkpt lat="47.445571962743998" lon="10.524173034355044">
        <ele>1909</ele>
        <time>2011-03-04T01:01:54Z</time>
      </trkpt>
      <trkpt lat="47.445611022412777" lon="10.524230031296611">
        <ele>1909</ele>
        <time>2011-03-04T01:01:56Z</time>
      </trkpt>
      <trkpt lat="47.44566299021244" lon="10.524287028238177">
        <ele>1909</ele>
        <time>2011-03-04T01:01:58Z</time>
      </trkpt>
      <trkpt lat="47.445631977170706" lon="10.524398004636168">
        <ele>1909</ele>
        <time>2011-03-04T01:02:02Z</time>
      </trkpt>
      <trkpt lat="47.44566299021244" lon="10.524429017677903">
        <ele>1909</ele>
        <time>2011-03-04T01:02:03Z</time>
      </trkpt>
      <trkpt lat="47.445671958848834" lon="10.52444402128458">
        <ele>1909</ele>
        <time>2011-03-04T01:02:04Z</time>
      </trkpt>
      <trkpt lat="47.445667013525963" lon="10.52461601793766">
        <ele>1886</ele>
        <time>2011-03-04T01:02:08Z</time>
      </trkpt>
      <trkpt lat="47.445698026567698" lon="10.524683995172381">
        <ele>1886</ele>
        <time>2011-03-04T01:02:10Z</time>
      </trkpt>
      <trkpt lat="47.445796011015773" lon="10.524720959365368">
        <ele>1886</ele>
        <time>2011-03-04T01:02:15Z</time>
      </trkpt>
      <trkpt lat="47.445824006572366" lon="10.524818021804094">
        <ele>1886</ele>
        <time>2011-03-04T01:02:17Z</time>
      </trkpt>
      <trkpt lat="47.445821994915605" lon="10.525092026218772">
        <ele>1886</ele>
        <time>2011-03-04T01:02:25Z</time>
      </trkpt>
      <trkpt lat="47.445729961618781" lon="10.52530400454998">
        <ele>1886</ele>
        <time>2011-03-04T01:02:32Z</time>
      </trkpt>
      <trkpt lat="47.445738008245826" lon="10.525328982621431">
        <ele>1886</ele>
        <time>2011-03-04T01:02:32Z</time>
      </trkpt>
      <trkpt lat="47.445757035166025" lon="10.525399977341294">
        <ele>1886</ele>
        <time>2011-03-04T01:02:34Z</time>
      </trkpt>
      <trkpt lat="47.445733984932303" lon="10.525488993152976">
        <ele>1867</ele>
        <time>2011-03-04T01:02:37Z</time>
      </trkpt>
      <trkpt lat="47.445735996589065" lon="10.525527969002724">
        <ele>1867</ele>
        <time>2011-03-04T01:02:38Z</time>
      </trkpt>
      <trkpt lat="47.445730967447162" lon="10.525558982044458">
        <ele>1867</ele>
        <time>2011-03-04T01:02:39Z</time>
      </trkpt>
      <trkpt lat="47.445735996589065" lon="10.525617990642786">
        <ele>1867</ele>
        <time>2011-03-04T01:02:41Z</time>
      </trkpt>
      <trkpt lat="47.445703977718949" lon="10.525795016437769">
        <ele>1867</ele>
        <time>2011-03-04T01:02:45Z</time>
      </trkpt>
      <trkpt lat="47.445686040446162" lon="10.52592602558434">
        <ele>1867</ele>
        <time>2011-03-04T01:02:49Z</time>
      </trkpt>
      <trkpt lat="47.445687968283892" lon="10.526005988940597">
        <ele>1867</ele>
        <time>2011-03-04T01:02:51Z</time>
      </trkpt>
      <trkpt lat="47.445614039897919" lon="10.52612098865211">
        <ele>1867</ele>
        <time>2011-03-04T01:02:56Z</time>
      </trkpt>
      <trkpt lat="47.445611022412777" lon="10.526133980602026">
        <ele>1867</ele>
        <time>2011-03-04T01:02:56Z</time>
      </trkpt>
      <trkpt lat="47.445584032684565" lon="10.526318969205022">
        <ele>1851</ele>
        <time>2011-03-04T01:03:01Z</time>
      </trkpt>
      <trkpt lat="47.445574980229139" lon="10.526348976418376">
        <ele>1851</ele>
        <time>2011-03-04T01:03:02Z</time>
      </trkpt>
      <trkpt lat="47.445585038512945" lon="10.526401028037071">
        <ele>1851</ele>
        <time>2011-03-04T01:03:03Z</time>
      </trkpt>
      <trkpt lat="47.445577997714281" lon="10.526447966694832">
        <ele>1851</ele>
        <time>2011-03-04T01:03:05Z</time>
      </trkpt>
      <trkpt lat="47.445565005764365" lon="10.526622980833054">
        <ele>1851</ele>
        <time>2011-03-04T01:03:09Z</time>
      </trkpt>
      <trkpt lat="47.445550002157688" lon="10.526695987209678">
        <ele>1851</ele>
        <time>2011-03-04T01:03:12Z</time>
      </trkpt>
      <trkpt lat="47.445545978844166" lon="10.52672297693789">
        <ele>1851</ele>
        <time>2011-03-04T01:03:12Z</time>
      </trkpt>
      <trkpt lat="47.445537010207772" lon="10.526764970272779">
        <ele>1851</ele>
        <time>2011-03-04T01:03:14Z</time>
      </trkpt>
      <trkpt lat="47.445565005764365" lon="10.526907965540886">
        <ele>1851</ele>
        <time>2011-03-04T01:03:18Z</time>
      </trkpt>
      <trkpt lat="47.445570034906268" lon="10.526931015774608">
        <ele>1851</ele>
        <time>2011-03-04T01:03:18Z</time>
      </trkpt>
      <trkpt lat="47.445543967187405" lon="10.527079040184617">
        <ele>1851</ele>
        <time>2011-03-04T01:03:22Z</time>
      </trkpt>
      <trkpt lat="47.445587972179055" lon="10.527231004089117">
        <ele>1837</ele>
        <time>2011-03-04T01:03:27Z</time>
      </trkpt>
      <trkpt lat="47.445573974400759" lon="10.527327982708812">
        <ele>1837</ele>
        <time>2011-03-04T01:03:29Z</time>
      </trkpt>
      <trkpt lat="47.445568023249507" lon="10.527352038770914">
        <ele>1837</ele>
        <time>2011-03-04T01:03:30Z</time>
      </trkpt>
      <trkpt lat="47.445547990500927" lon="10.527401994913816">
        <ele>1837</ele>
        <time>2011-03-04T01:03:32Z</time>
      </trkpt>
      <trkpt lat="47.445517983287573" lon="10.527469972148538">
        <ele>1837</ele>
        <time>2011-03-04T01:03:34Z</time>
      </trkpt>
      <trkpt lat="47.445512032136321" lon="10.527507020160556">
        <ele>1837</ele>
        <time>2011-03-04T01:03:35Z</time>
      </trkpt>
      <trkpt lat="47.44551002047956" lon="10.527534009888768">
        <ele>1837</ele>
        <time>2011-03-04T01:03:36Z</time>
      </trkpt>
      <trkpt lat="47.445480013266206" lon="10.527593018487096">
        <ele>1837</ele>
        <time>2011-03-04T01:03:38Z</time>
      </trkpt>
      <trkpt lat="47.445409018546343" lon="10.52762302570045">
        <ele>1833</ele>
        <time>2011-03-04T01:03:41Z</time>
      </trkpt>
      <trkpt lat="47.445237021893263" lon="10.527743976563215">
        <ele>1833</ele>
        <time>2011-03-04T01:03:48Z</time>
      </trkpt>
      <trkpt lat="47.445212965831161" lon="10.527783036231995">
        <ele>1833</ele>
        <time>2011-03-04T01:03:50Z</time>
      </trkpt>
      <trkpt lat="47.445156974717975" lon="10.528004989027977">
        <ele>1820</ele>
        <time>2011-03-04T01:03:56Z</time>
      </trkpt>
      <trkpt lat="47.445147000253201" lon="10.52805402316153">
        <ele>1820</ele>
        <time>2011-03-04T01:03:58Z</time>
      </trkpt>
      <trkpt lat="47.44512302801013" lon="10.528201963752508">
        <ele>1820</ele>
        <time>2011-03-04T01:04:02Z</time>
      </trkpt>
      <trkpt lat="47.445074999704957" lon="10.528318975120783">
        <ele>1820</ele>
        <time>2011-03-04T01:04:05Z</time>
      </trkpt>
      <trkpt lat="47.444995036348701" lon="10.528512010350823">
        <ele>1820</ele>
        <time>2011-03-04T01:04:11Z</time>
      </trkpt>
      <trkpt lat="47.444892022758722" lon="10.528778973966837">
        <ele>1810</ele>
        <time>2011-03-04T01:04:20Z</time>
      </trkpt>
      <trkpt lat="47.4448879994452" lon="10.528795989230275">
        <ele>1810</ele>
        <time>2011-03-04T01:04:20Z</time>
      </trkpt>
      <trkpt lat="47.444780962541699" lon="10.528958011418581">
        <ele>1810</ele>
        <time>2011-03-04T01:04:26Z</time>
      </trkpt>
      <trkpt lat="47.444666968658566" lon="10.529255988076329">
        <ele>1810</ele>
        <time>2011-03-04T01:04:36Z</time>
      </trkpt>
      <trkpt lat="47.444617012515664" lon="10.529382973909378">
        <ele>1810</ele>
        <time>2011-03-04T01:04:40Z</time>
      </trkpt>
      <trkpt lat="47.444510981440544" lon="10.529520018026233">
        <ele>1801</ele>
        <time>2011-03-04T01:04:45Z</time>
      </trkpt>
      <trkpt lat="47.444484997540712" lon="10.529568968340755">
        <ele>1801</ele>
        <time>2011-03-04T01:04:47Z</time>
      </trkpt>
      <trkpt lat="47.444492038339376" lon="10.529733002185822">
        <ele>1792</ele>
        <time>2011-03-04T01:04:51Z</time>
      </trkpt>
      <trkpt lat="47.444504024460912" lon="10.529759991914034">
        <ele>1792</ele>
        <time>2011-03-04T01:04:52Z</time>
      </trkpt>
      <trkpt lat="47.444462031126022" lon="10.529781030490994">
        <ele>1792</ele>
        <time>2011-03-04T01:04:54Z</time>
      </trkpt>
      <trkpt lat="47.444465970620513" lon="10.529852025210857">
        <ele>1792</ele>
        <time>2011-03-04T01:04:56Z</time>
      </trkpt>
      <trkpt lat="47.444469993934035" lon="10.529909022152424">
        <ele>1792</ele>
        <time>2011-03-04T01:04:58Z</time>
      </trkpt>
      <trkpt lat="47.444558003917336" lon="10.530066015198827">
        <ele>1792</ele>
        <time>2011-03-04T01:05:03Z</time>
      </trkpt>
      <trkpt lat="47.444568984210491" lon="10.530214961618185">
        <ele>1792</ele>
        <time>2011-03-04T01:05:07Z</time>
      </trkpt>
      <trkpt lat="47.444601003080606" lon="10.530295008793473">
        <ele>1798</ele>
        <time>2011-03-04T01:05:10Z</time>
      </trkpt>
      <trkpt lat="47.444601003080606" lon="10.530424006283283">
        <ele>1779</ele>
        <time>2011-03-04T01:05:13Z</time>
      </trkpt>
      <trkpt lat="47.444661017507315" lon="10.530643025413156">
        <ele>1779</ele>
        <time>2011-03-04T01:05:20Z</time>
      </trkpt>
      <trkpt lat="47.444660011678934" lon="10.530691975727677">
        <ele>1779</ele>
        <time>2011-03-04T01:05:21Z</time>
      </trkpt>
      <trkpt lat="47.444621035829186" lon="10.530772022902966">
        <ele>1779</ele>
        <time>2011-03-04T01:05:24Z</time>
      </trkpt>
      <trkpt lat="47.444605026394129" lon="10.530904037877917">
        <ele>1779</ele>
        <time>2011-03-04T01:05:27Z</time>
      </trkpt>
      <trkpt lat="47.444604020565748" lon="10.530941002070904">
        <ele>1779</ele>
        <time>2011-03-04T01:05:28Z</time>
      </trkpt>
      <trkpt lat="47.444605026394129" lon="10.530947959050536">
        <ele>1779</ele>
        <time>2011-03-04T01:05:28Z</time>
      </trkpt>
      <trkpt lat="47.444663029164076" lon="10.531033035367727">
        <ele>1779</ele>
        <time>2011-03-04T01:05:32Z</time>
      </trkpt>
      <trkpt lat="47.444714996963739" lon="10.531118027865887">
        <ele>1779</ele>
        <time>2011-03-04T01:05:35Z</time>
      </trkpt>
      <trkpt lat="47.444731006398797" lon="10.531194973737001">
        <ele>1779</ele>
        <time>2011-03-04T01:05:37Z</time>
      </trkpt>
      <trkpt lat="47.444769982248545" lon="10.531313996762037">
        <ele>1756</ele>
        <time>2011-03-04T01:05:41Z</time>
      </trkpt>
      <trkpt lat="47.444772999733686" lon="10.531324977055192">
        <ele>1756</ele>
        <time>2011-03-04T01:05:41Z</time>
      </trkpt>
      <trkpt lat="47.444743998348713" lon="10.53134098649025">
        <ele>1756</ele>
        <time>2011-03-04T01:05:42Z</time>
      </trkpt>
      <trkpt lat="47.444746010005474" lon="10.531457997858524">
        <ele>1756</ele>
        <time>2011-03-04T01:05:45Z</time>
      </trkpt>
      <trkpt lat="47.44478196837008" lon="10.531580960378051">
        <ele>1756</ele>
        <time>2011-03-04T01:05:49Z</time>
      </trkpt>
      <trkpt lat="47.444797977805138" lon="10.531694032251835">
        <ele>1756</ele>
        <time>2011-03-04T01:05:52Z</time>
      </trkpt>
      <trkpt lat="47.444798983633518" lon="10.531808026134968">
        <ele>1756</ele>
        <time>2011-03-04T01:05:55Z</time>
      </trkpt>
      <trkpt lat="47.444793032482266" lon="10.531887989491224">
        <ele>1756</ele>
        <time>2011-03-04T01:05:57Z</time>
      </trkpt>
      <trkpt lat="47.444811975583434" lon="10.531941968947649">
        <ele>1756</ele>
        <time>2011-03-04T01:05:59Z</time>
      </trkpt>
      <trkpt lat="47.44486503303051" lon="10.53198697976768">
        <ele>1756</ele>
        <time>2011-03-04T01:06:01Z</time>
      </trkpt>
      <trkpt lat="47.444914989173412" lon="10.532065015286207">
        <ele>1756</ele>
        <time>2011-03-04T01:06:04Z</time>
      </trkpt>
      <trkpt lat="47.444952037185431" lon="10.532147996127605">
        <ele>1731</ele>
        <time>2011-03-04T01:06:07Z</time>
      </trkpt>
      <trkpt lat="47.444971986114979" lon="10.532253021374345">
        <ele>1731</ele>
        <time>2011-03-04T01:06:10Z</time>
      </trkpt>
      <trkpt lat="47.444977015256882" lon="10.53226500749588">
        <ele>1731</ele>
        <time>2011-03-04T01:06:10Z</time>
      </trkpt>
      <trkpt lat="47.444991013035178" lon="10.532429041340947">
        <ele>1731</ele>
        <time>2011-03-04T01:06:15Z</time>
      </trkpt>
      <trkpt lat="47.444998975843191" lon="10.532452007755637">
        <ele>1731</ele>
        <time>2011-03-04T01:06:15Z</time>
      </trkpt>
      <trkpt lat="47.445023031905293" lon="10.532546974718571">
        <ele>1731</ele>
        <time>2011-03-04T01:06:18Z</time>
      </trkpt>
      <trkpt lat="47.445026971399784" lon="10.532750990241766">
        <ele>1731</ele>
        <time>2011-03-04T01:06:24Z</time>
      </trkpt>
      <trkpt lat="47.445056978613138" lon="10.532848974689841">
        <ele>1731</ele>
        <time>2011-03-04T01:06:27Z</time>
      </trkpt>
      <trkpt lat="47.445069970563054" lon="10.532861966639757">
        <ele>1731</ele>
        <time>2011-03-04T01:06:27Z</time>
      </trkpt>
      <trkpt lat="47.4451660271734" lon="10.532928016036749">
        <ele>1705</ele>
        <time>2011-03-04T01:06:32Z</time>
      </trkpt>
      <trkpt lat="47.4451660271734" lon="10.532938996329904">
        <ele>1705</ele>
        <time>2011-03-04T01:06:32Z</time>
      </trkpt>
      <trkpt lat="47.445186981931329" lon="10.533029017969966">
        <ele>1705</ele>
        <time>2011-03-04T01:06:34Z</time>
      </trkpt>
      <trkpt lat="47.44525495916605" lon="10.533224986866117">
        <ele>1705</ele>
        <time>2011-03-04T01:06:40Z</time>
      </trkpt>
      <trkpt lat="47.44525495916605" lon="10.533238984644413">
        <ele>1705</ele>
        <time>2011-03-04T01:06:41Z</time>
      </trkpt>
      <trkpt lat="47.445279015228152" lon="10.533421961590648">
        <ele>1705</ele>
        <time>2011-03-04T01:06:46Z</time>
      </trkpt>
      <trkpt lat="47.445346992462873" lon="10.533495973795652">
        <ele>1705</ele>
        <time>2011-03-04T01:06:49Z</time>
      </trkpt>
      <trkpt lat="47.445416981354356" lon="10.533581972122192">
        <ele>1705</ele>
        <time>2011-03-04T01:06:53Z</time>
      </trkpt>
      <trkpt lat="47.4454250279814" lon="10.533667970448732">
        <ele>1708</ele>
        <time>2011-03-04T01:06:55Z</time>
      </trkpt>
      <trkpt lat="47.44546702131629" lon="10.533764027059078">
        <ele>1682</ele>
        <time>2011-03-04T01:06:58Z</time>
      </trkpt>
      <trkpt lat="47.44555402547121" lon="10.533829992637038">
        <ele>1682</ele>
        <time>2011-03-04T01:07:02Z</time>
      </trkpt>
      <trkpt lat="47.445449000224471" lon="10.533886989578605">
        <ele>1682</ele>
        <time>2011-03-04T01:07:07Z</time>
      </trkpt>
      <trkpt lat="47.445429973304272" lon="10.533891012892127">
        <ele>1682</ele>
        <time>2011-03-04T01:07:07Z</time>
      </trkpt>
      <trkpt lat="47.445358978584409" lon="10.533956978470087">
        <ele>1669</ele>
        <time>2011-03-04T01:07:11Z</time>
      </trkpt>
      <trkpt lat="47.445369036868215" lon="10.533972987905145">
        <ele>1669</ele>
        <time>2011-03-04T01:07:11Z</time>
      </trkpt>
      <trkpt lat="47.445409018546343" lon="10.534045994281769">
        <ele>1669</ele>
        <time>2011-03-04T01:07:14Z</time>
      </trkpt>
      <trkpt lat="47.445464003831148" lon="10.534152025356889">
        <ele>1682</ele>
        <time>2011-03-04T01:07:18Z</time>
      </trkpt>
      <trkpt lat="47.44544698856771" lon="10.534232994541526">
        <ele>1682</ele>
        <time>2011-03-04T01:07:20Z</time>
      </trkpt>
      <trkpt lat="47.445383034646511" lon="10.534292003139853">
        <ele>1669</ele>
        <time>2011-03-04T01:07:23Z</time>
      </trkpt>
      <trkpt lat="47.445375993847847" lon="10.534293008968234">
        <ele>1669</ele>
        <time>2011-03-04T01:07:23Z</time>
      </trkpt>
      <trkpt lat="47.445240039378405" lon="10.534290997311473">
        <ele>1669</ele>
        <time>2011-03-04T01:07:29Z</time>
      </trkpt>
      <trkpt lat="47.445187987759709" lon="10.534311030060053">
        <ele>1669</ele>
        <time>2011-03-04T01:07:31Z</time>
      </trkpt>
      <trkpt lat="47.445239033550024" lon="10.534384958446026">
        <ele>1669</ele>
        <time>2011-03-04T01:07:34Z</time>
      </trkpt>
      <trkpt lat="47.445258982479572" lon="10.534452013671398">
        <ele>1669</ele>
        <time>2011-03-04T01:07:36Z</time>
      </trkpt>
      <trkpt lat="47.445253031328321" lon="10.53445503115654">
        <ele>1669</ele>
        <time>2011-03-04T01:07:36Z</time>
      </trkpt>
      <trkpt lat="47.445199973881245" lon="10.534456958994269">
        <ele>1669</ele>
        <time>2011-03-04T01:07:38Z</time>
      </trkpt>
      <trkpt lat="47.44512302801013" lon="10.534441033378243">
        <ele>1669</ele>
        <time>2011-03-04T01:07:41Z</time>
      </trkpt>
      <trkpt lat="47.445149011909962" lon="10.534474980086088">
        <ele>1669</ele>
        <time>2011-03-04T01:07:42Z</time>
      </trkpt>
      <trkpt lat="47.445148006081581" lon="10.534474980086088">
        <ele>1669</ele>
        <time>2011-03-04T01:07:42Z</time>
      </trkpt>
      <trkpt lat="47.44514599442482" lon="10.534473974257708">
        <ele>1669</ele>
        <time>2011-03-04T01:07:43Z</time>
      </trkpt>
      <trkpt lat="47.445140965282917" lon="10.534471040591598">
        <ele>1669</ele>
        <time>2011-03-04T01:07:43Z</time>
      </trkpt>
      <trkpt lat="47.445113975554705" lon="10.534513033926487">
        <ele>1669</ele>
        <time>2011-03-04T01:07:44Z</time>
      </trkpt>
      <trkpt lat="47.445088997483253" lon="10.534570030868053">
        <ele>1669</ele>
        <time>2011-03-04T01:07:46Z</time>
      </trkpt>
      <trkpt lat="47.445133002474904" lon="10.534597020596266">
        <ele>1630</ele>
        <time>2011-03-04T01:07:48Z</time>
      </trkpt>
      <trkpt lat="47.445108024403453" lon="10.534661980345845">
        <ele>1630</ele>
        <time>2011-03-04T01:07:50Z</time>
      </trkpt>
      <trkpt lat="47.445112969726324" lon="10.534707996994257">
        <ele>1630</ele>
        <time>2011-03-04T01:07:51Z</time>
      </trkpt>
      <trkpt lat="47.445063013583422" lon="10.534770023077726">
        <ele>1630</ele>
        <time>2011-03-04T01:07:54Z</time>
      </trkpt>
      <trkpt lat="47.445001993328333" lon="10.534828025847673">
        <ele>1630</ele>
        <time>2011-03-04T01:07:57Z</time>
      </trkpt>
      <trkpt lat="47.444993024691939" lon="10.534829031676054">
        <ele>1630</ele>
        <time>2011-03-04T01:07:57Z</time>
      </trkpt>
      <trkpt lat="47.444886993616819" lon="10.534874964505434">
        <ele>1630</ele>
        <time>2011-03-04T01:08:02Z</time>
      </trkpt>
      <trkpt lat="47.444756990298629" lon="10.534860966727138">
        <ele>1630</ele>
        <time>2011-03-04T01:08:07Z</time>
      </trkpt>
      <trkpt lat="47.444714996963739" lon="10.534859960898757">
        <ele>1630</ele>
        <time>2011-03-04T01:08:09Z</time>
      </trkpt>
      <trkpt lat="47.444651965051889" lon="10.534923998638988">
        <ele>1630</ele>
        <time>2011-03-04T01:08:12Z</time>
      </trkpt>
      <trkpt lat="47.444548029452562" lon="10.534925004467368">
        <ele>1621</ele>
        <time>2011-03-04T01:08:16Z</time>
      </trkpt>
      <trkpt lat="47.444460019469261" lon="10.534934978932142">
        <ele>1621</ele>
        <time>2011-03-04T01:08:19Z</time>
      </trkpt>
      <trkpt lat="47.444278970360756" lon="10.534988958388567">
        <ele>1621</ele>
        <time>2011-03-04T01:08:27Z</time>
      </trkpt>
      <trkpt lat="47.444195989519358" lon="10.535023994743824">
        <ele>1621</ele>
        <time>2011-03-04T01:08:30Z</time>
      </trkpt>
      <trkpt lat="47.444256003946066" lon="10.53514301776886">
        <ele>1621</ele>
        <time>2011-03-04T01:08:34Z</time>
      </trkpt>
      <trkpt lat="47.444257009774446" lon="10.535147963091731">
        <ele>1621</ele>
        <time>2011-03-04T01:08:34Z</time>
      </trkpt>
      <trkpt lat="47.444262960925698" lon="10.535159027203918">
        <ele>1621</ele>
        <time>2011-03-04T01:08:35Z</time>
      </trkpt>
      <trkpt lat="47.444297997280955" lon="10.535242008045316">
        <ele>1621</ele>
        <time>2011-03-04T01:08:37Z</time>
      </trkpt>
      <trkpt lat="47.444302020594478" lon="10.53529598750174">
        <ele>1621</ele>
        <time>2011-03-04T01:08:39Z</time>
      </trkpt>
      <trkpt lat="47.444334039464593" lon="10.535438982769847">
        <ele>1602</ele>
        <time>2011-03-04T01:08:43Z</time>
      </trkpt>
      <trkpt lat="47.444359017536044" lon="10.535563034936786">
        <ele>1602</ele>
        <time>2011-03-04T01:08:46Z</time>
      </trkpt>
      <trkpt lat="47.444428000599146" lon="10.535607961937785">
        <ele>1602</ele>
        <time>2011-03-04T01:08:49Z</time>
      </trkpt>
      <trkpt lat="47.44452103972435" lon="10.535645009949803">
        <ele>1602</ele>
        <time>2011-03-04T01:08:53Z</time>
      </trkpt>
      <trkpt lat="47.444637967273593" lon="10.535742994397879">
        <ele>1591</ele>
        <time>2011-03-04T01:08:59Z</time>
      </trkpt>
      <trkpt lat="47.444641990587115" lon="10.535775013267994">
        <ele>1591</ele>
        <time>2011-03-04T01:09:00Z</time>
      </trkpt>
      <trkpt lat="47.444708961993456" lon="10.535840978845954">
        <ele>1591</ele>
        <time>2011-03-04T01:09:03Z</time>
      </trkpt>
      <trkpt lat="47.444823039695621" lon="10.53589696995914">
        <ele>1591</ele>
        <time>2011-03-04T01:09:08Z</time>
      </trkpt>
      <trkpt lat="47.444863021373749" lon="10.535922031849623">
        <ele>1591</ele>
        <time>2011-03-04T01:09:09Z</time>
      </trkpt>
      <trkpt lat="47.445047004148364" lon="10.535924965515733">
        <ele>1591</ele>
        <time>2011-03-04T01:09:17Z</time>
      </trkpt>
      <trkpt lat="47.445136019960046" lon="10.535972993820906">
        <ele>1591</ele>
        <time>2011-03-04T01:09:20Z</time>
      </trkpt>
      <trkpt lat="47.445178013294935" lon="10.536000989377499">
        <ele>1591</ele>
        <time>2011-03-04T01:09:22Z</time>
      </trkpt>
      <trkpt lat="47.445387979969382" lon="10.536221014335752">
        <ele>1591</ele>
        <time>2011-03-04T01:09:33Z</time>
      </trkpt>
      <trkpt lat="47.445527035742998" lon="10.536291003227234">
        <ele>1572</ele>
        <time>2011-03-04T01:09:38Z</time>
      </trkpt>
      <trkpt lat="47.445566011592746" lon="10.536315981298685">
        <ele>1572</ele>
        <time>2011-03-04T01:09:40Z</time>
      </trkpt>
      <trkpt lat="47.445595012977719" lon="10.536322016268969">
        <ele>1572</ele>
        <time>2011-03-04T01:09:41Z</time>
      </trkpt>
      <trkpt lat="47.445696014910936" lon="10.536402985453606">
        <ele>1572</ele>
        <time>2011-03-04T01:09:46Z</time>
      </trkpt>
      <trkpt lat="47.445700960233808" lon="10.53647699765861">
        <ele>1572</ele>
        <time>2011-03-04T01:09:48Z</time>
      </trkpt>
      <trkpt lat="47.445756029337645" lon="10.536656035110354">
        <ele>1572</ele>
        <time>2011-03-04T01:09:53Z</time>
      </trkpt>
      <trkpt lat="47.445832975208759" lon="10.536829959601164">
        <ele>1572</ele>
        <time>2011-03-04T01:09:59Z</time>
      </trkpt>
      <trkpt lat="47.445932971313596" lon="10.537044033408165">
        <ele>1572</ele>
        <time>2011-03-04T01:10:06Z</time>
      </trkpt>
      <trkpt lat="47.446008995175362" lon="10.537198008969426">
        <ele>1560</ele>
        <time>2011-03-04T01:10:11Z</time>
      </trkpt>
      <trkpt lat="47.446146039292216" lon="10.537376962602139">
        <ele>1560</ele>
        <time>2011-03-04T01:10:18Z</time>
      </trkpt>
      <trkpt lat="47.446184009313583" lon="10.537428008392453">
        <ele>1560</ele>
        <time>2011-03-04T01:10:20Z</time>
      </trkpt>
      <trkpt lat="47.446280987933278" lon="10.53755097091198">
        <ele>1549</ele>
        <time>2011-03-04T01:10:26Z</time>
      </trkpt>
      <trkpt lat="47.446301020681858" lon="10.537574021145701">
        <ele>1549</ele>
        <time>2011-03-04T01:10:27Z</time>
      </trkpt>
      <trkpt lat="47.446538982912898" lon="10.537660019472241">
        <ele>1549</ele>
        <time>2011-03-04T01:10:36Z</time>
      </trkpt>
      <trkpt lat="47.446667980402708" lon="10.537633029744029">
        <ele>1549</ele>
        <time>2011-03-04T01:10:42Z</time>
      </trkpt>
      <trkpt lat="47.446759007871151" lon="10.53754803724587">
        <ele>1549</ele>
        <time>2011-03-04T01:10:46Z</time>
      </trkpt>
      <trkpt lat="47.446841988712549" lon="10.537557005882263">
        <ele>1549</ele>
        <time>2011-03-04T01:10:49Z</time>
      </trkpt>
      <trkpt lat="47.446897979825735" lon="10.537538984790444">
        <ele>1549</ele>
        <time>2011-03-04T01:10:52Z</time>
      </trkpt>
      <trkpt lat="47.447017002850771" lon="10.537706958130002">
        <ele>1549</ele>
        <time>2011-03-04T01:10:58Z</time>
      </trkpt>
      <trkpt lat="47.447268962860107" lon="10.537790022790432">
        <ele>1539</ele>
        <time>2011-03-04T01:11:08Z</time>
      </trkpt>
      <trkpt lat="47.44731699116528" lon="10.537834027782083">
        <ele>1539</ele>
        <time>2011-03-04T01:11:11Z</time>
      </trkpt>
      <trkpt lat="47.447381028905511" lon="10.537881972268224">
        <ele>1539</ele>
        <time>2011-03-04T01:11:14Z</time>
      </trkpt>
      <trkpt lat="47.447555959224701" lon="10.537910973653197">
        <ele>1539</ele>
        <time>2011-03-04T01:11:21Z</time>
      </trkpt>
      <trkpt lat="47.447615973651409" lon="10.537902005016804">
        <ele>1539</ele>
        <time>2011-03-04T01:11:23Z</time>
      </trkpt>
      <trkpt lat="47.447656961157918" lon="10.53789597004652">
        <ele>1539</ele>
        <time>2011-03-04T01:11:25Z</time>
      </trkpt>
      <trkpt lat="47.447668025270104" lon="10.537910973653197">
        <ele>1539</ele>
        <time>2011-03-04T01:11:25Z</time>
      </trkpt>
      <trkpt lat="47.447716975584626" lon="10.538152037188411">
        <ele>1526</ele>
        <time>2011-03-04T01:11:32Z</time>
      </trkpt>
      <trkpt lat="47.447814038023353" lon="10.538213979452848">
        <ele>1526</ele>
        <time>2011-03-04T01:11:36Z</time>
      </trkpt>
      <trkpt lat="47.447892995551229" lon="10.538296038284898">
        <ele>1526</ele>
        <time>2011-03-04T01:11:40Z</time>
      </trkpt>
      <trkpt lat="47.447964996099472" lon="10.538308024406433">
        <ele>1521</ele>
        <time>2011-03-04T01:11:43Z</time>
      </trkpt>
      <trkpt lat="47.448026016354561" lon="10.538403997197747">
        <ele>1521</ele>
        <time>2011-03-04T01:11:47Z</time>
      </trkpt>
      <trkpt lat="47.448069015517831" lon="10.538467029109597">
        <ele>1521</ele>
        <time>2011-03-04T01:11:49Z</time>
      </trkpt>
      <trkpt lat="47.448188038542867" lon="10.538497036322951">
        <ele>1521</ele>
        <time>2011-03-04T01:11:54Z</time>
      </trkpt>
      <trkpt lat="47.44819600135088" lon="10.538498964160681">
        <ele>1521</ele>
        <time>2011-03-04T01:11:54Z</time>
      </trkpt>
      <trkpt lat="47.448266996070743" lon="10.538610024377704">
        <ele>1521</ele>
        <time>2011-03-04T01:11:58Z</time>
      </trkpt>
      <trkpt lat="47.448402028530836" lon="10.538616981357336">
        <ele>1521</ele>
        <time>2011-03-04T01:12:04Z</time>
      </trkpt>
      <trkpt lat="47.448464976623654" lon="10.538756959140301">
        <ele>1499</ele>
        <time>2011-03-04T01:12:08Z</time>
      </trkpt>
      <trkpt lat="47.448484003543854" lon="10.538812028244138">
        <ele>1499</ele>
        <time>2011-03-04T01:12:10Z</time>
      </trkpt>
      <trkpt lat="47.448578970506787" lon="10.539068011566997">
        <ele>1499</ele>
        <time>2011-03-04T01:12:18Z</time>
      </trkpt>
      <trkpt lat="47.448591962456703" lon="10.539187034592032">
        <ele>1499</ele>
        <time>2011-03-04T01:12:21Z</time>
      </trkpt>
      <trkpt lat="47.448672009631991" lon="10.539357019588351">
        <ele>1499</ele>
        <time>2011-03-04T01:12:27Z</time>
      </trkpt>
      <trkpt lat="47.448703022673726" lon="10.539431031793356">
        <ele>1499</ele>
        <time>2011-03-04T01:12:29Z</time>
      </trkpt>
      <trkpt lat="47.448773011565208" lon="10.539602022618055">
        <ele>1485</ele>
        <time>2011-03-04T01:12:35Z</time>
      </trkpt>
      <trkpt lat="47.448867978528142" lon="10.539751974865794">
        <ele>1485</ele>
        <time>2011-03-04T01:12:40Z</time>
      </trkpt>
      <trkpt lat="47.448913995176554" lon="10.539920032024384">
        <ele>1485</ele>
        <time>2011-03-04T01:12:45Z</time>
      </trkpt>
      <trkpt lat="47.449007034301758" lon="10.540181966498494">
        <ele>1485</ele>
        <time>2011-03-04T01:12:53Z</time>
      </trkpt>
      <trkpt lat="47.449171990156174" lon="10.540284980088472">
        <ele>1485</ele>
        <time>2011-03-04T01:13:00Z</time>
      </trkpt>
      <trkpt lat="47.449250025674701" lon="10.540377013385296">
        <ele>1485</ele>
        <time>2011-03-04T01:13:04Z</time>
      </trkpt>
      <trkpt lat="47.449290007352829" lon="10.54047298617661">
        <ele>1469</ele>
        <time>2011-03-04T01:13:07Z</time>
      </trkpt>
      <trkpt lat="47.449410958215594" lon="10.540650011971593">
        <ele>1469</ele>
        <time>2011-03-04T01:13:14Z</time>
      </trkpt>
      <trkpt lat="47.449427973479033" lon="10.540668033063412">
        <ele>1469</ele>
        <time>2011-03-04T01:13:15Z</time>
      </trkpt>
      <trkpt lat="47.449584966525435" lon="10.540909012779593">
        <ele>1471</ele>
        <time>2011-03-04T01:13:24Z</time>
      </trkpt>
      <trkpt lat="47.449620002880692" lon="10.540987970307469">
        <ele>1471</ele>
        <time>2011-03-04T01:13:27Z</time>
      </trkpt>
      <trkpt lat="47.449706001207232" lon="10.541060976684093">
        <ele>1471</ele>
        <time>2011-03-04T01:13:31Z</time>
      </trkpt>
      <trkpt lat="47.44978797622025" lon="10.541206989437342">
        <ele>1471</ele>
        <time>2011-03-04T01:13:36Z</time>
      </trkpt>
      <trkpt lat="47.449901970103383" lon="10.541347973048687">
        <ele>1450</ele>
        <time>2011-03-04T01:13:42Z</time>
      </trkpt>
      <trkpt lat="47.449910016730428" lon="10.541359959170222">
        <ele>1450</ele>
        <time>2011-03-04T01:13:42Z</time>
      </trkpt>
      <trkpt lat="47.449966007843614" lon="10.541448974981904">
        <ele>1450</ele>
        <time>2011-03-04T01:13:45Z</time>
      </trkpt>
      <trkpt lat="47.449994003400207" lon="10.541602028533816">
        <ele>1450</ele>
        <time>2011-03-04T01:13:50Z</time>
      </trkpt>
      <trkpt lat="47.450003977864981" lon="10.541692972183228">
        <ele>1450</ele>
        <time>2011-03-04T01:13:52Z</time>
      </trkpt>
      <trkpt lat="47.45006499812007" lon="10.541727002710104">
        <ele>1450</ele>
        <time>2011-03-04T01:13:55Z</time>
      </trkpt>
      <trkpt lat="47.450081007555127" lon="10.541772013530135">
        <ele>1450</ele>
        <time>2011-03-04T01:13:56Z</time>
      </trkpt>
      <trkpt lat="47.450135992839932" lon="10.541878966614604">
        <ele>1450</ele>
        <time>2011-03-04T01:14:00Z</time>
      </trkpt>
      <trkpt lat="47.45013196952641" lon="10.541909979656339">
        <ele>1450</ele>
        <time>2011-03-04T01:14:01Z</time>
      </trkpt>
      <trkpt lat="47.450128030031919" lon="10.542037971317768">
        <ele>1450</ele>
        <time>2011-03-04T01:14:04Z</time>
      </trkpt>
      <trkpt lat="47.450035996735096" lon="10.542090022936463">
        <ele>1439</ele>
        <time>2011-03-04T01:14:08Z</time>
      </trkpt>
      <trkpt lat="47.450095005333424" lon="10.54202196188271">
        <ele>1450</ele>
        <time>2011-03-04T01:14:11Z</time>
      </trkpt>
      <trkpt lat="47.450143033638597" lon="10.542141990736127">
        <ele>1439</ele>
        <time>2011-03-04T01:14:15Z</time>
      </trkpt>
      <trkpt lat="47.45034696534276" lon="10.542210973799229">
        <ele>1439</ele>
        <time>2011-03-04T01:14:23Z</time>
      </trkpt>
      <trkpt lat="47.450461965054274" lon="10.542434016242623">
        <ele>1434</ele>
        <time>2011-03-04T01:14:31Z</time>
      </trkpt>
      <trkpt lat="47.450503958389163" lon="10.542519008740783">
        <ele>1434</ele>
        <time>2011-03-04T01:14:34Z</time>
      </trkpt>
      <trkpt lat="47.450575958937407" lon="10.542624033987522">
        <ele>1434</ele>
        <time>2011-03-04T01:14:38Z</time>
      </trkpt>
      <trkpt lat="47.450580988079309" lon="10.542844980955124">
        <ele>1434</ele>
        <time>2011-03-04T01:14:44Z</time>
      </trkpt>
      <trkpt lat="47.45058199390769" lon="10.542859984561801">
        <ele>1434</ele>
        <time>2011-03-04T01:14:44Z</time>
      </trkpt>
      <trkpt lat="47.450558021664619" lon="10.542967021465302">
        <ele>1418</ele>
        <time>2011-03-04T01:14:47Z</time>
      </trkpt>
      <trkpt lat="47.450663968920708" lon="10.543185034766793">
        <ele>1418</ele>
        <time>2011-03-04T01:14:54Z</time>
      </trkpt>
      <trkpt lat="47.450732029974461" lon="10.54332903586328">
        <ele>1418</ele>
        <time>2011-03-04T01:14:59Z</time>
      </trkpt>
      <trkpt lat="47.450879970565438" lon="10.543605973944068">
        <ele>1418</ele>
        <time>2011-03-04T01:15:09Z</time>
      </trkpt>
      <trkpt lat="47.450887011364102" lon="10.543611003085971">
        <ele>1418</ele>
        <time>2011-03-04T01:15:09Z</time>
      </trkpt>
      <trkpt lat="47.450987007468939" lon="10.54367596283555">
        <ele>1418</ele>
        <time>2011-03-04T01:15:13Z</time>
      </trkpt>
      <trkpt lat="47.451151963323355" lon="10.543901016935706">
        <ele>1410</ele>
        <time>2011-03-04T01:15:22Z</time>
      </trkpt>
      <trkpt lat="47.451257994398475" lon="10.544053986668587">
        <ele>1404</ele>
        <time>2011-03-04T01:15:28Z</time>
      </trkpt>
      <trkpt lat="47.451377017423511" lon="10.544201005250216">
        <ele>1404</ele>
        <time>2011-03-04T01:15:34Z</time>
      </trkpt>
      <trkpt lat="47.451415993273258" lon="10.544266970828176">
        <ele>1404</ele>
        <time>2011-03-04T01:15:37Z</time>
      </trkpt>
      <trkpt lat="47.451500985771418" lon="10.54438297636807">
        <ele>1404</ele>
        <time>2011-03-04T01:15:41Z</time>
      </trkpt>
      <trkpt lat="47.451583966612816" lon="10.544603001326323">
        <ele>1388</ele>
        <time>2011-03-04T01:15:48Z</time>
      </trkpt>
      <trkpt lat="47.45159100741148" lon="10.544636026024818">
        <ele>1388</ele>
        <time>2011-03-04T01:15:49Z</time>
      </trkpt>
      <trkpt lat="47.451615985482931" lon="10.544698974117637">
        <ele>1388</ele>
        <time>2011-03-04T01:15:51Z</time>
      </trkpt>
      <trkpt lat="47.451667031273246" lon="10.544956969097257">
        <ele>1388</ele>
        <time>2011-03-04T01:15:59Z</time>
      </trkpt>
      <trkpt lat="47.451666025444865" lon="10.545000974088907">
        <ele>1388</ele>
        <time>2011-03-04T01:16:00Z</time>
      </trkpt>
      <trkpt lat="47.451586984097958" lon="10.545162996277213">
        <ele>1388</ele>
        <time>2011-03-04T01:16:05Z</time>
      </trkpt>
      <trkpt lat="47.451625037938356" lon="10.54515796713531">
        <ele>1388</ele>
        <time>2011-03-04T01:16:07Z</time>
      </trkpt>
      <trkpt lat="47.451689997687936" lon="10.545127037912607">
        <ele>1388</ele>
        <time>2011-03-04T01:16:09Z</time>
      </trkpt>
      <trkpt lat="47.451815977692604" lon="10.545254023745656">
        <ele>1388</ele>
        <time>2011-03-04T01:16:15Z</time>
      </trkpt>
      <trkpt lat="47.451913962140679" lon="10.545401964336634">
        <ele>1388</ele>
        <time>2011-03-04T01:16:21Z</time>
      </trkpt>
      <trkpt lat="47.452036002650857" lon="10.545573960989714">
        <ele>1382</ele>
        <time>2011-03-04T01:16:28Z</time>
      </trkpt>
      <trkpt lat="47.452102974057198" lon="10.545684015378356">
        <ele>1382</ele>
        <time>2011-03-04T01:16:32Z</time>
      </trkpt>
      <trkpt lat="47.452176986262202" lon="10.545826004818082">
        <ele>1382</ele>
        <time>2011-03-04T01:16:37Z</time>
      </trkpt>
      <trkpt lat="47.452296009287238" lon="10.546115012839437">
        <ele>1382</ele>
        <time>2011-03-04T01:16:46Z</time>
      </trkpt>
      <trkpt lat="47.452360969036818" lon="10.546387005597353">
        <ele>1367</ele>
        <time>2011-03-04T01:16:54Z</time>
      </trkpt>
      <trkpt lat="47.452360969036818" lon="10.546409972012043">
        <ele>1367</ele>
        <time>2011-03-04T01:16:54Z</time>
      </trkpt>
      <trkpt lat="47.452373960986733" lon="10.546439979225397">
        <ele>1367</ele>
        <time>2011-03-04T01:16:55Z</time>
      </trkpt>
      <trkpt lat="47.452430035918951" lon="10.546530000865459">
        <ele>1367</ele>
        <time>2011-03-04T01:16:59Z</time>
      </trkpt>
      <trkpt lat="47.452502036467195" lon="10.546856978908181">
        <ele>1367</ele>
        <time>2011-03-04T01:17:08Z</time>
      </trkpt>
      <trkpt lat="47.452533971518278" lon="10.54700399748981">
        <ele>1367</ele>
        <time>2011-03-04T01:17:12Z</time>
      </trkpt>
      <trkpt lat="47.45256096124649" lon="10.547149004414678">
        <ele>1358</ele>
        <time>2011-03-04T01:17:16Z</time>
      </trkpt>
      <trkpt lat="47.452631033957005" lon="10.547462990507483">
        <ele>1358</ele>
        <time>2011-03-04T01:17:25Z</time>
      </trkpt>
      <trkpt lat="47.452647965401411" lon="10.547503978013992">
        <ele>1358</ele>
        <time>2011-03-04T01:17:26Z</time>
      </trkpt>
      <trkpt lat="47.452716026455164" lon="10.547705981880426">
        <ele>1358</ele>
        <time>2011-03-04T01:17:32Z</time>
      </trkpt>
      <trkpt lat="47.452774029225111" lon="10.547745041549206">
        <ele>1358</ele>
        <time>2011-03-04T01:17:35Z</time>
      </trkpt>
      <trkpt lat="47.452856004238129" lon="10.547943022102118">
        <ele>1352</ele>
        <time>2011-03-04T01:17:41Z</time>
      </trkpt>
      <trkpt lat="47.45285902172327" lon="10.548160029575229">
        <ele>1352</ele>
        <time>2011-03-04T01:17:47Z</time>
      </trkpt>
      <trkpt lat="47.452857010066509" lon="10.548171009868383">
        <ele>1352</ele>
        <time>2011-03-04T01:17:47Z</time>
      </trkpt>
      <trkpt lat="47.452906966209412" lon="10.548469992354512">
        <ele>1352</ele>
        <time>2011-03-04T01:17:56Z</time>
      </trkpt>
      <trkpt lat="47.452904032543302" lon="10.548526989296079">
        <ele>1352</ele>
        <time>2011-03-04T01:17:57Z</time>
      </trkpt>
      <trkpt lat="47.452897997573018" lon="10.548677025362849">
        <ele>1352</ele>
        <time>2011-03-04T01:18:01Z</time>
      </trkpt>
      <trkpt lat="47.453045016154647" lon="10.548969972878695">
        <ele>1342</ele>
        <time>2011-03-04T01:18:11Z</time>
      </trkpt>
      <trkpt lat="47.453106958419085" lon="10.549067035317421">
        <ele>1342</ele>
        <time>2011-03-04T01:18:15Z</time>
      </trkpt>
      <trkpt lat="47.453300999477506" lon="10.549134006723762">
        <ele>1342</ele>
        <time>2011-03-04T01:18:23Z</time>
      </trkpt>
      <trkpt lat="47.453317008912563" lon="10.549199972301722">
        <ele>1342</ele>
        <time>2011-03-04T01:18:25Z</time>
      </trkpt>
      <trkpt lat="47.453325977548957" lon="10.549269961193204">
        <ele>1342</ele>
        <time>2011-03-04T01:18:27Z</time>
      </trkpt>
      <trkpt lat="47.45335397310555" lon="10.549594005569816">
        <ele>1328</ele>
        <time>2011-03-04T01:18:36Z</time>
      </trkpt>
      <trkpt lat="47.453369982540607" lon="10.549780000001192">
        <ele>1328</ele>
        <time>2011-03-04T01:18:41Z</time>
      </trkpt>
      <trkpt lat="47.453456986695528" lon="10.550040006637573">
        <ele>1328</ele>
        <time>2011-03-04T01:18:48Z</time>
      </trkpt>
      <trkpt lat="47.453509038314223" lon="10.55029003880918">
        <ele>1328</ele>
        <time>2011-03-04T01:18:56Z</time>
      </trkpt>
      <trkpt lat="47.453615991398692" lon="10.550583992153406">
        <ele>1323</ele>
        <time>2011-03-04T01:19:05Z</time>
      </trkpt>
      <trkpt lat="47.453673994168639" lon="10.550721036270261">
        <ele>1323</ele>
        <time>2011-03-04T01:19:09Z</time>
      </trkpt>
      <trkpt lat="47.453837022185326" lon="10.550937037914991">
        <ele>1336</ele>
        <time>2011-03-04T01:19:18Z</time>
      </trkpt>
      <trkpt lat="47.453865017741919" lon="10.551220010966063">
        <ele>1336</ele>
        <time>2011-03-04T01:19:25Z</time>
      </trkpt>
      <trkpt lat="47.453859988600016" lon="10.55125798098743">
        <ele>1322</ele>
        <time>2011-03-04T01:19:27Z</time>
      </trkpt>
      <trkpt lat="47.45387096889317" lon="10.55160197429359">
        <ele>1322</ele>
        <time>2011-03-04T01:19:36Z</time>
      </trkpt>
      <trkpt lat="47.453883960843086" lon="10.551704987883568">
        <ele>1322</ele>
        <time>2011-03-04T01:19:39Z</time>
      </trkpt>
      <trkpt lat="47.453882033005357" lon="10.552022997289896">
        <ele>1322</ele>
        <time>2011-03-04T01:19:47Z</time>
      </trkpt>
      <trkpt lat="47.453883960843086" lon="10.552039006724954">
        <ele>1322</ele>
        <time>2011-03-04T01:19:48Z</time>
      </trkpt>
      <trkpt lat="47.453926037997007" lon="10.55224696174264">
        <ele>1311</ele>
        <time>2011-03-04T01:19:54Z</time>
      </trkpt>
      <trkpt lat="47.453937018290162" lon="10.552343018352985">
        <ele>1311</ele>
        <time>2011-03-04T01:19:56Z</time>
      </trkpt>
      <trkpt lat="47.454027039930224" lon="10.552428010851145">
        <ele>1311</ele>
        <time>2011-03-04T01:20:01Z</time>
      </trkpt>
      <trkpt lat="47.453989991918206" lon="10.55252498947084">
        <ele>1311</ele>
        <time>2011-03-04T01:20:04Z</time>
      </trkpt>
      <trkpt lat="47.453985968604684" lon="10.552666978910565">
        <ele>1311</ele>
        <time>2011-03-04T01:20:07Z</time>
      </trkpt>
      <trkpt lat="47.454012036323547" lon="10.552796982228756">
        <ele>1311</ele>
        <time>2011-03-04T01:20:11Z</time>
      </trkpt>
      <trkpt lat="47.45403902605176" lon="10.552910976111889">
        <ele>1311</ele>
        <time>2011-03-04T01:20:14Z</time>
      </trkpt>
      <trkpt lat="47.454047994688153" lon="10.552988005802035">
        <ele>1302</ele>
        <time>2011-03-04T01:20:16Z</time>
      </trkpt>
      <trkpt lat="47.454066015779972" lon="10.553314983844757">
        <ele>1302</ele>
        <time>2011-03-04T01:20:25Z</time>
      </trkpt>
      <trkpt lat="47.454156959429383" lon="10.553579013794661">
        <ele>1302</ele>
        <time>2011-03-04T01:20:33Z</time>
      </trkpt>
      <trkpt lat="47.454183027148247" lon="10.553670963272452">
        <ele>1302</ele>
        <time>2011-03-04T01:20:36Z</time>
      </trkpt>
      <trkpt lat="47.454197024926543" lon="10.5538360029459">
        <ele>1295</ele>
        <time>2011-03-04T01:20:41Z</time>
      </trkpt>
      <trkpt lat="47.454246981069446" lon="10.554121993482113">
        <ele>1295</ele>
        <time>2011-03-04T01:20:49Z</time>
      </trkpt>
      <trkpt lat="47.454266007989645" lon="10.554438997060061">
        <ele>1295</ele>
        <time>2011-03-04T01:20:57Z</time>
      </trkpt>
      <trkpt lat="47.4542769882828" lon="10.55465399287641">
        <ele>1287</ele>
        <time>2011-03-04T01:21:03Z</time>
      </trkpt>
      <trkpt lat="47.454278999939561" lon="10.554709983989596">
        <ele>1287</ele>
        <time>2011-03-04T01:21:05Z</time>
      </trkpt>
      <trkpt lat="47.454220997169614" lon="10.555048026144505">
        <ele>1287</ele>
        <time>2011-03-04T01:21:14Z</time>
      </trkpt>
      <trkpt lat="47.454301966354251" lon="10.555379027500749">
        <ele>1287</ele>
        <time>2011-03-04T01:21:23Z</time>
      </trkpt>
      <trkpt lat="47.45434395968914" lon="10.555666023865342">
        <ele>1279</ele>
        <time>2011-03-04T01:21:31Z</time>
      </trkpt>
      <trkpt lat="47.454359969124198" lon="10.555831985548139">
        <ele>1279</ele>
        <time>2011-03-04T01:21:36Z</time>
      </trkpt>
      <trkpt lat="47.454375978559256" lon="10.555873978883028">
        <ele>1279</ele>
        <time>2011-03-04T01:21:37Z</time>
      </trkpt>
      <trkpt lat="47.454412020742893" lon="10.55617899633944">
        <ele>1279</ele>
        <time>2011-03-04T01:21:46Z</time>
      </trkpt>
      <trkpt lat="47.454327028244734" lon="10.556508991867304">
        <ele>1271</ele>
        <time>2011-03-04T01:21:55Z</time>
      </trkpt>
      <trkpt lat="47.454309007152915" lon="10.556903025135398">
        <ele>1271</ele>
        <time>2011-03-04T01:22:06Z</time>
      </trkpt>
      <trkpt lat="47.454301966354251" lon="10.557314995676279">
        <ele>1266</ele>
        <time>2011-03-04T01:22:17Z</time>
      </trkpt>
      <trkpt lat="47.454335996881127" lon="10.557565027847886">
        <ele>1266</ele>
        <time>2011-03-04T01:22:24Z</time>
      </trkpt>
      <trkpt lat="47.454332979395986" lon="10.558056961745024">
        <ele>1263</ele>
        <time>2011-03-04T01:22:37Z</time>
      </trkpt>
      <trkpt lat="47.454361980780959" lon="10.558214038610458">
        <ele>1263</ele>
        <time>2011-03-04T01:22:42Z</time>
      </trkpt>
      <trkpt lat="47.45436298660934" lon="10.558511009439826">
        <ele>1263</ele>
        <time>2011-03-04T01:22:50Z</time>
      </trkpt>
      <trkpt lat="47.454370027408004" lon="10.558645036071539">
        <ele>1263</ele>
        <time>2011-03-04T01:22:53Z</time>
      </trkpt>
      <trkpt lat="47.454392993822694" lon="10.5587990116328">
        <ele>1263</ele>
        <time>2011-03-04T01:22:58Z</time>
      </trkpt>
      <trkpt lat="47.454439010471106" lon="10.559109980240464">
        <ele>1263</ele>
        <time>2011-03-04T01:23:06Z</time>
      </trkpt>
      <trkpt lat="47.454475974664092" lon="10.559385996311903">
        <ele>1263</ele>
        <time>2011-03-04T01:23:14Z</time>
      </trkpt>
      <trkpt lat="47.454521991312504" lon="10.559714986011386">
        <ele>1262</ele>
        <time>2011-03-04T01:23:23Z</time>
      </trkpt>
      <trkpt lat="47.454539006575942" lon="10.559730995446444">
        <ele>1262</ele>
        <time>2011-03-04T01:23:24Z</time>
      </trkpt>
      <trkpt lat="47.454544035717845" lon="10.559870973229408">
        <ele>1262</ele>
        <time>2011-03-04T01:23:28Z</time>
      </trkpt>
      <trkpt lat="47.454568007960916" lon="10.559969963505864">
        <ele>1262</ele>
        <time>2011-03-04T01:23:30Z</time>
      </trkpt>
      <trkpt lat="47.454554010182619" lon="10.560044981539249">
        <ele>1262</ele>
        <time>2011-03-04T01:23:33Z</time>
      </trkpt>
      <trkpt lat="47.454551998525858" lon="10.560237010940909">
        <ele>1262</ele>
        <time>2011-03-04T01:23:38Z</time>
      </trkpt>
      <trkpt lat="47.45453498326242" lon="10.560630038380623">
        <ele>1259</ele>
        <time>2011-03-04T01:23:48Z</time>
      </trkpt>
      <trkpt lat="47.454540012404323" lon="10.560838999226689">
        <ele>1259</ele>
        <time>2011-03-04T01:23:54Z</time>
      </trkpt>
      <trkpt lat="47.454526014626026" lon="10.561031028628349">
        <ele>1259</ele>
        <time>2011-03-04T01:23:59Z</time>
      </trkpt>
      <trkpt lat="47.454518973827362" lon="10.561193972826004">
        <ele>1259</ele>
        <time>2011-03-04T01:24:04Z</time>
      </trkpt>
      <trkpt lat="47.454496007412672" lon="10.561453979462385">
        <ele>1252</ele>
        <time>2011-03-04T01:24:11Z</time>
      </trkpt>
      <trkpt lat="47.454555016011" lon="10.561698982492089">
        <ele>1252</ele>
        <time>2011-03-04T01:24:18Z</time>
      </trkpt>
      <trkpt lat="47.454560967162251" lon="10.561857987195253">
        <ele>1252</ele>
        <time>2011-03-04T01:24:22Z</time>
      </trkpt>
      <trkpt lat="47.454627016559243" lon="10.562112964689732">
        <ele>1254</ele>
        <time>2011-03-04T01:24:30Z</time>
      </trkpt>
      <trkpt lat="47.454632967710495" lon="10.56212997995317">
        <ele>1254</ele>
        <time>2011-03-04T01:24:30Z</time>
      </trkpt>
      <trkpt lat="47.454635985195637" lon="10.562214972451329">
        <ele>1254</ele>
        <time>2011-03-04T01:24:32Z</time>
      </trkpt>
      <trkpt lat="47.454645037651062" lon="10.562523007392883">
        <ele>1254</ele>
        <time>2011-03-04T01:24:41Z</time>
      </trkpt>
      <trkpt lat="47.454715026542544" lon="10.56283900514245">
        <ele>1254</ele>
        <time>2011-03-04T01:24:50Z</time>
      </trkpt>
      <trkpt lat="47.454775962978601" lon="10.563123989850283">
        <ele>1237</ele>
        <time>2011-03-04T01:24:58Z</time>
      </trkpt>
      <trkpt lat="47.454833965748549" lon="10.563317025080323">
        <ele>1237</ele>
        <time>2011-03-04T01:25:03Z</time>
      </trkpt>
      <trkpt lat="47.454912001267076" lon="10.563473012298346">
        <ele>1237</ele>
        <time>2011-03-04T01:25:09Z</time>
      </trkpt>
      <trkpt lat="47.454939996823668" lon="10.563535960391164">
        <ele>1237</ele>
        <time>2011-03-04T01:25:11Z</time>
      </trkpt>
      <trkpt lat="47.454993976280093" lon="10.563773000612855">
        <ele>1223</ele>
        <time>2011-03-04T01:25:18Z</time>
      </trkpt>
      <trkpt lat="47.455040998756886" lon="10.564024038612843">
        <ele>1223</ele>
        <time>2011-03-04T01:25:25Z</time>
      </trkpt>
      <trkpt lat="47.455060025677085" lon="10.56425797753036">
        <ele>1223</ele>
        <time>2011-03-04T01:25:31Z</time>
      </trkpt>
      <trkpt lat="47.455067988485098" lon="10.564475990831852">
        <ele>1223</ele>
        <time>2011-03-04T01:25:37Z</time>
      </trkpt>
      <trkpt lat="47.455112999305129" lon="10.564741026610136">
        <ele>1214</ele>
        <time>2011-03-04T01:25:44Z</time>
      </trkpt>
      <trkpt lat="47.455108975991607" lon="10.564755024388433">
        <ele>1214</ele>
        <time>2011-03-04T01:25:45Z</time>
      </trkpt>
      <trkpt lat="47.455116016790271" lon="10.56481696665287">
        <ele>1214</ele>
        <time>2011-03-04T01:25:46Z</time>
      </trkpt>
      <trkpt lat="47.455111993476748" lon="10.56498602963984">
        <ele>1214</ele>
        <time>2011-03-04T01:25:51Z</time>
      </trkpt>
      <trkpt lat="47.455047033727169" lon="10.56530898436904">
        <ele>1214</ele>
        <time>2011-03-04T01:26:00Z</time>
      </trkpt>
      <trkpt lat="47.455120962113142" lon="10.565579971298575">
        <ele>1211</ele>
        <time>2011-03-04T01:26:08Z</time>
      </trkpt>
      <trkpt lat="47.455131020396948" lon="10.56560997851193">
        <ele>1211</ele>
        <time>2011-03-04T01:26:09Z</time>
      </trkpt>
      <trkpt lat="47.455096989870071" lon="10.565750962123275">
        <ele>1211</ele>
        <time>2011-03-04T01:26:13Z</time>
      </trkpt>
      <trkpt lat="47.455073017627001" lon="10.566066959872842">
        <ele>1211</ele>
        <time>2011-03-04T01:26:22Z</time>
      </trkpt>
      <trkpt lat="47.455038987100124" lon="10.566264018416405">
        <ele>1210</ele>
        <time>2011-03-04T01:26:27Z</time>
      </trkpt>
      <trkpt lat="47.455061031505466" lon="10.566440960392356">
        <ele>1210</ele>
        <time>2011-03-04T01:26:32Z</time>
      </trkpt>
      <trkpt lat="47.455023983493447" lon="10.566743966192007">
        <ele>1210</ele>
        <time>2011-03-04T01:26:40Z</time>
      </trkpt>
      <trkpt lat="47.455033035948873" lon="10.566844968125224">
        <ele>1210</ele>
        <time>2011-03-04T01:26:43Z</time>
      </trkpt>
      <trkpt lat="47.455006968230009" lon="10.567010007798672">
        <ele>1210</ele>
        <time>2011-03-04T01:26:48Z</time>
      </trkpt>
      <trkpt lat="47.455011997371912" lon="10.567332962527871">
        <ele>1207</ele>
        <time>2011-03-04T01:26:56Z</time>
      </trkpt>
      <trkpt lat="47.45502800680697" lon="10.567392976954579">
        <ele>1207</ele>
        <time>2011-03-04T01:26:58Z</time>
      </trkpt>
      <trkpt lat="47.454953994601965" lon="10.567600009962916">
        <ele>1207</ele>
        <time>2011-03-04T01:27:04Z</time>
      </trkpt>
      <trkpt lat="47.454886017367244" lon="10.567790027707815">
        <ele>1207</ele>
        <time>2011-03-04T01:27:10Z</time>
      </trkpt>
      <trkpt lat="47.454852992668748" lon="10.567964036017656">
        <ele>1206</ele>
        <time>2011-03-04T01:27:15Z</time>
      </trkpt>
      <trkpt lat="47.454850981011987" lon="10.567979961633682">
        <ele>1206</ele>
        <time>2011-03-04T01:27:16Z</time>
      </trkpt>
      <trkpt lat="47.45483698323369" lon="10.568051040172577">
        <ele>1206</ele>
        <time>2011-03-04T01:27:18Z</time>
      </trkpt>
      <trkpt lat="47.454801024869084" lon="10.567984990775585">
        <ele>1206</ele>
        <time>2011-03-04T01:27:20Z</time>
      </trkpt>
      <trkpt lat="47.454790966585279" lon="10.568004017695785">
        <ele>1206</ele>
        <time>2011-03-04T01:27:21Z</time>
      </trkpt>
      <trkpt lat="47.454765988513827" lon="10.568153969943523">
        <ele>1206</ele>
        <time>2011-03-04T01:27:25Z</time>
      </trkpt>
      <trkpt lat="47.454752996563911" lon="10.568197974935174">
        <ele>1206</ele>
        <time>2011-03-04T01:27:26Z</time>
      </trkpt>
      <trkpt lat="47.454731035977602" lon="10.568260001018643">
        <ele>1206</ele>
        <time>2011-03-04T01:27:28Z</time>
      </trkpt>
      <trkpt lat="47.454714020714164" lon="10.568364020437002">
        <ele>1206</ele>
        <time>2011-03-04T01:27:31Z</time>
      </trkpt>
      <trkpt lat="47.454709997400641" lon="10.568391010165215">
        <ele>1206</ele>
        <time>2011-03-04T01:27:32Z</time>
      </trkpt>
      <trkpt lat="47.454682001844049" lon="10.568605000153184">
        <ele>1206</ele>
        <time>2011-03-04T01:27:37Z</time>
      </trkpt>
      <trkpt lat="47.454653000459075" lon="10.568743972107768">
        <ele>1206</ele>
        <time>2011-03-04T01:27:41Z</time>
      </trkpt>
      <trkpt lat="47.45459902100265" lon="10.569205982610583">
        <ele>1201</ele>
        <time>2011-03-04T01:27:54Z</time>
      </trkpt>
      <trkpt lat="47.454553004354239" lon="10.569559028372169">
        <ele>1187</ele>
        <time>2011-03-04T01:28:04Z</time>
      </trkpt>
      <trkpt lat="47.454517967998981" lon="10.569622982293367">
        <ele>1193</ele>
        <time>2011-03-04T01:28:06Z</time>
      </trkpt>
      <trkpt lat="47.454545041546226" lon="10.569637985900044">
        <ele>1193</ele>
        <time>2011-03-04T01:28:07Z</time>
      </trkpt>
      <trkpt lat="47.45457898825407" lon="10.569662963971496">
        <ele>1193</ele>
        <time>2011-03-04T01:28:09Z</time>
      </trkpt>
      <trkpt lat="47.454616958275437" lon="10.569760026410222">
        <ele>1192</ele>
        <time>2011-03-04T01:28:12Z</time>
      </trkpt>
      <trkpt lat="47.454697005450726" lon="10.569984996691346">
        <ele>1192</ele>
        <time>2011-03-04T01:28:19Z</time>
      </trkpt>
      <trkpt lat="47.454745033755898" lon="10.570175014436245">
        <ele>1192</ele>
        <time>2011-03-04T01:28:24Z</time>
      </trkpt>
      <trkpt lat="47.454671021550894" lon="10.570203009992838">
        <ele>1192</ele>
        <time>2011-03-04T01:28:27Z</time>
      </trkpt>
      <trkpt lat="47.45464202016592" lon="10.570266963914037">
        <ele>1192</ele>
        <time>2011-03-04T01:28:29Z</time>
      </trkpt>
      <trkpt lat="47.454514028504491" lon="10.570423034951091">
        <ele>1211</ele>
        <time>2011-03-04T01:28:36Z</time>
      </trkpt>
      <trkpt lat="47.45449298992753" lon="10.570423034951091">
        <ele>1211</ele>
        <time>2011-03-04T01:28:37Z</time>
      </trkpt>
      <trkpt lat="47.45440699160099" lon="10.570472991093993">
        <ele>1211</ele>
        <time>2011-03-04T01:28:40Z</time>
      </trkpt>
      <trkpt lat="47.45440699160099" lon="10.570482965558767">
        <ele>1211</ele>
        <time>2011-03-04T01:28:41Z</time>
      </trkpt>
      <trkpt lat="47.454429036006331" lon="10.570626966655254">
        <ele>1211</ele>
        <time>2011-03-04T01:28:45Z</time>
      </trkpt>
      <trkpt lat="47.454318981617689" lon="10.57059301994741">
        <ele>1211</ele>
        <time>2011-03-04T01:28:49Z</time>
      </trkpt>
      <trkpt lat="47.454262990504503" lon="10.570660997182131">
        <ele>1211</ele>
        <time>2011-03-04T01:28:52Z</time>
      </trkpt>
      <trkpt lat="47.454247986897826" lon="10.570775996893644">
        <ele>1211</ele>
        <time>2011-03-04T01:28:55Z</time>
      </trkpt>
      <trkpt lat="47.45416802354157" lon="10.57078898884356">
        <ele>1211</ele>
        <time>2011-03-04T01:28:59Z</time>
      </trkpt>
      <trkpt lat="47.454167017713189" lon="10.57087398134172">
        <ele>1211</ele>
        <time>2011-03-04T01:29:01Z</time>
      </trkpt>
      <trkpt lat="47.4541250243783" lon="10.570936007425189">
        <ele>1211</ele>
        <time>2011-03-04T01:29:03Z</time>
      </trkpt>
      <trkpt lat="47.454098034650087" lon="10.570922009646893">
        <ele>1211</ele>
        <time>2011-03-04T01:29:04Z</time>
      </trkpt>
      <trkpt lat="47.454038020223379" lon="10.570943970233202">
        <ele>1211</ele>
        <time>2011-03-04T01:29:07Z</time>
      </trkpt>
      <trkpt lat="47.453984040766954" lon="10.570907006040215">
        <ele>1211</ele>
        <time>2011-03-04T01:29:09Z</time>
      </trkpt>
      <trkpt lat="47.453935006633401" lon="10.570904994383454">
        <ele>1211</ele>
        <time>2011-03-04T01:29:11Z</time>
      </trkpt>
      <trkpt lat="47.45386996306479" lon="10.570898037403822">
        <ele>1211</ele>
        <time>2011-03-04T01:29:14Z</time>
      </trkpt>
      <trkpt lat="47.453882033005357" lon="10.57096098549664">
        <ele>1211</ele>
        <time>2011-03-04T01:29:16Z</time>
      </trkpt>
      <trkpt lat="47.453877003863454" lon="10.570964002981782">
        <ele>1211</ele>
        <time>2011-03-04T01:29:16Z</time>
      </trkpt>
      <trkpt lat="47.453860994428396" lon="10.571531038731337">
        <ele>1223</ele>
        <time>2011-03-04T01:29:31Z</time>
      </trkpt>
      <trkpt lat="47.453831993043423" lon="10.572086004540324">
        <ele>1228</ele>
        <time>2011-03-04T01:29:46Z</time>
      </trkpt>
      <trkpt lat="47.453921008855104" lon="10.572529993951321">
        <ele>1228</ele>
        <time>2011-03-04T01:29:59Z</time>
      </trkpt>
      <trkpt lat="47.45395302772522" lon="10.57313097640872">
        <ele>1239</ele>
        <time>2011-03-04T01:30:15Z</time>
      </trkpt>
      <trkpt lat="47.454006001353264" lon="10.573602961376309">
        <ele>1239</ele>
        <time>2011-03-04T01:30:28Z</time>
      </trkpt>
      <trkpt lat="47.454172968864441" lon="10.573976039886475">
        <ele>1251</ele>
        <time>2011-03-04T01:30:40Z</time>
      </trkpt>
      <trkpt lat="47.454196019098163" lon="10.574596971273422">
        <ele>1265</ele>
        <time>2011-03-04T01:30:57Z</time>
      </trkpt>
      <trkpt lat="47.454287968575954" lon="10.575155960395932">
        <ele>1265</ele>
        <time>2011-03-04T01:31:12Z</time>
      </trkpt>
      <trkpt lat="47.454436998814344" lon="10.575540019199252">
        <ele>1277</ele>
        <time>2011-03-04T01:31:24Z</time>
      </trkpt>
      <trkpt lat="47.454546969383955" lon="10.57559902779758">
        <ele>1277</ele>
        <time>2011-03-04T01:31:29Z</time>
      </trkpt>
      <trkpt lat="47.454801024869084" lon="10.575716961175203">
        <ele>1230</ele>
        <time>2011-03-04T01:31:40Z</time>
      </trkpt>
      <trkpt lat="47.454815022647381" lon="10.575835984200239">
        <ele>1230</ele>
        <time>2011-03-04T01:31:43Z</time>
      </trkpt>
      <trkpt lat="47.454946031793952" lon="10.576443001627922">
        <ele>1246</ele>
        <time>2011-03-04T01:32:00Z</time>
      </trkpt>
      <trkpt lat="47.454995987936854" lon="10.576732009649277">
        <ele>1246</ele>
        <time>2011-03-04T01:32:08Z</time>
      </trkpt>
      <trkpt lat="47.454975033178926" lon="10.576896965503693">
        <ele>1246</ele>
        <time>2011-03-04T01:32:13Z</time>
      </trkpt>
      <trkpt lat="47.454989030957222" lon="10.577312959358096">
        <ele>1255</ele>
        <time>2011-03-04T01:32:24Z</time>
      </trkpt>
      <trkpt lat="47.455123979598284" lon="10.578008992597461">
        <ele>1257</ele>
        <time>2011-03-04T01:32:44Z</time>
      </trkpt>
      <trkpt lat="47.455207966268063" lon="10.578623972833157">
        <ele>1257</ele>
        <time>2011-03-04T01:33:01Z</time>
      </trkpt>
      <trkpt lat="47.455165972933173" lon="10.578963020816445">
        <ele>1247</ele>
        <time>2011-03-04T01:33:10Z</time>
      </trkpt>
      <trkpt lat="47.455021971836686" lon="10.579180028289557">
        <ele>1247</ele>
        <time>2011-03-04T01:33:18Z</time>
      </trkpt>
      <trkpt lat="47.454904960468411" lon="10.579265020787716">
        <ele>1247</ele>
        <time>2011-03-04T01:33:24Z</time>
      </trkpt>
      <trkpt lat="47.454809993505478" lon="10.579465012997389">
        <ele>1247</ele>
        <time>2011-03-04T01:33:30Z</time>
      </trkpt>
      <trkpt lat="47.454730030149221" lon="10.579556962475181">
        <ele>1247</ele>
        <time>2011-03-04T01:33:34Z</time>
      </trkpt>
      <trkpt lat="47.454622993245721" lon="10.579645978286862">
        <ele>1228</ele>
        <time>2011-03-04T01:33:39Z</time>
      </trkpt>
      <trkpt lat="47.454633973538876" lon="10.579895004630089">
        <ele>1228</ele>
        <time>2011-03-04T01:33:46Z</time>
      </trkpt>
      <trkpt lat="47.454674039036036" lon="10.579904979094863">
        <ele>1228</ele>
        <time>2011-03-04T01:33:48Z</time>
      </trkpt>
      <trkpt lat="47.45490001514554" lon="10.579939009621739">
        <ele>1228</ele>
        <time>2011-03-04T01:33:57Z</time>
      </trkpt>
      <trkpt lat="47.455019038170576" lon="10.580620039254427">
        <ele>1241</ele>
        <time>2011-03-04T01:34:16Z</time>
      </trkpt>
      <trkpt lat="47.455001017078757" lon="10.580682987347245">
        <ele>1241</ele>
        <time>2011-03-04T01:34:18Z</time>
      </trkpt>
      <trkpt lat="47.455147029832006" lon="10.581149021163583">
        <ele>1241</ele>
        <time>2011-03-04T01:34:31Z</time>
      </trkpt>
      <trkpt lat="47.455254988744855" lon="10.581698035821319">
        <ele>1244</ele>
        <time>2011-03-04T01:34:47Z</time>
      </trkpt>
      <trkpt lat="47.455304022878408" lon="10.581861985847354">
        <ele>1244</ele>
        <time>2011-03-04T01:34:52Z</time>
      </trkpt>
      <trkpt lat="47.455452969297767" lon="10.582331037148833">
        <ele>1205</ele>
        <time>2011-03-04T01:35:06Z</time>
      </trkpt>
      <trkpt lat="47.455225987359881" lon="10.582630019634962">
        <ele>1246</ele>
        <time>2011-03-04T01:35:18Z</time>
      </trkpt>
      <trkpt lat="47.455237973481417" lon="10.583367040380836">
        <ele>1237</ele>
        <time>2011-03-04T01:35:38Z</time>
      </trkpt>
      <trkpt lat="47.455227999016643" lon="10.583653030917048">
        <ele>1237</ele>
        <time>2011-03-04T01:35:46Z</time>
      </trkpt>
      <trkpt lat="47.455236967653036" lon="10.584148988127708">
        <ele>1230</ele>
        <time>2011-03-04T01:35:59Z</time>
      </trkpt>
      <trkpt lat="47.455134959891438" lon="10.584610998630524">
        <ele>1225</ele>
        <time>2011-03-04T01:36:12Z</time>
      </trkpt>
      <trkpt lat="47.45513403788209" lon="10.584880979731679">
        <ele>1225</ele>
        <time>2011-03-04T01:36:20Z</time>
      </trkpt>
      <trkpt lat="47.455168990418315" lon="10.585052976384759">
        <ele>1225</ele>
        <time>2011-03-04T01:36:24Z</time>
      </trkpt>
      <trkpt lat="47.455090032890439" lon="10.585482968017459">
        <ele>1223</ele>
        <time>2011-03-04T01:36:36Z</time>
      </trkpt>
      <trkpt lat="47.455034963786602" lon="10.585710033774376">
        <ele>1223</ele>
        <time>2011-03-04T01:36:43Z</time>
      </trkpt>
      <trkpt lat="47.455118028447032" lon="10.586130972951651">
        <ele>1223</ele>
        <time>2011-03-04T01:36:55Z</time>
      </trkpt>
      <trkpt lat="47.455057008191943" lon="10.586501033976674">
        <ele>1220</ele>
        <time>2011-03-04T01:37:05Z</time>
      </trkpt>
      <trkpt lat="47.454992970451713" lon="10.586748970672488">
        <ele>1220</ele>
        <time>2011-03-04T01:37:12Z</time>
      </trkpt>
      <trkpt lat="47.455074023455381" lon="10.587015012279153">
        <ele>1220</ele>
        <time>2011-03-04T01:37:20Z</time>
      </trkpt>
      <trkpt lat="47.455181982368231" lon="10.587103022262454">
        <ele>1222</ele>
        <time>2011-03-04T01:37:25Z</time>
      </trkpt>
      <trkpt lat="47.455209977924824" lon="10.58737501502037">
        <ele>1222</ele>
        <time>2011-03-04T01:37:33Z</time>
      </trkpt>
      <trkpt lat="47.455035969614983" lon="10.587635021656752">
        <ele>1222</ele>
        <time>2011-03-04T01:37:43Z</time>
      </trkpt>
      <trkpt lat="47.455033035948873" lon="10.587855968624353">
        <ele>1222</ele>
        <time>2011-03-04T01:37:49Z</time>
      </trkpt>
      <trkpt lat="47.455117022618651" lon="10.588332982733846">
        <ele>1218</ele>
        <time>2011-03-04T01:38:02Z</time>
      </trkpt>
      <trkpt lat="47.455112999305129" lon="10.588507996872067">
        <ele>1218</ele>
        <time>2011-03-04T01:38:07Z</time>
      </trkpt>
      <trkpt lat="47.455234033986926" lon="10.588669013231993">
        <ele>1218</ele>
        <time>2011-03-04T01:38:13Z</time>
      </trkpt>
      <trkpt lat="47.455153986811638" lon="10.589162958785892">
        <ele>1221</ele>
        <time>2011-03-04T01:38:27Z</time>
      </trkpt>
      <trkpt lat="47.455059019848704" lon="10.589325986802578">
        <ele>1221</ele>
        <time>2011-03-04T01:38:33Z</time>
      </trkpt>
      <trkpt lat="47.45515700429678" lon="10.58973602950573">
        <ele>1220</ele>
        <time>2011-03-04T01:38:44Z</time>
      </trkpt>
      <trkpt lat="47.455216012895107" lon="10.590457040816545">
        <ele>1220</ele>
        <time>2011-03-04T01:39:04Z</time>
      </trkpt>
      <trkpt lat="47.455219030380249" lon="10.590746970847249">
        <ele>1220</ele>
        <time>2011-03-04T01:39:12Z</time>
      </trkpt>
      <trkpt lat="47.455262029543519" lon="10.591492038220167">
        <ele>1222</ele>
        <time>2011-03-04T01:39:32Z</time>
      </trkpt>
      <trkpt lat="47.455398989841342" lon="10.591998975723982">
        <ele>1222</ele>
        <time>2011-03-04T01:39:47Z</time>
      </trkpt>
      <trkpt lat="47.455388009548187" lon="10.592371970415115">
        <ele>1226</ele>
        <time>2011-03-04T01:39:57Z</time>
      </trkpt>
      <trkpt lat="47.455490017309785" lon="10.592805985361338">
        <ele>1183</ele>
        <time>2011-03-04T01:40:10Z</time>
      </trkpt>
      <trkpt lat="47.455428997054696" lon="10.593257015570998">
        <ele>1185</ele>
        <time>2011-03-04T01:40:22Z</time>
      </trkpt>
      <trkpt lat="47.455447018146515" lon="10.593420965597034">
        <ele>1185</ele>
        <time>2011-03-04T01:40:26Z</time>
      </trkpt>
      <trkpt lat="47.455486999824643" lon="10.593832014128566">
        <ele>1182</ele>
        <time>2011-03-04T01:40:38Z</time>
      </trkpt>
      <trkpt lat="47.45558699592948" lon="10.594101995229721">
        <ele>1182</ele>
        <time>2011-03-04T01:40:46Z</time>
      </trkpt>
      <trkpt lat="47.455455986782908" lon="10.594310034066439">
        <ele>1182</ele>
        <time>2011-03-04T01:40:54Z</time>
      </trkpt>
      <trkpt lat="47.455592025071383" lon="10.594710018485785">
        <ele>1187</ele>
        <time>2011-03-04T01:41:06Z</time>
      </trkpt>
      <trkpt lat="47.455580960959196" lon="10.594864999875426">
        <ele>1187</ele>
        <time>2011-03-04T01:41:10Z</time>
      </trkpt>
      <trkpt lat="47.455537961795926" lon="10.595050994306803">
        <ele>1187</ele>
        <time>2011-03-04T01:41:15Z</time>
      </trkpt>
      <trkpt lat="47.455769972875714" lon="10.595802012830973">
        <ele>1192</ele>
        <time>2011-03-04T01:41:38Z</time>
      </trkpt>
      <trkpt lat="47.455796962603927" lon="10.595877030864358">
        <ele>1192</ele>
        <time>2011-03-04T01:41:40Z</time>
      </trkpt>
      <trkpt lat="47.455821018666029" lon="10.596220018342137">
        <ele>1192</ele>
        <time>2011-03-04T01:41:49Z</time>
      </trkpt>
      <trkpt lat="47.455830993130803" lon="10.596554959192872">
        <ele>1190</ele>
        <time>2011-03-04T01:41:58Z</time>
      </trkpt>
      <trkpt lat="47.4558259639889" lon="10.596689991652966">
        <ele>1190</ele>
        <time>2011-03-04T01:42:02Z</time>
      </trkpt>
      <trkpt lat="47.455929983407259" lon="10.597144039347768">
        <ele>1202</ele>
        <time>2011-03-04T01:42:15Z</time>
      </trkpt>
      <trkpt lat="47.455989997833967" lon="10.597470011562109">
        <ele>1202</ele>
        <time>2011-03-04T01:42:24Z</time>
      </trkpt>
      <trkpt lat="47.456144979223609" lon="10.597962029278278">
        <ele>1212</ele>
        <time>2011-03-04T01:42:39Z</time>
      </trkpt>
      <trkpt lat="47.456184960901737" lon="10.598020032048225">
        <ele>1212</ele>
        <time>2011-03-04T01:42:41Z</time>
      </trkpt>
      <trkpt lat="47.456261990591884" lon="10.59831197373569">
        <ele>1166</ele>
        <time>2011-03-04T01:42:50Z</time>
      </trkpt>
      <trkpt lat="47.456552004441619" lon="10.598600981757045">
        <ele>1166</ele>
        <time>2011-03-04T01:43:04Z</time>
      </trkpt>
      <trkpt lat="47.456609001383185" lon="10.598836010321975">
        <ele>1177</ele>
        <time>2011-03-04T01:43:10Z</time>
      </trkpt>
      <trkpt lat="47.456599026918411" lon="10.599042037501931">
        <ele>1177</ele>
        <time>2011-03-04T01:43:16Z</time>
      </trkpt>
      <trkpt lat="47.456615958362818" lon="10.599206993356347">
        <ele>1177</ele>
        <time>2011-03-04T01:43:21Z</time>
      </trkpt>
      <trkpt lat="47.45676901191473" lon="10.599285028874874">
        <ele>1177</ele>
        <time>2011-03-04T01:43:27Z</time>
      </trkpt>
      <trkpt lat="47.456885017454624" lon="10.599633967503905">
        <ele>1191</ele>
        <time>2011-03-04T01:43:38Z</time>
      </trkpt>
      <trkpt lat="47.456992976367474" lon="10.599863966926932">
        <ele>1191</ele>
        <time>2011-03-04T01:43:45Z</time>
      </trkpt>
      <trkpt lat="47.457149969413877" lon="10.600060019642115">
        <ele>1153</ele>
        <time>2011-03-04T01:43:53Z</time>
      </trkpt>
      <trkpt lat="47.457248959690332" lon="10.600222963839769">
        <ele>1153</ele>
        <time>2011-03-04T01:43:59Z</time>
      </trkpt>
      <trkpt lat="47.457316014915705" lon="10.600391020998359">
        <ele>1153</ele>
        <time>2011-03-04T01:44:05Z</time>
      </trkpt>
      <trkpt lat="47.457435037940741" lon="10.600602999329567">
        <ele>1175</ele>
        <time>2011-03-04T01:44:12Z</time>
      </trkpt>
      <trkpt lat="47.457645004615188" lon="10.601407997310162">
        <ele>1183</ele>
        <time>2011-03-04T01:44:35Z</time>
      </trkpt>
      <trkpt lat="47.457828987389803" lon="10.602161027491093">
        <ele>1180</ele>
        <time>2011-03-04T01:44:57Z</time>
      </trkpt>
      <trkpt lat="47.4578239582479" lon="10.602489011362195">
        <ele>1180</ele>
        <time>2011-03-04T01:45:06Z</time>
      </trkpt>
      <trkpt lat="47.457791017368436" lon="10.602924032136798">
        <ele>1176</ele>
        <time>2011-03-04T01:45:18Z</time>
      </trkpt>
      <trkpt lat="47.457770984619856" lon="10.603106003254652">
        <ele>1176</ele>
        <time>2011-03-04T01:45:23Z</time>
      </trkpt>
      <trkpt lat="47.457769978791475" lon="10.603258972987533">
        <ele>1176</ele>
        <time>2011-03-04T01:45:27Z</time>
      </trkpt>
      <trkpt lat="47.457932000979781" lon="10.60434602200985">
        <ele>1137</ele>
        <time>2011-03-04T01:45:57Z</time>
      </trkpt>
      <trkpt lat="47.457924038171768" lon="10.605208016932011">
        <ele>1139</ele>
        <time>2011-03-04T01:46:20Z</time>
      </trkpt>
      <trkpt lat="47.457713987678289" lon="10.605783015489578">
        <ele>1187</ele>
        <time>2011-03-04T01:46:38Z</time>
      </trkpt>
      <trkpt lat="47.45777802541852" lon="10.606042016297579">
        <ele>1187</ele>
        <time>2011-03-04T01:46:45Z</time>
      </trkpt>
      <trkpt lat="47.45803602039814" lon="10.606279978528619">
        <ele>1141</ele>
        <time>2011-03-04T01:46:58Z</time>
      </trkpt>
      <trkpt lat="47.45818798430264" lon="10.606576027348638">
        <ele>1141</ele>
        <time>2011-03-04T01:47:08Z</time>
      </trkpt>
      <trkpt lat="47.458441033959389" lon="10.606899987906218">
        <ele>1141</ele>
        <time>2011-03-04T01:47:21Z</time>
      </trkpt>
      <trkpt lat="47.458565002307296" lon="10.607366021722555">
        <ele>1155</ele>
        <time>2011-03-04T01:47:35Z</time>
      </trkpt>
      <trkpt lat="47.458505993708968" lon="10.607815040275455">
        <ele>1155</ele>
        <time>2011-03-04T01:47:47Z</time>
      </trkpt>
      <trkpt lat="47.458606995642185" lon="10.60817495919764">
        <ele>1169</ele>
        <time>2011-03-04T01:47:58Z</time>
      </trkpt>
      <trkpt lat="47.458646977320313" lon="10.608333041891456">
        <ele>1169</ele>
        <time>2011-03-04T01:48:02Z</time>
      </trkpt>
      <trkpt lat="47.4586390145123" lon="10.608811983838677">
        <ele>1182</ele>
        <time>2011-03-04T01:48:15Z</time>
      </trkpt>
      <trkpt lat="47.458804976195097" lon="10.609342977404594">
        <ele>1128</ele>
        <time>2011-03-04T01:48:31Z</time>
      </trkpt>
      <trkpt lat="47.458872031420469" lon="10.609680013731122">
        <ele>1128</ele>
        <time>2011-03-04T01:48:40Z</time>
      </trkpt>
      <trkpt lat="47.458971021696925" lon="10.610346961766481">
        <ele>1128</ele>
        <time>2011-03-04T01:48:59Z</time>
      </trkpt>
      <trkpt lat="47.459023995324969" lon="10.610947022214532">
        <ele>1128</ele>
        <time>2011-03-04T01:49:15Z</time>
      </trkpt>
      <trkpt lat="47.45902500115335" lon="10.611211974173784">
        <ele>1128</ele>
        <time>2011-03-04T01:49:23Z</time>
      </trkpt>
      <trkpt lat="47.458672039210796" lon="10.612519970163703">
        <ele>1158</ele>
        <time>2011-03-04T01:50:01Z</time>
      </trkpt>
      <trkpt lat="47.458570031449199" lon="10.612817024812102">
        <ele>1158</ele>
        <time>2011-03-04T01:50:10Z</time>
      </trkpt>
      <trkpt lat="47.458540024235845" lon="10.612911991775036">
        <ele>1158</ele>
        <time>2011-03-04T01:50:12Z</time>
      </trkpt>
      <trkpt lat="47.458477998152375" lon="10.613314993679523">
        <ele>1136</ele>
        <time>2011-03-04T01:50:24Z</time>
      </trkpt>
      <trkpt lat="47.458302984014153" lon="10.613839030265808">
        <ele>1116</ele>
        <time>2011-03-04T01:50:39Z</time>
      </trkpt>
      <trkpt lat="47.458186978474259" lon="10.614125020802021">
        <ele>1116</ele>
        <time>2011-03-04T01:50:49Z</time>
      </trkpt>
      <trkpt lat="47.458126964047551" lon="10.614259969443083">
        <ele>1116</ele>
        <time>2011-03-04T01:50:53Z</time>
      </trkpt>
      <trkpt lat="47.457966031506658" lon="10.614397013559937">
        <ele>1116</ele>
        <time>2011-03-04T01:51:00Z</time>
      </trkpt>
      <trkpt lat="47.457531010732055" lon="10.6146389991045">
        <ele>1112</ele>
        <time>2011-03-04T01:51:19Z</time>
      </trkpt>
      <trkpt lat="47.457380974665284" lon="10.614689961075783">
        <ele>1112</ele>
        <time>2011-03-04T01:51:25Z</time>
      </trkpt>
      <trkpt lat="47.457315009087324" lon="10.614880984649062">
        <ele>1112</ele>
        <time>2011-03-04T01:51:31Z</time>
      </trkpt>
      <trkpt lat="47.457018038257957" lon="10.615553967654705">
        <ele>1124</ele>
        <time>2011-03-04T01:51:53Z</time>
      </trkpt>
      <trkpt lat="47.456889962777495" lon="10.615850016474724">
        <ele>1124</ele>
        <time>2011-03-04T01:52:02Z</time>
      </trkpt>
      <trkpt lat="47.456750990822911" lon="10.615941965952516">
        <ele>1124</ele>
        <time>2011-03-04T01:52:08Z</time>
      </trkpt>
      <trkpt lat="47.456633979454637" lon="10.615903995931149">
        <ele>1124</ele>
        <time>2011-03-04T01:52:13Z</time>
      </trkpt>
      <trkpt lat="47.456443039700389" lon="10.615989994257689">
        <ele>1124</ele>
        <time>2011-03-04T01:52:21Z</time>
      </trkpt>
      <trkpt lat="47.455835016444325" lon="10.616546971723437">
        <ele>1115</ele>
        <time>2011-03-04T01:52:50Z</time>
      </trkpt>
      <trkpt lat="47.455712975934148" lon="10.616734977811575">
        <ele>1115</ele>
        <time>2011-03-04T01:52:57Z</time>
      </trkpt>
      <trkpt lat="47.455539973452687" lon="10.617078971117735">
        <ele>1115</ele>
        <time>2011-03-04T01:53:08Z</time>
      </trkpt>
      <trkpt lat="47.45545799843967" lon="10.61717301607132">
        <ele>1079</ele>
        <time>2011-03-04T01:53:12Z</time>
      </trkpt>
      <trkpt lat="47.455240990966558" lon="10.617187013849616">
        <ele>1097</ele>
        <time>2011-03-04T01:53:21Z</time>
      </trkpt>
      <trkpt lat="47.455021971836686" lon="10.617048963904381">
        <ele>1126</ele>
        <time>2011-03-04T01:53:31Z</time>
      </trkpt>
      <trkpt lat="47.454737992957234" lon="10.617233030498028">
        <ele>1097</ele>
        <time>2011-03-04T01:53:43Z</time>
      </trkpt>
      <trkpt lat="47.454689964652061" lon="10.617310982197523">
        <ele>1097</ele>
        <time>2011-03-04T01:53:46Z</time>
      </trkpt>
      <trkpt lat="47.454597009345889" lon="10.617462024092674">
        <ele>1097</ele>
        <time>2011-03-04T01:53:51Z</time>
      </trkpt>
      <trkpt lat="47.454374972730875" lon="10.61745397746563">
        <ele>1103</ele>
        <time>2011-03-04T01:54:00Z</time>
      </trkpt>
      <trkpt lat="47.454228959977627" lon="10.617372002452612">
        <ele>1103</ele>
        <time>2011-03-04T01:54:07Z</time>
      </trkpt>
      <trkpt lat="47.45399996638298" lon="10.617393963038921">
        <ele>1103</ele>
        <time>2011-03-04T01:54:16Z</time>
      </trkpt>
      <trkpt lat="47.453926960006356" lon="10.617413995787501">
        <ele>1103</ele>
        <time>2011-03-04T01:54:19Z</time>
      </trkpt>
      <trkpt lat="47.453810032457113" lon="10.617420030757785">
        <ele>1103</ele>
        <time>2011-03-04T01:54:23Z</time>
      </trkpt>
      <trkpt lat="47.453725039958954" lon="10.617489013820887">
        <ele>1109</ele>
        <time>2011-03-04T01:54:27Z</time>
      </trkpt>
      <trkpt lat="47.453755969181657" lon="10.617738962173462">
        <ele>1103</ele>
        <time>2011-03-04T01:54:34Z</time>
      </trkpt>
      <trkpt lat="47.453751023858786" lon="10.617919005453587">
        <ele>1068</ele>
        <time>2011-03-04T01:54:39Z</time>
      </trkpt>
      <trkpt lat="47.453552959486842" lon="10.61807700432837">
        <ele>1090</ele>
        <time>2011-03-04T01:54:48Z</time>
      </trkpt>
      <trkpt lat="47.453355984762311" lon="10.618204995989799">
        <ele>1090</ele>
        <time>2011-03-04T01:54:57Z</time>
      </trkpt>
      <trkpt lat="47.453178036957979" lon="10.618395013734698">
        <ele>1090</ele>
        <time>2011-03-04T01:55:06Z</time>
      </trkpt>
      <trkpt lat="47.453168984502554" lon="10.618798015639186">
        <ele>1081</ele>
        <time>2011-03-04T01:55:16Z</time>
      </trkpt>
      <trkpt lat="47.453081980347633" lon="10.618772031739354">
        <ele>1081</ele>
        <time>2011-03-04T01:55:20Z</time>
      </trkpt>
      <trkpt lat="47.452827002853155" lon="10.618874961510301">
        <ele>1075</ele>
        <time>2011-03-04T01:55:31Z</time>
      </trkpt>
      <trkpt lat="47.452609995380044" lon="10.619030026718974">
        <ele>1075</ele>
        <time>2011-03-04T01:55:40Z</time>
      </trkpt>
      <trkpt lat="47.452458031475544" lon="10.619144020602107">
        <ele>1075</ele>
        <time>2011-03-04T01:55:47Z</time>
      </trkpt>
      <trkpt lat="47.452411008998752" lon="10.619181990623474">
        <ele>1075</ele>
        <time>2011-03-04T01:55:49Z</time>
      </trkpt>
      <trkpt lat="47.452370021492243" lon="10.619220966473222">
        <ele>1075</ele>
        <time>2011-03-04T01:55:51Z</time>
      </trkpt>
      <trkpt lat="47.452184027060866" lon="10.619576023891568">
        <ele>1075</ele>
        <time>2011-03-04T01:56:03Z</time>
      </trkpt>
      <trkpt lat="47.452070033177733" lon="10.619674008339643">
        <ele>1049</ele>
        <time>2011-03-04T01:56:09Z</time>
      </trkpt>
      <trkpt lat="47.452013958245516" lon="10.619722958654165">
        <ele>1049</ele>
        <time>2011-03-04T01:56:11Z</time>
      </trkpt>
      <trkpt lat="47.451837016269565" lon="10.619584992527962">
        <ele>1049</ele>
        <time>2011-03-04T01:56:19Z</time>
      </trkpt>
      <trkpt lat="47.451565023511648" lon="10.619271006435156">
        <ele>1080</ele>
        <time>2011-03-04T01:56:33Z</time>
      </trkpt>
      <trkpt lat="47.451459998264909" lon="10.619135973975062">
        <ele>1080</ele>
        <time>2011-03-04T01:56:39Z</time>
      </trkpt>
      <trkpt lat="47.451377017423511" lon="10.619061961770058">
        <ele>1080</ele>
        <time>2011-03-04T01:56:42Z</time>
      </trkpt>
      <trkpt lat="47.451093960553408" lon="10.618546977639198">
        <ele>1070</ele>
        <time>2011-03-04T01:57:00Z</time>
      </trkpt>
      <trkpt lat="47.450907966122031" lon="10.618371041491628">
        <ele>1070</ele>
        <time>2011-03-04T01:57:09Z</time>
      </trkpt>
      <trkpt lat="47.450732029974461" lon="10.618218993768096">
        <ele>1070</ele>
        <time>2011-03-04T01:57:17Z</time>
      </trkpt>
      <trkpt lat="47.450462970882654" lon="10.618091002106667">
        <ele>1070</ele>
        <time>2011-03-04T01:57:29Z</time>
      </trkpt>
      <trkpt lat="47.450403040274978" lon="10.618060994893312">
        <ele>1026</ele>
        <time>2011-03-04T01:57:31Z</time>
      </trkpt>
      <trkpt lat="47.45010799728334" lon="10.617805011570454">
        <ele>1057</ele>
        <time>2011-03-04T01:57:45Z</time>
      </trkpt>
      <trkpt lat="47.449871962890029" lon="10.617541987448931">
        <ele>1057</ele>
        <time>2011-03-04T01:57:57Z</time>
      </trkpt>
      <trkpt lat="47.449758974835277" lon="10.617372002452612">
        <ele>1057</ele>
        <time>2011-03-04T01:58:03Z</time>
      </trkpt>
      <trkpt lat="47.449778001755476" lon="10.617415001615882">
        <ele>1057</ele>
        <time>2011-03-04T01:58:05Z</time>
      </trkpt>
      <trkpt lat="47.449737014248967" lon="10.617425981909037">
        <ele>1057</ele>
        <time>2011-03-04T01:58:06Z</time>
      </trkpt>
      <trkpt lat="47.449682028964162" lon="10.617639971897006">
        <ele>1057</ele>
        <time>2011-03-04T01:58:12Z</time>
      </trkpt>
      <trkpt lat="47.449824018403888" lon="10.617857985198498">
        <ele>1057</ele>
        <time>2011-03-04T01:58:21Z</time>
      </trkpt>
      <trkpt lat="47.450076984241605" lon="10.618253024294972">
        <ele>1026</ele>
        <time>2011-03-04T01:58:35Z</time>
      </trkpt>
      <trkpt lat="47.450141021981835" lon="10.618388978764415">
        <ele>1026</ele>
        <time>2011-03-04T01:58:40Z</time>
      </trkpt>
      <trkpt lat="47.450319975614548" lon="10.618528034538031">
        <ele>1026</ele>
        <time>2011-03-04T01:58:48Z</time>
      </trkpt>
      <trkpt lat="47.450393987819552" lon="10.618702964857221">
        <ele>1026</ele>
        <time>2011-03-04T01:58:54Z</time>
      </trkpt>
      <trkpt lat="47.450399016961455" lon="10.618794998154044">
        <ele>1018</ele>
        <time>2011-03-04T01:58:56Z</time>
      </trkpt>
      <trkpt lat="47.450405973941088" lon="10.619062967598438">
        <ele>1018</ele>
        <time>2011-03-04T01:59:03Z</time>
      </trkpt>
      <trkpt lat="47.450469005852938" lon="10.619272012263536">
        <ele>1028</ele>
        <time>2011-03-04T01:59:10Z</time>
      </trkpt>
      <trkpt lat="47.45060496032238" lon="10.619552973657846">
        <ele>1028</ele>
        <time>2011-03-04T01:59:19Z</time>
      </trkpt>
      <trkpt lat="47.450694981962442" lon="10.619630003347993">
        <ele>1007</ele>
        <time>2011-03-04T01:59:23Z</time>
      </trkpt>
      <trkpt lat="47.450795983895659" lon="10.619682976976037">
        <ele>1007</ele>
        <time>2011-03-04T01:59:27Z</time>
      </trkpt>
      <trkpt lat="47.450861027464271" lon="10.619780039414763">
        <ele>1007</ele>
        <time>2011-03-04T01:59:31Z</time>
      </trkpt>
      <trkpt lat="47.450978038832545" lon="10.620049014687538">
        <ele>1007</ele>
        <time>2011-03-04T01:59:40Z</time>
      </trkpt>
      <trkpt lat="47.450996981933713" lon="10.620313966646791">
        <ele>1007</ele>
        <time>2011-03-04T01:59:47Z</time>
      </trkpt>
      <trkpt lat="47.451008968055248" lon="10.62048202380538">
        <ele>997</ele>
        <time>2011-03-04T01:59:51Z</time>
      </trkpt>
      <trkpt lat="47.451126985251904" lon="10.621006982401013">
        <ele>997</ele>
        <time>2011-03-04T02:00:06Z</time>
      </trkpt>
      <trkpt lat="47.451128996908665" lon="10.621108990162611">
        <ele>997</ele>
        <time>2011-03-04T02:00:09Z</time>
      </trkpt>
      <trkpt lat="47.45109798386693" lon="10.621519032865763">
        <ele>978</ele>
        <time>2011-03-04T02:00:20Z</time>
      </trkpt>
      <trkpt lat="47.451105024665594" lon="10.621566977351904">
        <ele>978</ele>
        <time>2011-03-04T02:00:22Z</time>
      </trkpt>
      <trkpt lat="47.451178031042218" lon="10.62162003479898">
        <ele>978</ele>
        <time>2011-03-04T02:00:25Z</time>
      </trkpt>
      <trkpt lat="47.451479025185108" lon="10.621611988171935">
        <ele>995</ele>
        <time>2011-03-04T02:00:37Z</time>
      </trkpt>
      <trkpt lat="47.4515709746629" lon="10.62157703563571">
        <ele>995</ele>
        <time>2011-03-04T02:00:41Z</time>
      </trkpt>
      <trkpt lat="47.451598970219493" lon="10.621581980958581">
        <ele>995</ele>
        <time>2011-03-04T02:00:42Z</time>
      </trkpt>
      <trkpt lat="47.451435020193458" lon="10.621825978159904">
        <ele>995</ele>
        <time>2011-03-04T02:00:51Z</time>
      </trkpt>
      <trkpt lat="47.451379029080272" lon="10.621810974553227">
        <ele>995</ele>
        <time>2011-03-04T02:00:54Z</time>
      </trkpt>
      <trkpt lat="47.451319014653563" lon="10.62179303728044">
        <ele>995</ele>
        <time>2011-03-04T02:00:56Z</time>
      </trkpt>
      <trkpt lat="47.451079962775111" lon="10.621789013966918">
        <ele>978</ele>
        <time>2011-03-04T02:01:06Z</time>
      </trkpt>
      <trkpt lat="47.451007962226868" lon="10.62179496511817">
        <ele>978</ele>
        <time>2011-03-04T02:01:08Z</time>
      </trkpt>
      <trkpt lat="47.450907966122031" lon="10.621776022017002">
        <ele>978</ele>
        <time>2011-03-04T02:01:12Z</time>
      </trkpt>
      <trkpt lat="47.450945014134049" lon="10.621918011456728">
        <ele>978</ele>
        <time>2011-03-04T02:01:17Z</time>
      </trkpt>
      <trkpt lat="47.451079040765762" lon="10.621956987306476">
        <ele>978</ele>
        <time>2011-03-04T02:01:22Z</time>
      </trkpt>
      <trkpt lat="47.451337035745382" lon="10.622089002281427">
        <ele>964</ele>
        <time>2011-03-04T02:01:33Z</time>
      </trkpt>
      <trkpt lat="47.451544990763068" lon="10.622083973139524">
        <ele>964</ele>
        <time>2011-03-04T02:01:41Z</time>
      </trkpt>
      <trkpt lat="47.451565023511648" lon="10.622120015323162">
        <ele>964</ele>
        <time>2011-03-04T02:01:43Z</time>
      </trkpt>
      <trkpt lat="47.451344998553395" lon="10.622229985892773">
        <ele>964</ele>
        <time>2011-03-04T02:01:52Z</time>
      </trkpt>
      <trkpt lat="47.450974015519023" lon="10.622164020314813">
        <ele>954</ele>
        <time>2011-03-04T02:02:07Z</time>
      </trkpt>
      <trkpt lat="47.450834037736058" lon="10.622177012264729">
        <ele>954</ele>
        <time>2011-03-04T02:02:12Z</time>
      </trkpt>
      <trkpt lat="47.450675033032894" lon="10.62211599200964">
        <ele>954</ele>
        <time>2011-03-04T02:02:19Z</time>
      </trkpt>
      <trkpt lat="47.450603032484651" lon="10.621928991749883">
        <ele>978</ele>
        <time>2011-03-04T02:02:25Z</time>
      </trkpt>
      <trkpt lat="47.450522985309362" lon="10.62200996093452">
        <ele>978</ele>
        <time>2011-03-04T02:02:29Z</time>
      </trkpt>
      <trkpt lat="47.450646031647921" lon="10.622163014486432">
        <ele>954</ele>
        <time>2011-03-04T02:02:35Z</time>
      </trkpt>
      <trkpt lat="47.450745021924376" lon="10.622380021959543">
        <ele>954</ele>
        <time>2011-03-04T02:02:42Z</time>
      </trkpt>
      <trkpt lat="47.450921041890979" lon="10.622608009725809">
        <ele>954</ele>
        <time>2011-03-04T02:02:52Z</time>
      </trkpt>
      <trkpt lat="47.451191022992134" lon="10.622743964195251">
        <ele>954</ele>
        <time>2011-03-04T02:03:03Z</time>
      </trkpt>
      <trkpt lat="47.451265035197139" lon="10.622689984738827">
        <ele>964</ele>
        <time>2011-03-04T02:03:06Z</time>
      </trkpt>
      <trkpt lat="47.451146012172103" lon="10.622896011918783">
        <ele>954</ele>
        <time>2011-03-04T02:03:14Z</time>
      </trkpt>
      <trkpt lat="47.451079040765762" lon="10.622905986383557">
        <ele>954</ele>
        <time>2011-03-04T02:03:16Z</time>
      </trkpt>
      <trkpt lat="47.450936967507005" lon="10.62293297611177">
        <ele>940</ele>
        <time>2011-03-04T02:03:22Z</time>
      </trkpt>
      <trkpt lat="47.450806964188814" lon="10.623087035492063">
        <ele>940</ele>
        <time>2011-03-04T02:03:29Z</time>
      </trkpt>
      <trkpt lat="47.450672015547752" lon="10.62400602735579">
        <ele>943</ele>
        <time>2011-03-04T02:03:54Z</time>
      </trkpt>
      <trkpt lat="47.450681990012527" lon="10.624684961512685">
        <ele>950</ele>
        <time>2011-03-04T02:04:13Z</time>
      </trkpt>
      <trkpt lat="47.450652988627553" lon="10.625481996685266">
        <ele>951</ele>
        <time>2011-03-04T02:04:34Z</time>
      </trkpt>
      <trkpt lat="47.450672015547752" lon="10.625587021932006">
        <ele>951</ele>
        <time>2011-03-04T02:04:37Z</time>
      </trkpt>
      <trkpt lat="47.450780980288982" lon="10.626493021845818">
        <ele>946</ele>
        <time>2011-03-04T02:05:02Z</time>
      </trkpt>
      <trkpt lat="47.450778968632221" lon="10.626612966880202">
        <ele>946</ele>
        <time>2011-03-04T02:05:05Z</time>
      </trkpt>
      <trkpt lat="47.450556010007858" lon="10.627865977585316">
        <ele>951</ele>
        <time>2011-03-04T02:05:40Z</time>
      </trkpt>
      <trkpt lat="47.450294997543097" lon="10.628783041611314">
        <ele>919</ele>
        <time>2011-03-04T02:06:07Z</time>
      </trkpt>
      <trkpt lat="47.449917979538441" lon="10.630362024530768">
        <ele>920</ele>
        <time>2011-03-04T02:06:53Z</time>
      </trkpt>
      <trkpt lat="47.449409030377865" lon="10.631582010537386">
        <ele>916</ele>
        <time>2011-03-04T02:07:31Z</time>
      </trkpt>
      <trkpt lat="47.449358990415931" lon="10.631773034110665">
        <ele>916</ele>
        <time>2011-03-04T02:07:37Z</time>
      </trkpt>
      <trkpt lat="47.449344992637634" lon="10.632124990224838">
        <ele>914</ele>
        <time>2011-03-04T02:07:47Z</time>
      </trkpt>
      <trkpt lat="47.449280032888055" lon="10.633095027878881">
        <ele>914</ele>
        <time>2011-03-04T02:08:13Z</time>
      </trkpt>
      <trkpt lat="47.449016002938151" lon="10.634291041642427">
        <ele>916</ele>
        <time>2011-03-04T02:08:47Z</time>
      </trkpt>
      <trkpt lat="47.448906032368541" lon="10.634623970836401">
        <ele>922</ele>
        <time>2011-03-04T02:08:57Z</time>
      </trkpt>
      <trkpt lat="47.448766976594925" lon="10.635079024359584">
        <ele>922</ele>
        <time>2011-03-04T02:09:11Z</time>
      </trkpt>
      <trkpt lat="47.448703022673726" lon="10.635438021272421">
        <ele>903</ele>
        <time>2011-03-04T02:09:21Z</time>
      </trkpt>
      <trkpt lat="47.44866899214685" lon="10.636134976521134">
        <ele>903</ele>
        <time>2011-03-04T02:09:39Z</time>
      </trkpt>
      <trkpt lat="47.448452990502119" lon="10.636717015877366">
        <ele>905</ele>
        <time>2011-03-04T02:09:57Z</time>
      </trkpt>
      <trkpt lat="47.447768021374941" lon="10.637849997729063">
        <ele>900</ele>
        <time>2011-03-04T02:10:39Z</time>
      </trkpt>
      <trkpt lat="47.447486976161599" lon="10.638161972165108">
        <ele>904</ele>
        <time>2011-03-04T02:10:53Z</time>
      </trkpt>
      <trkpt lat="47.447333000600338" lon="10.638159038498998">
        <ele>904</ele>
        <time>2011-03-04T02:10:59Z</time>
      </trkpt>
      <trkpt lat="47.447353033348918" lon="10.638127019628882">
        <ele>904</ele>
        <time>2011-03-04T02:11:00Z</time>
      </trkpt>
      <trkpt lat="47.447366025298834" lon="10.63814596273005">
        <ele>904</ele>
        <time>2011-03-04T02:11:01Z</time>
      </trkpt>
      <trkpt lat="47.447340041399002" lon="10.638148980215192">
        <ele>904</ele>
        <time>2011-03-04T02:11:02Z</time>
      </trkpt>
      <trkpt lat="47.447369964793324" lon="10.638130959123373">
        <ele>904</ele>
        <time>2011-03-04T02:11:03Z</time>
      </trkpt>
      <trkpt lat="47.447354039177299" lon="10.638201031833887">
        <ele>904</ele>
        <time>2011-03-04T02:11:05Z</time>
      </trkpt>
      <trkpt lat="47.447374993935227" lon="10.638187034055591">
        <ele>904</ele>
        <time>2011-03-04T02:11:06Z</time>
      </trkpt>
      <trkpt lat="47.447354039177299" lon="10.638201031833887">
        <ele>904</ele>
        <time>2011-03-04T02:11:07Z</time>
      </trkpt>
    </trkseg>
  </trk>

</gpx>
